[[[{"header":{"parameterUnit":"kt","parameterCategory":2,"dx":1,"dy":1,"la1":29.587661999999998,"la2":31.0,"lo1":-88.76705300000003,"lo2":-86.6583820000003,"nx":115,"ny":88,"refTime":"2022-10-05T06:00:00:Z","depth":0,"parameterNumber":1,"parameterNumberName":"U-component_of_WINDS"},"data":[3.5004,3.5004,3.5004,3.5004,3.5004,3.5004,3.5004,3.5269,3.6149,3.6889,3.7662,3.8684,3.9211,3.9463,4.0588,4.1575,4.2064,4.3175,4.382,4.4437,4.4742,4.4859,4.4952,4.4952,4.4952,4.4976,4.4976,4.5093,4.5351,4.5699,4.607,4.6414,4.6617,4.741,4.8386,4.8745,4.9073,4.9957,5.0259,5.047,5.0172,5.0451,5.1392,5.1474,5.1282,5.1461,5.1416,5.089,5.0756,5.0702,5.0819,5.0651,4.9657,4.8342,4.7547,4.7449,4.7846,4.8055,4.8533,4.9298,4.9448,5.0276,5.1114,5.1561,5.0572,5.0852,5.0972,5.1269,5.0632,4.8714,4.8464,4.8328,4.8804,4.8878,4.8495,4.9062,4.9495,4.899,4.8606,4.8866,4.9168,4.9243,4.9393,4.9541,4.9845,5.0093,5.0165,5.0379,5.0667,5.1851,5.297,5.297,5.2908,5.3003,5.2687,5.2401,5.2846,5.275,5.275,5.2783,5.2908,5.3003,5.3065,5.3065,5.3065,5.3065,5.3065,5.3065,5.3065,5.3065,5.3065,5.3065,5.3065,5.3065,5.3065,3.5004,3.5004,3.5004,3.5004,3.5004,3.5004,3.5004,3.5004,3.5269,3.5887,3.6909,3.667,3.7208,3.7981,3.8874,4.0237,4.1452,4.2549,4.3438,4.4176,4.4624,4.4859,4.4952,4.4952,4.4952,4.4952,4.4952,4.4976,4.5093,4.5351,4.5699,4.5955,4.6414,4.6984,4.7634,4.8054,4.8579,4.9477,4.9959,5.0297,5.0457,5.0435,5.0672,5.1194,5.1744,5.2092,5.2364,5.2588,5.3106,5.3028,5.2737,5.2052,5.0806,4.8698,4.7764,4.7577,4.8002,4.8604,4.8753,4.9548,4.9663,4.9807,5.0736,5.0287,4.8369,4.8017,4.8047,4.8189,4.8077,4.754,4.7749,4.7998,4.8775,4.917,4.8562,4.8289,4.8464,4.8544,4.8529,4.8606,4.8683,4.8683,4.8759,4.8759,4.8987,4.9243,4.9424,4.9541,4.9949,5.1114,5.1949,5.208,5.2014,5.1686,5.1255,5.1653,5.2465,5.2304,5.1818,5.2337,5.2687,5.2941,5.3065,5.3065,5.3065,5.3065,5.3065,5.3065,5.3065,5.3065,5.3065,5.3065,5.3065,5.3065,5.3065,3.5004,3.5004,3.5004,3.5004,3.5004,3.5004,3.5004,3.5004,3.5004,3.54,3.5756,3.5907,3.6188,3.684,3.7981,3.9358,4.0712,4.1919,4.3055,4.4058,4.4624,4.4859,4.4952,4.4952,4.4952,4.4952,4.4952,4.4952,4.4952,4.521,4.5467,4.5724,4.5955,4.6529,4.721,4.7496,4.8028,4.8934,4.9043,4.9207,4.918,4.9315,4.945,5.0199,5.0805,5.1166,5.1709,5.2392,5.2821,5.2921,5.3375,5.2621,5.1671,4.9062,4.7525,4.7853,4.8787,4.9654,4.9592,4.9827,5.0238,4.9493,4.9817,4.9842,4.7928,4.9334,4.9364,4.7628,4.7598,4.7628,4.776,4.757,4.8333,4.9281,4.8978,4.8524,4.8611,4.8664,4.8528,4.8575,4.8452,4.8452,4.8529,4.8529,4.8759,4.9018,4.8866,4.8987,4.9541,5.0379,5.0801,5.1009,5.0801,5.0489,5.0501,5.112,5.1818,5.1387,5.0811,5.1253,5.1785,5.2498,5.3065,5.3065,5.3065,5.3065,5.3065,5.3065,5.3065,5.3065,5.3065,5.3065,5.3065,5.3065,5.3132,3.4739,3.5004,3.5004,3.5004,3.5004,3.5004,3.5004,3.5004,3.5004,3.5004,3.5136,3.5381,3.5776,3.6188,3.7208,3.8598,3.9965,4.1452,4.2837,4.3939,4.4649,4.4859,4.4952,4.4952,4.4952,4.4952,4.4952,4.4952,4.4952,4.5093,4.5375,4.5492,4.5724,4.6185,4.6757,4.7071,4.7358,4.8028,4.8249,4.8359,4.8469,4.8496,4.8606,4.9369,5.0013,5.0384,5.0909,5.1607,5.1885,5.219,5.295,5.3148,5.3062,4.9715,4.8436,4.8851,5.0276,5.0482,5.0601,5.0987,5.0838,5.0092,4.9553,4.8951,4.9453,5.1218,5.1189,4.9124,4.8047,4.8107,4.8047,4.7739,4.7709,4.8825,4.9622,4.932,4.9099,4.8916,4.8726,4.8542,4.8328,4.8298,4.8452,4.8529,4.8728,4.8728,4.8683,4.8759,4.9318,4.9698,5.018,5.0347,5.0024,5.0328,5.0149,5.0608,5.0705,5.0355,5.0229,5.045,5.0806,5.1949,5.3065,5.3065,5.2908,5.2846,5.2846,5.3003,5.3065,5.3065,5.3065,5.3065,5.3065,5.521,5.4573,3.4056,3.4929,3.5004,3.5023,3.5023,3.5004,3.5004,3.5004,3.5004,3.5004,3.5136,3.5381,3.5513,3.5776,3.6429,3.7811,3.9337,4.0588,4.1942,4.4082,4.4389,4.4859,4.4835,4.4952,4.4952,4.4952,4.4952,4.4952,4.4952,4.4976,4.5234,4.5492,4.5467,4.5699,4.63,4.6617,4.6933,4.7358,4.7582,4.7917,4.8165,4.8386,4.8606,4.8934,4.9369,4.9907,5.0199,5.07,5.1194,5.1504,5.1812,5.2016,5.1566,5.0057,5.1187,5.1928,5.194,5.1911,5.195,5.2257,5.1817,5.1313,5.1012,5.1009,5.1607,5.3073,5.2385,5.059,4.9902,4.9842,4.9393,4.8975,4.9178,4.9922,5.0722,5.0783,5.0589,5.0363,4.9656,4.8331,4.8392,4.9563,4.952,4.8529,4.8683,4.8728,4.8728,4.8759,4.9111,4.9314,4.968,4.9955,5.0535,5.1359,5.0886,5.0107,4.9971,4.9856,4.9854,4.9971,5.0197,5.1385,5.2941,5.2783,5.2561,5.2561,5.325,5.2908,5.3065,5.3266,5.3434,5.3232,5.511,5.7925,5.7791,3.3521,3.4619,3.4597,3.4869,3.5207,3.5099,3.5004,3.5004,3.5004,3.5004,3.5004,3.5156,3.54,3.5722,3.5965,3.6989,3.8768,3.9484,4.0915,4.267,4.3487,4.4105,4.4718,4.4952,4.4835,4.4952,4.4952,4.4952,4.4952,4.4976,4.4976,4.5118,4.5118,4.5467,4.5839,4.616,4.6389,4.6706,4.7159,4.7694,4.8028,4.8275,4.8496,4.8606,4.8825,4.9043,4.926,4.9986,5.0411,5.0517,5.1194,5.1401,5.1065,5.0849,5.1679,5.299,5.3154,5.3008,5.3017,5.3427,5.3059,5.2501,5.2385,5.2834,5.3761,5.421,5.3223,5.2445,5.2056,5.1607,5.1009,5.056,5.0976,5.1393,5.1813,5.2233,5.2138,5.1919,5.0529,4.8734,4.9199,5.0558,5.0285,4.9158,4.8637,4.8929,4.9022,4.9191,4.9438,4.9946,5.0456,5.08,5.1653,5.2434,5.0957,5.0049,4.9905,4.9705,5.0039,5.0441,4.9561,5.0482,5.161,5.1948,5.2145,5.4157,5.5884,5.4841,5.3668,5.397,5.4305,5.5311,5.7423,5.987,5.9769,3.266,3.443,3.4492,3.4924,3.5458,3.5207,3.508,3.5023,3.5004,3.5194,3.5346,3.5365,3.5765,3.6053,3.5975,3.6956,3.7751,3.8596,3.9987,4.1016,4.1972,4.3105,4.3725,4.4223,4.4624,4.4742,4.4859,4.4952,4.4952,4.4952,4.4952,4.4952,4.4976,4.5093,4.5351,4.5467,4.5839,4.6185,4.6731,4.7271,4.7694,4.8165,4.8386,4.8496,4.8715,4.8715,4.8825,4.9234,4.945,4.9692,5.0384,5.0462,5.0595,5.0986,5.1812,5.3375,5.3572,5.3669,5.3699,5.3991,5.4023,5.3444,5.3515,5.4293,5.4651,5.4805,5.433,5.3971,5.3642,5.3432,5.2984,5.2774,5.2894,5.3224,5.3434,5.3674,5.3734,5.3192,5.1854,5.065,5.1599,5.2401,5.0774,4.9802,4.9806,4.9591,4.9591,4.9806,5.0237,5.1436,5.2021,5.238,5.3049,5.3709,5.2428,5.0584,5.0087,5.0008,5.147,5.2202,5.1423,5.0902,5.0771,5.1386,5.2442,5.462,5.749,5.6853,5.5311,5.5411,5.5914,5.7691,5.9333,6.0574,6.0976,3.1706,3.4211,3.4771,3.5199,3.5543,3.5525,3.5395,3.5061,3.5042,3.5479,3.6143,3.6143,3.6485,3.7156,3.6917,3.723,3.7992,3.8072,3.9085,3.9922,4.05,4.1752,4.2503,4.3105,4.3868,4.4365,4.4742,4.4952,4.4952,4.4952,4.4952,4.4952,4.4952,4.4976,4.4976,4.5234,4.5351,4.5814,4.6389,4.6958,4.7582,4.7917,4.8275,4.8496,4.8606,4.8606,4.8606,4.8715,4.8715,4.9043,4.9477,4.9342,4.9531,5.0251,5.1812,5.3049,5.3572,5.3669,5.3699,5.3894,5.395,5.4178,5.4397,5.448,5.4724,5.4949,5.4898,5.4809,5.4719,5.4779,5.4809,5.4659,5.4509,5.4602,5.4787,5.4907,5.5025,5.4427,5.3095,5.3174,5.4019,5.3433,5.1865,5.1243,5.114,5.1109,5.1324,5.1652,5.2615,5.3659,5.3812,5.4144,5.4445,5.4993,5.3688,5.1759,5.1126,5.0801,5.2434,5.4454,5.3405,5.2752,5.2431,5.2376,5.2969,5.5085,5.8561,5.8898,5.7423,5.7322,5.7758,5.9233,6.0406,6.1579,6.1814,3.0344,3.2706,3.3813,3.4693,3.5487,3.5814,3.5787,3.5409,3.5685,3.5953,3.6196,3.6846,3.7282,3.7358,3.7271,3.7401,3.725,3.7299,3.7874,3.8937,3.9147,4.0522,4.1873,4.2865,4.3487,4.4247,4.4742,4.4952,4.4952,4.4952,4.4952,4.4952,4.4952,4.4952,4.4976,4.5118,4.5351,4.5699,4.616,4.6845,4.7358,4.7805,4.8275,4.8496,4.8606,4.8606,4.8606,4.8606,4.8606,4.8715,4.8825,4.8825,4.8825,4.9342,5.0172,5.1914,5.285,5.3699,5.3796,5.3894,5.4147,5.4436,5.4599,5.4789,5.5009,5.5039,5.5227,5.5227,5.5168,5.5108,5.5078,5.5078,5.4988,5.5052,5.5145,5.5423,5.5544,5.5668,5.4756,5.5087,5.5601,5.4499,5.339,5.3075,5.2768,5.3014,5.326,5.4365,5.5291,5.5506,5.5686,5.5717,5.5928,5.5394,5.4121,5.2997,5.2695,5.1963,5.406,5.6791,5.5954,5.4899,5.4146,5.3742,5.5702,5.7873,6.0495,6.1311,6.0238,5.9836,5.9769,6.0339,6.1512,6.1814,6.1814,2.9349,3.1776,3.2901,3.3819,3.4626,3.5532,3.5919,3.5879,3.6371,3.6827,3.7149,3.7605,3.8004,3.8136,3.8061,3.7766,3.7416,3.7186,3.7037,3.8003,3.815,3.9736,4.1162,4.2284,4.3248,4.4152,4.4649,4.4766,4.4952,4.4952,4.4952,4.4952,4.4952,4.4952,4.4976,4.5118,4.5351,4.5583,4.607,4.6617,4.702,4.7496,4.7831,4.8249,4.8386,4.8496,4.8606,4.8606,4.8606,4.8606,4.8606,4.8606,4.8606,4.8606,4.9558,5.109,5.1635,5.2779,5.3375,5.3894,5.4147,5.434,5.4599,5.4884,5.5009,5.5103,5.5227,5.5227,5.5227,5.5227,5.5227,5.5227,5.5227,5.5291,5.5479,5.5665,5.585,5.6095,5.6125,5.6337,5.6368,5.5328,5.4988,5.4826,5.4765,5.4949,5.4862,5.5843,5.6119,5.6364,5.6487,5.6607,5.6482,5.5554,5.535,5.5744,5.5537,5.4933,5.6382,5.7931,5.7986,5.7389,5.6756,5.6577,5.8747,6.0758,6.1212,6.1613,6.178,6.1814,6.1278,6.1479,6.1814,6.1814,6.1814,2.8955,3.1327,3.2095,3.2556,3.2779,3.466,3.571,3.6134,3.7097,3.7871,3.8402,3.8668,3.9124,3.9465,3.8972,3.8554,3.8242,3.7092,3.6958,3.7579,3.8016,3.885,4.0286,4.1733,4.2925,4.3891,4.4413,4.4766,4.4952,4.4952,4.4952,4.4952,4.4952,4.4952,4.4952,4.4952,4.4952,4.4976,4.5351,4.5724,4.616,4.6731,4.7271,4.7694,4.8028,4.8386,4.8496,4.8606,4.8606,4.8606,4.8606,4.8606,4.8606,4.8606,4.9234,5.07,5.0622,5.1222,5.2219,5.3375,5.3894,5.4117,5.4599,5.4789,5.4789,5.5009,5.5227,5.5227,5.5227,5.5227,5.5227,5.5227,5.5227,5.5291,5.5479,5.5665,5.5787,5.5942,5.6003,5.6095,5.6125,5.6125,5.6306,5.6426,5.6334,5.6334,5.6487,5.6518,5.6487,5.6548,5.6518,5.6638,5.6756,5.6135,5.6397,5.7508,5.7931,5.7852,5.7797,5.7497,5.7435,5.8567,5.9435,5.9794,6.0607,6.1165,6.1564,6.1814,6.1814,6.1814,6.1814,6.1814,6.1814,6.1814,6.1814,2.8205,3.0071,3.1532,3.2012,3.23,3.3988,3.5151,3.5877,3.7272,3.8244,3.8744,3.9351,3.9769,3.9845,3.9636,3.9332,3.8687,3.8174,3.8069,3.8147,3.8404,3.9485,4.0663,4.1916,4.2863,4.3915,4.4413,4.4746,4.5078,4.4884,4.5123,4.5147,4.4976,4.4932,4.4932,4.4952,4.4952,4.4976,4.5234,4.5583,4.593,4.6554,4.7148,4.7634,4.8021,4.8406,4.8654,4.879,4.8738,4.8632,4.8764,4.8685,4.8632,4.8606,4.8934,4.9558,5.0199,5.1014,5.1607,5.232,5.3247,5.4117,5.4628,5.4884,5.5009,5.5103,5.5227,5.5227,5.5227,5.5227,5.5227,5.5227,5.5227,5.5227,5.5479,5.5479,5.5665,5.5787,5.585,5.6003,5.6034,5.6125,5.6337,5.6487,5.6426,5.6456,5.6548,5.6548,5.6548,5.6548,5.6548,5.6638,5.6817,5.6906,5.7084,5.726,5.7466,5.7472,5.756,5.7172,5.82,6.0035,6.1165,6.1016,6.1165,6.1636,6.1814,6.1814,6.1814,6.1814,6.1814,6.1742,6.1814,6.1814,6.1814,2.738,2.8796,3.0075,3.1004,3.1852,3.3617,3.5061,3.6183,3.7859,3.8773,3.9256,3.9712,3.9978,3.9978,3.994,3.9655,3.9237,3.8934,3.873,3.8901,3.9037,3.9804,4.1025,4.2246,4.3254,4.4356,4.5324,4.5763,4.5834,4.5784,4.5735,4.6028,4.6295,4.5906,4.566,4.5733,4.5367,4.5196,4.5093,4.5351,4.5657,4.6435,4.748,4.8001,4.8367,4.8818,4.9154,4.9265,4.8975,4.8975,4.9661,4.9291,4.8869,4.8658,4.8606,4.8825,4.9986,5.0805,5.1194,5.1914,5.2821,5.402,5.4599,5.4789,5.4884,5.5103,5.5227,5.5227,5.5227,5.5227,5.5227,5.5227,5.5227,5.5321,5.5321,5.5291,5.5385,5.5479,5.5665,5.6095,5.6216,5.6125,5.6307,5.6548,5.6548,5.6548,5.6548,5.6548,5.6548,5.6548,5.6548,5.6638,5.6638,5.6817,5.6817,5.6906,5.6995,5.7172,5.7435,5.8062,5.9144,6.0866,6.1636,6.1742,6.1814,6.1814,6.1814,6.1814,6.1742,6.1525,6.1525,6.167,6.1742,6.1814,6.1814,2.6323,2.7647,2.8159,2.9442,3.1412,3.3411,3.533,3.6744,3.8537,3.9449,3.9864,3.9997,3.9997,3.9997,3.9959,3.994,3.9902,3.9162,3.9228,3.9319,3.949,4.0036,4.1195,4.2605,4.3984,4.4958,4.5927,4.6908,4.7255,4.661,4.7218,4.8076,4.7441,4.7246,4.6831,4.6294,4.5928,4.5147,4.5269,4.5269,4.5774,4.6839,4.81,4.8715,4.9184,4.9764,5.0452,5.0452,5.0109,4.908,5.0584,5.09,4.9028,4.8632,4.8606,4.8825,4.988,5.0595,5.0805,5.1504,5.2621,5.3572,5.4185,5.4377,5.4694,5.5009,5.5227,5.5227,5.5227,5.5227,5.5227,5.5227,5.5227,5.5227,5.5227,5.5291,5.5291,5.5385,5.5727,5.6186,5.6277,5.6186,5.6277,5.6398,5.6398,5.6548,5.6548,5.6548,5.6548,5.6548,5.6548,5.6548,5.6548,5.6638,5.6638,5.6906,5.726,5.7491,5.8232,5.9225,5.9898,6.0563,6.1418,6.1597,6.1742,6.1742,6.1742,6.1742,6.167,6.1378,6.1305,6.1597,6.1742,6.1814,6.1814,2.569,2.6162,2.6912,2.8672,3.0813,3.3063,3.5,3.6557,3.8287,3.9087,3.9524,3.9827,3.9978,3.9997,3.9997,3.9978,4.011,3.9769,4.0012,4.0123,4.0466,4.0686,4.141,4.2468,4.3661,4.4488,4.6031,4.7066,4.7259,4.7243,4.7634,4.9271,4.832,4.7197,4.6782,4.6733,4.6294,4.5224,4.583,4.6196,4.6537,4.7857,4.8888,4.9741,5.0366,5.096,5.1574,5.1691,5.1085,5.0373,5.1428,5.1164,4.945,4.9133,4.9186,4.8825,4.9989,5.0681,5.0544,5.0727,5.1325,5.2219,5.302,5.3669,5.4311,5.4914,5.5227,5.5227,5.5227,5.5227,5.5227,5.5227,5.5227,5.5227,5.5227,5.5227,5.5197,5.5355,5.5697,5.5789,5.5819,5.5911,5.6186,5.6216,5.6398,5.6548,5.6548,5.6548,5.6548,5.6548,5.6548,5.6548,5.6728,5.6964,5.6964,5.7053,5.7491,5.8094,5.9338,6.0211,6.0289,6.0748,6.1198,6.1452,6.167,6.1597,6.1525,6.167,6.1776,6.1525,6.1452,6.167,6.1742,6.1814,6.1814,2.5154,2.563,2.6299,2.8316,3.1216,3.2762,3.4717,3.7004,3.8016,3.88,3.9391,3.9675,3.9827,3.9997,3.9997,3.9997,3.9997,3.9959,4.0148,4.026,4.0373,4.0609,4.1229,4.2268,4.3146,4.4198,4.555,4.6865,4.7737,4.7963,4.8586,5.0165,4.9369,4.8246,4.7514,4.7807,4.7026,4.6392,4.6685,4.7295,4.7711,4.8771,5.004,5.091,5.1375,5.1984,5.2612,5.2852,5.2298,5.1533,5.1639,5.1401,5.0663,5.0953,5.0425,4.9403,5.0096,5.0583,5.0176,5.0041,5.0727,5.1504,5.232,5.2921,5.3738,5.4569,5.5227,5.5227,5.5227,5.5227,5.5227,5.5227,5.5227,5.5227,5.5227,5.5227,5.5291,5.5418,5.5418,5.5325,5.5355,5.5881,5.6337,5.6368,5.6458,5.6548,5.6548,5.6548,5.6548,5.6548,5.6548,5.6638,5.6964,5.7547,5.772,5.7891,5.865,5.9144,6.0399,6.0476,6.0629,6.0705,6.0932,6.1231,6.1378,6.1452,6.1378,6.1591,6.1943,6.1843,6.167,6.1742,6.1814,6.1982,6.3088,2.4529,2.5425,2.5947,2.8478,3.1651,3.2449,3.4639,3.7519,3.7863,3.8494,3.9239,3.9543,3.9827,3.9978,3.9997,3.9997,3.9997,3.9997,4.0148,4.0148,4.0129,4.0241,4.0692,4.1757,4.2675,4.3732,4.5228,4.6885,4.7822,4.821,4.9419,5.0884,5.0843,5.0296,4.8564,4.8954,4.8686,4.7343,4.7734,4.8271,4.8564,4.9827,5.1064,5.1901,5.2404,5.3028,5.3916,5.4012,5.3485,5.2562,5.2509,5.2614,5.2852,5.4592,5.2852,5.0847,4.9852,5.0501,5.0419,5.0231,5.0528,5.1379,5.1822,5.2392,5.3317,5.4252,5.5103,5.5227,5.5227,5.5227,5.5227,5.5227,5.5227,5.5227,5.5227,5.5227,5.5227,5.5261,5.5291,5.5291,5.5604,5.6064,5.6427,5.6548,5.6548,5.6548,5.6548,5.6548,5.6548,5.6548,5.6548,5.7053,5.7373,5.8733,5.9225,5.9627,6.0055,6.0211,6.0553,6.0629,6.0629,6.0629,6.0857,6.1007,6.1082,6.1157,6.1811,6.2165,6.2144,6.2082,6.1776,6.1742,6.2082,6.3423,6.4898,2.4048,2.4347,2.6041,2.7937,2.959,3.1216,3.3614,3.5937,3.6884,3.7827,3.8916,3.9524,3.9978,3.9997,3.9997,3.9997,3.9997,3.9997,3.9997,3.9997,3.9978,3.9978,4.043,4.133,4.2222,4.3107,4.4502,4.6036,4.6914,4.702,4.8571,5.0362,5.0467,4.9735,4.9564,4.9711,4.8978,4.832,4.8246,4.8734,4.9515,5.086,5.2132,5.3067,5.353,5.4141,5.4969,5.5093,5.4487,5.4039,5.4223,5.4777,5.4935,5.5331,5.4276,5.1744,4.9872,5.0294,5.0679,5.0872,5.0521,5.1072,5.1324,5.1998,5.2892,5.3932,5.4819,5.5103,5.5227,5.5227,5.5227,5.5227,5.5227,5.5227,5.5227,5.5227,5.5227,5.5227,5.5227,5.5542,5.5759,5.6125,5.6458,5.6548,5.6548,5.6548,5.6548,5.6548,5.6548,5.6548,5.6817,5.7317,5.84,5.9819,6.0476,6.0629,6.0629,6.0629,6.0629,6.0629,6.0629,6.0705,6.0781,6.0899,6.1074,6.2111,6.2733,6.3222,6.3289,6.3021,6.2183,6.2719,6.473,6.6239,6.6909,2.4074,2.4532,2.5866,2.7507,2.9327,3.0783,3.2968,3.5452,3.6109,3.7193,3.8439,3.922,3.9675,3.9978,3.9997,3.9997,3.9997,3.9997,3.9997,3.9997,3.9997,3.9997,4.0129,4.0581,4.1349,4.2242,4.296,4.4068,4.5708,4.6049,4.7914,4.9944,5.0641,5.0272,4.9979,5.0223,4.9955,4.9393,4.9564,5.0101,5.0745,5.1161,5.2167,5.298,5.3605,5.4146,5.5064,5.5343,5.5127,5.4785,5.5252,5.5515,5.5542,5.5357,5.4513,5.2509,5.1454,5.1269,5.0979,5.0768,5.0335,5.0387,5.1007,5.1709,5.2593,5.3835,5.4914,5.5133,5.5227,5.5227,5.5227,5.5227,5.5227,5.5227,5.5227,5.5227,5.5227,5.5227,5.5572,5.5911,5.6155,5.6337,5.6548,5.6548,5.6548,5.6548,5.6548,5.6548,5.6548,5.6728,5.6964,5.7806,5.9144,6.0244,6.0553,6.0629,6.0629,6.0629,6.0629,6.0629,6.0705,6.1157,6.1231,6.1546,6.2302,6.3342,6.4194,6.5358,6.4898,6.4462,6.5066,6.6004,6.768,6.8652,6.8988,2.4191,2.4793,2.5745,2.7286,2.9266,3.0351,3.2497,3.4967,3.533,3.6592,3.8458,3.8763,3.9372,3.9827,3.9978,3.9997,3.9997,3.9997,3.9997,3.9997,3.9997,3.9997,3.9997,4.028,4.06,4.092,4.1518,4.296,4.4791,4.62,4.7936,4.943,5.0786,5.098,5.0589,5.0809,5.0833,5.0272,5.0687,5.1077,5.1357,5.1528,5.1952,5.2875,5.3266,5.3785,5.4428,5.5064,5.529,5.5138,5.5416,5.5568,5.5568,5.5568,5.4724,5.3485,5.3247,5.2931,5.2034,5.1164,5.0135,4.9841,5.0445,5.1353,5.219,5.3542,5.4599,5.5009,5.5227,5.5227,5.5227,5.5227,5.5227,5.5227,5.5227,5.5321,5.5385,5.5479,5.5819,5.6277,5.6458,5.6548,5.6548,5.6548,5.6548,5.6548,5.6548,5.6638,5.7141,5.7547,5.7806,5.8899,6.0009,6.0321,6.0629,6.0629,6.0629,6.0629,6.0629,6.0629,6.1007,6.1452,6.2546,6.3468,6.4279,6.5358,6.6497,6.7556,6.7456,6.7244,6.8317,6.949,6.9557,6.9457,7.006,2.397,2.4258,2.6164,2.6996,2.7619,2.9355,3.1556,3.3884,3.4389,3.5971,3.8016,3.9087,3.9239,3.9675,3.9846,3.9997,3.9997,3.9997,3.9997,3.9997,3.9997,3.9997,3.9997,4.0148,4.0299,4.0789,4.107,4.2625,4.4749,4.644,4.7888,5.0206,5.1175,5.1224,5.1308,5.1504,5.1272,5.1053,5.1406,5.1552,5.1552,5.1552,5.1819,5.2456,5.2849,5.3526,5.4017,5.4758,5.5112,5.4986,5.5416,5.5568,5.5568,5.5568,5.5252,5.5146,5.4909,5.4513,5.3643,5.2641,5.1586,5.1586,5.1179,5.1048,5.1885,5.3119,5.4185,5.4819,5.5227,5.5227,5.5227,5.5227,5.5227,5.5197,5.5227,5.5415,5.5787,5.6216,5.6277,5.6548,5.6548,5.6548,5.6548,5.6548,5.6548,5.6548,5.6638,5.6875,5.7945,5.8702,5.9387,6.0321,6.0399,6.0553,6.0629,6.0629,6.0629,6.0629,6.0629,6.0857,6.1157,6.1745,6.2659,6.4345,6.6597,6.8091,6.928,6.9362,6.951,7.0094,7.0295,7.0161,7.0228,7.0328,7.0362,2.4062,2.4441,2.588,2.6559,2.7066,2.8601,3.0549,3.2153,3.3582,3.533,3.7056,3.8458,3.9239,3.9543,3.9827,3.9997,3.9997,3.9997,3.9997,3.9997,3.9997,3.9997,3.9997,4.0148,4.0299,4.0619,4.107,4.1925,4.3922,4.5752,4.7586,4.8743,5.0723,5.1419,5.1552,5.1552,5.1552,5.1552,5.1552,5.1552,5.1552,5.1552,5.1686,5.1952,5.2743,5.3136,5.363,5.4478,5.4885,5.4911,5.5317,5.5568,5.5568,5.5568,5.5568,5.5568,5.5568,5.5146,5.3959,5.272,5.1729,5.0944,5.1202,5.1616,5.2493,5.364,5.4503,5.5009,5.5227,5.5227,5.5227,5.5257,5.5291,5.5385,5.5291,5.5509,5.5942,5.6398,5.6548,5.6548,5.6548,5.6548,5.6548,5.6548,5.6638,5.6638,5.6607,5.746,5.8535,5.9515,6.0366,6.0629,6.0629,6.0629,6.0629,6.0629,6.0629,6.0629,6.0629,6.0857,6.1389,6.2094,6.3034,6.5795,6.8559,7.0216,7.0316,7.0448,7.0395,7.0463,7.0463,7.0496,7.0496,7.0429,7.0463,2.4245,2.4704,2.5623,2.6282,2.6906,2.8192,2.9833,3.1533,3.2981,3.4834,3.6557,3.8152,3.8916,3.922,3.9827,3.9997,3.9997,3.9997,3.9997,3.9997,3.9997,3.9997,3.9997,3.9997,4.0148,4.0449,4.092,4.1518,4.2813,4.518,4.6863,4.7726,5.0134,5.1552,5.1552,5.1552,5.1552,5.1552,5.1552,5.1552,5.1552,5.1552,5.1552,5.1577,5.2241,5.2768,5.3136,5.4274,5.4784,5.481,5.5217,5.5568,5.5568,5.5568,5.5568,5.5568,5.5515,5.4698,5.2984,5.2324,5.1474,5.0443,5.074,5.1653,5.2664,5.3835,5.4599,5.4884,5.4914,5.5152,5.582,5.5975,5.5981,5.5869,5.605,5.6509,5.6277,5.6427,5.6548,5.6548,5.6548,5.6548,5.6548,5.6728,5.6875,5.6697,5.7285,5.8115,5.9112,6.0101,6.0443,6.0629,6.0629,6.0629,6.0629,6.0629,6.0629,6.0629,6.0629,6.0814,6.1603,6.2483,6.5209,6.7823,7.0166,7.0399,7.0448,7.053,7.053,7.053,7.053,7.053,7.053,7.053,7.053,2.498,2.5262,2.5798,2.6268,2.6864,2.7932,2.997,3.2224,3.303,3.4588,3.6845,3.825,3.8561,3.8782,3.9525,3.9959,3.9997,3.9997,3.9997,3.9997,3.9997,3.9997,3.9978,3.9902,3.9976,4.0014,4.0449,4.129,4.2671,4.4993,4.6885,4.8328,5.0294,5.1419,5.1552,5.1552,5.1552,5.1552,5.1552,5.1552,5.1552,5.1552,5.1552,5.1577,5.1843,5.2109,5.2768,5.394,5.4709,5.4581,5.5217,5.5443,5.5568,5.5568,5.5568,5.5568,5.5515,5.4988,5.3722,5.243,5.1517,5.0533,4.977,4.9986,5.1709,5.2921,5.3767,5.4252,5.3962,5.5064,5.6589,5.8129,5.7539,5.6445,5.7812,5.8068,5.7101,5.6548,5.6548,5.6548,5.6548,5.6548,5.6786,5.711,5.7516,5.7633,5.8619,5.9387,5.9944,6.0443,6.052,6.0629,6.0629,6.0629,6.0629,6.0629,6.0629,6.0662,6.0695,6.1331,6.2155,6.4586,6.7322,6.9061,6.9983,7.0448,7.053,7.053,7.053,7.053,7.053,7.053,7.053,7.053,7.053,2.5585,2.6175,2.6477,2.6941,2.7654,2.9138,3.0457,3.1763,3.3038,3.4592,3.5606,3.6545,3.7344,3.8064,3.8699,3.9373,3.9959,3.9997,3.9997,3.9997,3.9997,3.9997,3.9845,3.9408,3.9237,3.9256,3.9681,4.0457,4.1686,4.4514,4.6418,4.7888,5.0046,5.1334,5.1419,5.1552,5.1552,5.1552,5.1552,5.1552,5.1552,5.1552,5.1552,5.1552,5.1552,5.1843,5.253,5.3811,5.4581,5.4709,5.4836,5.5217,5.5568,5.5568,5.5568,5.5568,5.5568,5.4724,5.3116,5.1744,5.0812,5.0279,5.0474,5.1041,5.2016,5.295,5.3473,5.3894,5.4281,5.505,5.6328,5.804,5.8237,5.7264,5.7524,5.7499,5.6732,5.6548,5.6548,5.6548,5.6548,5.6548,5.6638,5.7373,5.8115,5.8949,5.9977,6.0289,6.0629,6.0629,6.0629,6.0629,6.0629,6.0629,6.0629,6.0629,6.0629,6.0761,6.1024,6.201,6.38,6.673,6.8646,6.9749,7.0182,7.053,7.053,7.053,7.053,7.053,7.053,7.053,7.053,7.053,7.053,2.6344,2.7075,2.6912,2.7343,2.834,2.9925,3.0979,3.164,3.3648,3.4845,3.5386,3.6058,3.705,3.7731,3.8419,3.911,3.9713,3.9997,3.9997,3.9997,3.9997,3.9997,3.9807,3.9124,3.863,3.8421,3.8837,3.9261,4.0277,4.3334,4.5447,4.6841,4.9339,5.0747,5.1419,5.1552,5.1552,5.1552,5.1552,5.1552,5.1552,5.1552,5.1552,5.1552,5.1552,5.1843,5.253,5.3552,5.4017,5.3679,5.3675,5.3816,5.3416,5.3458,5.3696,5.4302,5.4645,5.3986,5.2034,5.0847,5.0209,4.9746,5.0305,5.1504,5.232,5.3148,5.3572,5.3796,5.4628,5.5497,5.6484,5.804,5.8777,5.8296,5.7677,5.704,5.6671,5.6548,5.6548,5.6548,5.6548,5.6548,5.6817,5.7547,5.8702,5.9977,6.0553,6.0629,6.0629,6.0629,6.0629,6.0629,6.0629,6.0629,6.0662,6.0662,6.0991,6.132,6.2528,6.386,6.6302,6.8499,6.9483,7.0316,7.0448,7.053,7.053,7.053,7.053,7.053,7.053,7.053,7.053,7.053,7.053,2.6926,2.7647,2.7102,2.7384,2.8383,2.9764,3.1221,3.2716,3.4272,3.5658,3.691,3.7341,3.7825,3.8159,3.8753,3.9185,3.9543,3.9846,3.9997,3.9997,3.9997,3.9997,3.9902,3.9218,3.8459,3.7795,3.7965,3.8739,3.9799,4.1979,4.4179,4.6573,4.8281,4.9951,5.0969,5.1479,5.1175,5.1102,5.1224,5.1332,5.1332,5.1455,5.1455,5.1224,5.1381,5.1647,5.2075,5.2393,5.2001,5.1221,5.1483,5.1012,4.9548,4.9028,5.0531,5.2535,5.3063,5.214,5.0979,5.0267,4.9826,4.915,4.9772,5.0517,5.2072,5.3078,5.3572,5.3699,5.4599,5.6125,5.8099,5.8926,5.8978,5.9186,5.8064,5.7252,5.6732,5.6548,5.6548,5.6548,5.6548,5.6548,5.6638,5.7923,5.9176,6.0321,6.0629,6.0629,6.0629,6.0629,6.0629,6.0629,6.0629,6.0662,6.0827,6.1122,6.3076,6.3893,6.5501,6.7075,6.9217,6.9816,7.0448,7.0448,7.053,7.053,7.053,7.053,7.053,7.053,7.053,7.053,7.053,7.053,7.053,2.6947,2.7728,2.7837,2.8445,2.9442,3.1578,3.2823,3.3588,3.5065,3.6088,3.6646,3.6492,3.6641,3.7336,3.8027,3.8755,3.9524,3.9827,3.9997,3.9997,3.9997,3.9997,3.9902,3.9617,3.8839,3.7738,3.7652,3.7979,3.8384,4.0333,4.2545,4.4853,4.6287,4.7836,4.9289,4.9418,4.9442,4.9442,4.9491,4.9442,4.9564,5.0052,5.0077,4.9637,5.0052,5.0392,5.0311,5.0413,5.0415,5.0473,5.0898,5.0258,4.8785,4.8685,4.9661,5.1322,5.1111,5.0425,5.032,4.9687,4.9222,4.9584,5.0172,5.1325,5.2679,5.3276,5.3572,5.3796,5.4628,5.6274,5.8518,5.9016,5.8507,5.748,5.7066,5.6796,5.6642,5.6548,5.6548,5.6548,5.6548,5.6548,5.7141,5.8316,6.0133,6.0476,6.0629,6.0629,6.0629,6.0629,6.0629,6.0629,6.0662,6.0794,6.0958,6.2779,6.4902,6.6515,6.8017,6.9399,7.0316,7.0448,7.053,7.053,7.053,7.053,7.053,7.053,7.053,7.053,7.053,7.053,7.053,7.053,7.053,2.6781,2.764,2.8159,2.8822,2.9842,3.2254,3.3427,3.3993,3.5424,3.6264,3.6628,3.6182,3.6366,3.7114,3.7504,3.8266,3.9201,3.9675,3.9978,3.9978,3.9997,3.9997,3.9921,3.9712,3.8991,3.8023,3.7785,3.7902,3.8325,3.9455,4.1332,4.3607,4.4846,4.6093,4.7664,4.8096,4.8271,4.8271,4.8271,4.8271,4.832,4.893,4.8954,4.8393,4.8881,4.884,4.8175,4.8171,4.8438,4.9131,4.9724,4.9608,4.8864,4.8606,4.9371,5.0636,4.945,4.9028,4.9582,4.9054,4.8961,4.9585,5.0517,5.1737,5.265,5.3276,5.3572,5.3699,5.4658,5.5796,5.7471,5.792,5.7306,5.6092,5.6095,5.6277,5.6518,5.6548,5.6548,5.6548,5.6548,5.7053,5.7945,5.9112,6.0553,6.0629,6.0673,6.0748,6.0781,6.0857,6.0781,6.0629,6.087,6.0969,6.3257,6.5568,6.7208,6.8583,6.9429,7.0381,7.0448,7.053,7.053,7.053,7.053,7.053,7.053,7.053,7.053,7.053,7.053,7.053,7.053,7.053,7.053,2.6678,2.7412,2.8121,2.8657,2.9284,3.1202,3.2618,3.382,3.509,3.6299,3.7341,3.7394,3.7287,3.7601,3.7872,3.8268,3.8763,3.9239,3.9675,3.9978,3.9997,3.9997,3.994,3.9313,3.8839,3.8687,3.8233,3.8681,3.9557,3.9394,4.0692,4.3193,4.3786,4.463,4.6616,4.7255,4.795,4.7978,4.7905,4.8027,4.8246,4.8198,4.8173,4.8051,4.8076,4.7442,4.6088,4.6104,4.646,4.7124,4.7641,4.8158,4.8548,4.8606,4.8658,4.8843,4.8711,4.8606,4.8685,4.8768,4.8825,4.9342,5.0251,5.1429,5.1914,5.295,5.3699,5.3796,5.4628,5.5257,5.5467,5.5616,5.5779,5.591,5.6125,5.6368,5.6548,5.6548,5.6548,5.6548,5.6638,5.7688,5.9707,6.0553,6.0629,6.0673,6.0715,6.0866,6.1082,6.119,6.1041,6.0781,6.0923,6.1636,6.4862,6.8098,6.9214,7.0031,7.0079,7.053,7.053,7.053,7.053,7.053,7.053,7.053,7.053,7.053,7.053,7.0544,7.0563,7.0563,7.0563,7.0645,7.0563,2.6025,2.6869,2.7391,2.7866,2.8626,3.0447,3.1982,3.3288,3.4801,3.6282,3.7347,3.7501,3.7501,3.7519,3.7863,3.8323,3.8763,3.8916,3.9391,3.9978,3.9997,3.9997,3.994,3.9693,3.9579,3.9446,3.8871,3.8587,3.8661,3.8775,3.9671,4.142,4.1721,4.2796,4.4253,4.4818,4.5449,4.593,4.6026,4.605,4.6148,4.6782,4.6831,4.6172,4.605,4.5897,4.5864,4.5905,4.616,4.687,4.7522,4.7857,4.8054,4.8386,4.8606,4.8606,4.8606,4.8825,4.9369,4.9585,4.9986,5.0986,5.1812,5.2449,5.2879,5.363,5.3923,5.3923,5.4628,5.5227,5.5321,5.5509,5.5787,5.5972,5.6277,5.6458,5.6518,5.6548,5.6638,5.6638,5.6728,5.7891,5.9944,6.0553,6.0629,6.0629,6.0715,6.1016,6.1305,6.1338,6.1338,6.1231,6.1305,6.2111,6.3213,6.7197,6.9577,6.9209,6.9055,7.0094,7.053,7.053,7.053,7.053,7.053,7.053,7.053,7.053,7.0544,7.0525,7.0592,7.076,7.076,7.076,7.0645,2.5737,2.6402,2.7357,2.7982,2.8568,3.0384,3.1892,3.2983,3.4187,3.5592,3.6904,3.7091,3.7252,3.7501,3.7557,3.7572,3.7972,3.8524,3.9053,3.956,3.9845,3.9997,3.9997,3.9997,3.9997,3.9902,3.9427,3.9062,3.9039,3.8978,3.9337,4.0166,4.0503,4.126,4.2392,4.3198,4.382,4.4389,4.4742,4.4952,4.5098,4.566,4.5733,4.4908,4.4952,4.5185,4.579,4.5905,4.616,4.687,4.741,4.7857,4.7857,4.8275,4.8606,4.8606,4.8934,4.9477,5.0199,5.0384,5.0909,5.1914,5.242,5.302,5.402,5.4532,5.4532,5.4407,5.4914,5.5197,5.5385,5.5509,5.5787,5.6034,5.6368,5.6548,5.6638,5.6786,5.7022,5.7285,5.7547,5.8284,6.0055,6.0629,6.0705,6.089,6.0974,6.1198,6.1452,6.1525,6.1597,6.1597,6.167,6.1731,6.1471,6.6062,6.8921,6.8329,6.7993,6.8585,6.9457,6.9423,7.0463,7.053,7.053,7.053,7.053,7.053,7.0511,7.0605,7.0901,7.1036,7.1183,7.1069,7.0874,2.5658,2.6027,2.7719,2.852,2.89,3.0601,3.2068,3.308,3.3294,3.4438,3.6122,3.6325,3.6717,3.7252,3.6628,3.6356,3.6502,3.7898,3.8437,3.8635,3.9503,3.9902,3.9921,3.9959,3.9997,3.9978,3.9883,4.0165,4.0334,3.9733,3.9622,4.0089,4.0071,4.0363,4.0991,4.2595,4.3462,4.3701,4.4531,4.4952,4.4859,4.4859,4.5025,4.4859,4.4952,4.521,4.579,4.593,4.616,4.687,4.7522,4.7857,4.7969,4.8275,4.8606,4.8715,4.9477,5.0305,5.0909,5.109,5.1297,5.1737,5.2521,5.3444,5.4819,5.5039,5.5133,5.5197,5.5227,5.5291,5.5479,5.5572,5.5727,5.6125,5.6427,5.6607,5.6607,5.7198,5.7891,5.8432,5.8816,5.9467,6.0443,6.0629,6.0814,6.1115,6.1305,6.1452,6.167,6.1814,6.1814,6.1814,6.1742,6.1843,6.2085,6.5014,6.6819,6.6694,6.6325,6.6138,6.711,6.8284,6.9624,7.053,7.053,7.053,7.0563,7.0659,7.0673,7.0787,7.1082,7.1195,7.1342,7.1342,7.1354,2.6084,2.6112,2.6681,2.7323,2.8219,3.0024,3.148,3.2661,3.3041,3.4127,3.5395,3.5541,3.5665,3.5826,3.5648,3.5724,3.5995,3.6649,3.7157,3.7534,3.8522,3.9067,3.9124,3.9655,3.9997,3.9997,3.9959,4.011,4.0184,3.9585,3.9107,3.893,3.9136,3.9717,4.072,4.182,4.2791,4.3581,4.4507,4.4952,4.4952,4.4952,4.4952,4.4952,4.4952,4.521,4.579,4.6185,4.6503,4.7159,4.772,4.8191,4.8386,4.8496,4.8606,4.8606,4.945,5.0305,5.1118,5.1709,5.2291,5.295,5.3601,5.4117,5.4658,5.5039,5.5227,5.5227,5.5227,5.5261,5.5572,5.5911,5.6155,5.6216,5.7079,5.7285,5.6756,5.7743,5.8619,5.8682,5.9144,5.966,6.0399,6.0629,6.0781,6.119,6.1338,6.1525,6.1742,6.1814,6.1814,6.1814,6.1814,6.1847,6.2077,6.4194,6.5409,6.5425,6.4214,6.4174,6.6518,6.8744,7.0429,7.0429,7.0496,7.0611,7.1002,7.132,7.1487,7.132,7.1195,7.1309,7.15,7.1589,7.183,2.5614,2.5827,2.5842,2.6809,2.8552,2.9822,3.13,3.2594,3.2904,3.371,3.4596,3.3705,3.3491,3.3812,3.4133,3.4398,3.4854,3.5879,3.6471,3.653,3.7709,3.8212,3.825,3.8763,3.91,3.8972,3.9294,3.9294,3.9119,3.9094,3.8829,3.8393,3.8634,3.952,4.0574,4.1575,4.2549,4.3605,4.4507,4.4952,4.4952,4.4952,4.4952,4.4952,4.4952,4.521,4.5814,4.63,4.6757,4.722,4.7831,4.8275,4.8606,4.8606,4.8606,4.8715,4.9772,5.0494,5.0602,5.1592,5.2466,5.3104,5.4082,5.4628,5.4753,5.5009,5.5227,5.5227,5.5227,5.503,5.4723,5.5784,5.654,5.6656,5.7684,5.8587,5.8638,5.921,5.9483,5.9548,5.9819,6.0289,6.0705,6.0857,6.0899,6.1231,6.1452,6.1597,6.1742,6.1814,6.1814,6.1885,6.2098,6.2169,6.2199,6.3603,6.3939,6.3585,6.2779,6.2579,6.4889,6.6708,6.8362,7.0328,7.0659,7.1036,7.1433,7.1744,7.1864,7.1744,7.1511,7.1623,7.1701,7.1821,7.2503,2.4675,2.5159,2.5202,2.675,2.9081,2.9891,3.1054,3.2448,3.2653,3.3045,3.3384,3.1441,3.1013,3.1655,3.2368,3.2769,3.326,3.5072,3.5645,3.5596,3.6744,3.732,3.7377,3.7491,3.7491,3.7643,3.825,3.825,3.7842,3.8136,3.8391,3.8278,3.8593,3.9286,4.0471,4.143,4.2405,4.3318,4.4389,4.4952,4.4952,4.4952,4.4952,4.4952,4.4952,4.521,4.5814,4.6185,4.6706,4.7092,4.7728,4.817,4.8206,4.85,4.8606,4.8606,4.9794,5.0345,4.98,5.1082,5.2004,5.2342,5.3503,5.4378,5.4655,5.4509,5.4479,5.4692,5.4602,5.3943,5.3265,5.4986,5.6166,5.6032,5.7524,5.9488,6.0238,6.0437,6.0115,6.0607,6.0527,6.0958,6.109,6.1082,6.1124,6.1418,6.167,6.1814,6.1814,6.1885,6.1957,6.2028,6.2447,6.2755,6.2378,6.2098,6.2368,6.2581,6.2721,6.2993,6.3231,6.3674,6.4694,6.9496,7.0879,7.0958,7.1438,7.1522,7.142,7.1514,7.1821,7.1898,7.2016,7.2091,7.2866,2.4419,2.4547,2.4547,2.5414,2.697,2.8664,2.9981,3.1013,3.1031,3.112,3.1209,3.0764,3.0603,3.0782,3.0942,3.1158,3.1321,3.1938,3.2744,3.3614,3.4661,3.5761,3.6523,3.7206,3.7472,3.751,3.7681,3.7842,3.7896,3.7416,3.7249,3.7599,3.7723,3.8187,3.9106,4.1038,4.2041,4.2405,4.3986,4.4952,4.4952,4.4952,4.4952,4.4952,4.4952,4.521,4.5814,4.6185,4.6351,4.6446,4.7474,4.7381,4.6075,4.763,4.8606,4.8447,4.7261,4.7174,4.8737,4.999,5.0622,5.0713,5.134,5.1968,5.2026,5.0291,4.9957,5.1984,5.1174,5.0926,5.239,5.3916,5.4398,5.372,5.4928,5.6239,5.6634,5.7249,5.8361,6.0519,5.9903,5.9747,6.1091,6.1272,6.1272,6.1636,6.1814,6.1814,6.1885,6.2202,6.2342,6.2378,6.2653,6.2755,6.2378,6.2239,6.2378,6.2482,6.2823,6.2992,6.2992,6.2992,6.5172,6.9388,6.9694,6.9435,7.1113,7.0055,6.9611,7.1488,7.1864,7.1982,7.2184,7.2515,7.3392,2.3651,2.3893,2.4309,2.4951,2.5734,2.8073,2.9617,3.0443,2.9766,2.9445,2.9445,2.9445,2.9659,2.9962,2.9962,3.0158,3.0514,3.0889,3.1519,3.2319,3.3019,3.3854,3.4418,3.5004,3.5346,3.5517,3.5861,3.5995,3.5934,3.5818,3.6004,3.6397,3.6588,3.7548,3.9337,4.1038,4.2284,4.2647,4.317,4.3268,4.278,4.278,4.278,4.2756,4.3268,4.3738,4.4386,4.4769,4.5067,4.5312,4.5732,4.5211,4.3654,4.6347,4.7535,4.643,4.5745,4.588,4.6855,4.784,4.8717,4.951,5.057,5.0683,4.9543,4.8077,4.8111,5.0092,4.9294,4.9453,5.1407,5.3499,5.4358,5.3556,5.4883,5.5167,5.4228,5.5478,5.8083,6.0685,5.9423,5.9028,6.1512,6.1564,6.1525,6.1742,6.1814,6.1852,6.1994,6.2378,6.2755,6.2653,6.2823,6.2857,6.2585,6.2585,6.2653,6.2721,6.289,6.2992,6.2992,6.2992,6.4322,6.6984,6.7871,6.7598,6.7291,6.6404,6.7701,7.0362,7.1864,7.1304,7.0778,7.1342,7.1828,2.3275,2.3629,2.4518,2.4906,2.5061,2.7502,2.9021,2.9822,2.8667,2.8215,2.8215,2.8215,2.8572,2.9195,2.9195,2.9552,3.0158,3.0583,3.0866,3.1309,3.1715,3.2036,3.2395,3.2395,3.264,3.2924,3.3596,3.3807,3.353,3.4114,3.4696,3.5072,3.5426,3.6909,3.9283,4.1038,4.2249,4.3109,4.2261,4.1316,4.0542,4.0518,4.0371,4.0126,4.1169,4.1957,4.2169,4.2786,4.3288,4.3553,4.3364,4.246,4.0931,4.4652,4.6168,4.4338,4.5186,4.5612,4.5157,4.5809,4.7006,4.8495,4.9966,4.9603,4.697,4.6701,4.7247,4.8452,4.8668,4.915,5.0553,5.2859,5.4092,5.3881,5.5148,5.5085,5.2442,5.4557,5.7689,6.1173,5.8898,5.7724,5.9769,6.1144,6.1814,6.1814,6.1885,6.2028,6.2241,6.2347,6.2514,6.2889,6.2992,6.2992,6.2924,6.2957,6.2992,6.2992,6.2957,6.2992,6.2992,6.2992,6.3196,6.3196,6.5141,6.562,6.4081,6.3091,6.5415,6.9646,7.0915,7.0556,6.8852,6.8956,6.9233,2.4891,2.5002,2.5137,2.5257,2.5257,2.6596,2.7257,2.7494,0.0,0.0,0.0,2.8215,2.8286,2.8393,2.8411,2.8482,2.8607,2.8625,2.9302,3.0481,3.0619,3.1249,3.2395,3.2395,3.2537,3.2537,3.2669,3.302,3.3393,3.353,3.3975,3.4442,3.4765,3.5429,3.6356,3.9335,4.0908,4.0893,4.1488,4.1706,4.1511,4.1487,4.0738,3.9178,4.086,4.1219,4.0202,4.2037,4.2068,4.0126,4.1239,4.0128,3.6504,4.2407,4.5903,4.5556,4.5725,4.578,4.5696,4.6061,4.6511,4.7025,4.7592,4.6851,4.4248,4.4367,4.5647,4.8376,4.8606,4.8956,4.9845,5.0786,5.116,5.1078,5.1729,5.2207,5.2048,5.2803,5.5553,6.0068,5.7054,5.407,5.4908,5.8864,6.1814,6.1818,6.1725,6.2309,6.2483,6.0743,6.0057,6.2207,6.2582,6.2889,6.2992,6.2992,6.2992,6.2992,6.2992,6.2992,6.2992,6.2992,6.2992,6.2992,6.3299,6.3806,6.3814,6.3479,6.4524,6.7602,6.8432,6.8577,6.8534,6.7806,6.6631,2.4606,0.0,2.5674,2.6028,0.0,2.7116,2.7031,2.6336,2.6781,2.7235,2.7591,2.7591,2.7919,2.841,2.8197,2.8179,2.841,2.8179,2.876,2.9689,2.9689,3.0361,3.1482,3.1501,3.1501,3.1618,3.1618,3.1854,3.2088,3.2205,3.2655,3.3543,3.3641,3.4209,3.5278,3.7477,3.8865,3.9417,3.9837,3.9876,3.9363,3.9363,3.8851,3.7949,3.9519,0.0,0.0,0.0,0.0,0.0,0.0,0.0,0.0,0.0,0.0,4.5777,4.1869,3.871,3.7021,3.7372,3.8848,4.16,4.2129,4.1435,3.9296,4.2288,4.5424,4.8329,5.003,5.0875,5.0811,5.0173,4.9787,5.0114,5.0377,5.1031,5.1979,5.2465,5.3918,5.6452,5.4808,5.3065,5.3132,5.816,6.0613,5.8324,5.9336,6.0585,6.0439,5.8078,5.7293,6.0193,6.0739,6.1251,6.2582,6.2992,6.2992,6.2992,6.2992,6.2992,6.2992,6.2992,6.3024,6.3189,6.3154,6.3285,6.3573,6.3509,6.3828,6.5239,6.5784,6.6012,6.6205,6.5873,6.5099,2.4247,2.4466,2.5996,2.6589,2.6687,2.7524,2.715,2.595,2.5844,2.6183,2.6771,2.6771,2.7221,2.802,2.7865,2.7848,2.817,2.7979,2.8297,2.9106,2.9088,2.9653,3.0577,3.0596,3.0709,3.0934,3.0934,3.0934,3.0934,3.0934,3.1493,3.2489,3.2624,3.3311,3.4578,0.0,0.0,0.0,3.8445,3.8094,3.7313,3.7265,3.7069,3.6728,3.8194,0.0,3.9119,3.9859,4.0295,4.0466,3.7674,0.0,0.0,0.0,0.0,0.0,0.0,0.0,0.0,0.0,0.0,0.0,3.5152,3.4884,3.4585,4.0124,4.4699,4.6896,4.9263,5.0755,5.106,4.9516,4.8788,4.9471,4.9537,5.0123,5.1597,5.2054,5.2478,5.2998,5.3093,5.3154,5.345,5.7251,5.856,5.5059,5.6617,5.8248,5.7743,5.5553,5.5177,5.7805,5.801,5.8556,6.0876,6.2168,6.302,6.3024,6.299,6.2746,6.2304,6.2444,6.3057,6.3479,6.3445,6.3381,6.3346,6.341,6.3607,6.3921,6.4018,6.3879,6.3619,6.4034,6.4373,2.561,2.561,2.5807,2.5915,2.6022,2.6362,2.6361,2.6162,2.595,2.588,2.5987,2.5987,2.6041,2.6255,2.613,2.6255,2.6576,2.6682,2.7585,2.8783,2.902,2.9751,3.0822,3.0822,3.0841,3.0934,3.0934,3.1027,3.1231,3.1211,3.1514,3.2009,3.2414,3.2726,3.3077,3.5526,3.7019,3.7118,3.8044,3.8436,3.8314,3.829,3.7533,3.5962,3.7994,3.8529,3.7253,3.9448,4.0004,3.8469,3.9918,4.1359,4.2756,4.4728,4.1986,0.0,3.2321,0.0,0.0,0.0,0.0,0.0,0.0,0.0,0.0,3.7598,4.1096,4.1434,4.1825,4.3721,4.7845,4.7274,4.7069,4.8071,4.8145,4.8329,4.9062,5.0106,5.1376,5.2897,5.3242,5.3473,5.3673,5.4276,5.4821,5.4164,5.5809,5.6524,5.487,5.4154,5.487,5.8044,5.6201,5.4973,5.5851,5.9645,6.283,6.2917,6.2658,6.217,5.9775,6.124,6.3054,6.3567,6.3469,6.3312,6.3346,6.3532,6.379,6.3887,6.4045,6.367,6.2496,6.2941,6.3941,2.5171,2.526,2.5827,2.5657,2.5045,2.5145,2.5145,2.5145,2.5027,2.5027,2.4963,2.5482,2.604,2.6738,2.6547,2.6775,2.7089,2.7089,2.7486,2.8249,2.8355,2.8884,2.9701,2.9701,2.9701,2.9701,2.9701,2.9681,2.9614,3.0045,3.0478,3.0762,3.2133,3.1914,3.0117,3.4211,3.633,3.6271,3.775,3.8485,3.8485,3.8485,3.8144,3.7505,3.8734,3.9219,3.8826,4.022,4.06,3.965,4.0838,4.1589,4.1701,4.1617,3.6819,0.0,0.0,0.0,0.0,0.0,0.0,0.0,0.0,0.0,0.0,0.0,3.585,2.296,3.1147,3.9387,4.4758,4.2536,4.1408,4.3101,4.1889,4.229,4.5737,4.6783,4.8696,5.2562,5.1794,5.1701,5.3585,5.3847,5.3847,5.3847,5.4631,5.4963,5.4314,5.3995,5.429,5.5655,5.4734,5.3847,5.3847,5.7723,6.0662,6.0579,5.9466,5.8038,5.6728,5.7565,5.9105,6.0881,6.2343,6.2963,6.1425,6.1235,6.2014,6.3419,6.468,6.3861,6.0536,6.132,6.2358,2.4493,2.4667,2.5068,2.4842,2.4153,2.4077,2.417,2.4336,2.4355,2.4355,2.4392,2.4885,2.5476,2.5772,2.5073,2.5322,2.6379,2.6184,2.6704,2.7676,2.7797,2.822,2.8826,2.8826,2.8826,2.8846,2.901,2.8908,2.8475,2.9398,2.9454,2.8934,3.1001,3.0609,2.8116,3.2252,3.4908,3.5671,3.7046,3.7753,3.7753,3.7851,3.7973,3.8193,3.8629,3.9205,3.9654,4.0243,4.0495,4.0444,4.0687,4.047,3.964,3.8739,0.0,0.0,0.0,0.0,0.0,0.0,0.0,0.0,0.0,2.2373,1.456,0.0,2.742,0.0,2.3599,3.6975,4.2493,3.9106,0.0,0.0,3.5985,3.5332,3.7621,4.1186,4.5413,5.049,4.93,4.8975,5.1403,5.2959,5.3847,5.3812,5.3289,5.2956,5.3224,5.3504,5.3847,5.3915,5.3881,5.3904,5.4097,5.628,5.7934,5.7899,5.6243,5.4727,5.4565,5.4673,5.5697,5.8475,6.0896,6.1088,5.8731,5.8233,5.9204,6.13,6.4037,6.4136,5.8478,5.9356,6.0661,2.4329,2.42,2.304,2.2939,2.379,2.3481,2.3837,2.464,2.445,2.4355,2.4355,2.4333,2.3118,2.1029,1.9105,0.0,2.2269,2.2431,2.4313,2.7396,2.771,2.8248,2.9132,2.9152,2.9152,2.9152,3.0021,2.9941,2.9132,3.0263,2.9139,2.611,2.8107,2.8903,2.8575,3.0097,3.2421,3.5342,3.5581,3.5654,3.563,3.5882,3.6041,3.6249,3.6653,3.7154,3.7448,3.8339,3.8975,3.9207,3.8774,3.8512,3.8423,0.0,0.0,0.0,0.0,0.0,0.0,0.0,0.0,0.0,0.0,0.0,0.0,0.0,0.0,0.0,2.3239,0.0,4.2026,3.9224,0.0,0.0,0.0,2.8291,2.0771,3.2069,4.1709,4.5102,0.0,0.0,4.5574,5.04,5.3847,5.3847,5.1797,5.0151,4.9805,5.2106,5.3847,5.3904,5.3847,5.3961,5.4344,5.493,5.5385,5.5385,5.4989,5.4608,5.4608,5.4677,5.5924,5.8558,5.9389,5.8696,5.5716,5.5231,5.5231,5.5771,6.011,6.2224,5.6747,5.7422,5.8554,2.2224,2.0388,2.0114,2.09,2.2277,2.1646,2.2639,2.4769,2.3959,2.2893,2.188,2.188,2.0274,1.75,1.6853,0.0,0.0,0.0,2.1406,2.4691,2.4797,2.583,2.7462,2.7543,2.7522,2.7522,2.7906,2.8097,2.8192,2.9286,2.5712,1.7886,0.0,0.0,2.0689,2.5928,2.9605,3.1505,3.4043,3.5386,3.5386,3.5636,3.6001,3.6387,3.6785,3.7166,3.7606,3.8128,3.742,3.519,3.6455,3.3333,0.0,0.0,0.0,0.0,0.0,0.0,0.0,0.0,0.0,0.0,0.0,1.3648,0.9026,0.0,0.0,0.0,1.6711,2.7358,3.4797,3.2214,0.0,0.0,0.0,0.0,0.0,0.0,0.0,4.3836,4.012,3.6213,3.4785,4.3679,5.0644,5.1351,4.8831,4.7597,4.9379,0.0,5.4331,5.422,5.4365,5.4476,5.4585,5.4727,5.4781,5.4781,5.3291,5.206,5.206,5.3603,5.5162,5.6291,5.6548,5.6222,5.5023,5.3239,5.2495,5.4504,5.6836,5.7691,5.5389,5.5716,5.6271,1.955,0.0,0.0,0.0,0.0,1.874,1.9868,2.2217,2.133,2.0238,1.8946,1.8946,0.0,0.0,0.0,0.0,0.0,0.0,1.9674,2.2801,2.358,2.4989,2.6712,2.6569,2.6456,2.6456,2.6896,2.6743,2.5898,2.5712,2.1071,1.2303,0.0,0.0,0.0,0.0,2.6385,2.8627,3.2408,3.4458,3.4548,3.4879,3.5233,3.5783,3.6105,3.6449,3.6875,3.6345,3.4658,3.1648,3.0821,0.0,0.0,0.0,0.0,0.0,0.0,0.0,0.0,0.0,0.0,0.0,0.0,0.0,0.0,0.0,0.0,0.0,0.0,0.0,2.9867,2.7461,2.4882,0.0,0.0,0.0,0.0,0.0,0.0,0.0,0.0,0.0,3.2447,3.9579,4.5562,0.0,0.0,4.5931,4.8206,5.0612,5.2512,5.3495,5.4293,0.0,5.3827,5.435,5.4781,5.4781,5.2996,5.0915,4.9181,5.2113,5.4781,5.4816,5.4781,5.421,5.258,4.95,4.9154,5.3256,5.1889,5.0282,5.2388,5.3308,5.3447,0.0,0.0,0.0,0.0,0.0,0.0,0.0,0.0,1.6045,1.5986,0.0,1.579,0.0,0.0,0.0,0.0,0.0,1.622,0.0,0.0,2.4951,2.6723,2.736,2.6723,2.6416,2.6548,2.7927,2.6213,2.1606,1.8646,0.0,0.0,0.0,0.0,0.0,0.0,2.2626,2.733,3.0578,3.2346,3.2562,3.2953,3.3232,3.3584,3.3963,3.4284,3.4392,3.2145,3.026,2.9021,2.0822,0.0,0.0,0.0,0.0,0.0,0.0,0.0,0.0,0.0,0.0,0.0,0.0,0.0,0.0,0.0,0.0,0.0,0.0,0.0,0.0,2.7137,0.0,0.0,0.0,0.0,0.0,0.0,0.0,0.0,0.0,0.0,4.221,3.9523,3.8504,4.436,0.0,0.0,0.0,0.0,4.7366,5.1247,5.3499,5.4001,5.1615,5.319,5.473,5.4677,0.0,0.0,4.6822,5.0707,5.4314,5.48,5.4642,5.291,4.7031,4.2755,4.3318,5.2075,4.5328,4.0602,4.6647,4.8755,4.9457,0.0,0.0,0.0,0.0,0.0,0.0,0.0,0.0,0.0,1.2919,0.0,1.1427,0.0,0.0,0.0,0.0,0.0,0.0,0.0,0.0,2.0149,2.1916,2.2577,2.4151,2.3595,0.0,2.157,1.9485,0.0,0.0,0.0,0.0,0.0,0.0,0.0,0.0,2.0707,2.4359,2.9382,3.2199,3.2498,3.2803,3.3213,3.3432,3.3941,3.3007,3.0303,2.8945,2.751,0.0,0.0,0.0,0.0,0.0,0.0,0.0,0.0,0.0,0.0,0.0,0.0,0.0,0.0,0.0,0.0,0.0,0.0,0.0,0.0,0.0,0.0,0.0,2.0612,0.0,0.0,0.0,0.0,0.0,0.0,0.0,0.0,0.0,2.7024,3.3445,3.9615,4.4753,4.5499,4.5544,4.5623,0.0,0.0,0.0,0.0,0.0,0.0,0.0,4.9828,4.901,4.8856,4.6948,4.1214,3.8852,4.0869,5.011,0.0,0.0,3.8863,3.5966,3.6751,4.2103,3.6986,3.3471,3.9669,3.8464,3.6642,0.0,0.0,0.0,0.0,0.0,0.0,0.0,0.0,0.0,0.9334,0.7725,0.0,0.0,0.0,0.0,0.0,0.0,0.0,0.0,0.0,0.0,0.0,1.9201,2.0796,0.0,0.0,0.0,0.0,0.0,0.0,0.0,0.0,0.0,0.0,0.0,0.0,1.9646,2.2965,2.902,3.239,3.2803,3.3131,3.3457,3.3754,3.426,3.2497,2.8118,0.0,0.0,0.0,0.0,0.0,0.0,0.0,0.0,0.0,0.0,0.0,0.0,0.0,0.0,0.0,0.0,0.0,0.0,0.0,0.0,0.0,0.0,0.0,0.0,0.0,2.4304,0.0,0.0,0.0,0.0,0.0,0.0,0.0,0.0,0.0,0.0,0.0,3.7597,4.4698,4.4533,4.4152,4.5505,4.5668,4.666,0.0,0.0,0.0,0.0,0.0,0.0,0.0,0.0,0.0,0.0,0.0,0.0,0.0,0.0,4.4287,3.0588,2.8039,2.9309,3.3403,0.0,0.0,0.0,0.0,0.0,0.0,0.0,0.0,0.0,0.0,0.0,0.0,0.0,0.0,0.0,0.0,0.0,0.0,0.4693,0.0,0.0,0.0,0.0,0.0,0.0,0.0,0.0,0.0,0.0,0.0,0.0,0.0,0.0,0.0,0.0,0.0,0.0,0.0,0.0,0.0,0.0,1.9384,2.3162,2.9318,3.2803,3.3432,3.3725,3.3992,3.4365,3.4681,3.2644,2.8065,0.0,0.0,0.0,0.0,0.0,0.0,0.0,0.0,0.0,0.0,0.0,0.0,0.0,0.0,0.0,0.0,0.0,0.0,0.0,0.0,0.0,0.0,0.0,0.0,0.0,0.0,1.8017,1.9936,2.2125,0.0,0.0,0.0,0.0,0.0,0.0,0.0,0.0,0.0,0.0,4.2347,4.1409,4.5123,4.5668,4.5845,4.6313,4.6045,4.5923,4.6441,4.6076,4.4936,0.0,0.0,0.0,0.0,0.0,0.0,0.0,0.0,0.0,0.0,0.0,0.0,0.0,0.0,0.0,0.0,0.0,0.0,0.0,0.0,0.0,0.0,0.0,0.0,0.0,0.0,0.0,0.0,0.0,0.0,0.0,0.0,0.0,0.0,0.0,0.0,0.0,0.0,0.0,0.0,0.0,0.0,0.0,0.0,0.0,0.0,0.0,0.0,0.0,0.0,0.0,0.0,0.0,0.0,1.9764,2.353,2.9907,3.3295,3.3725,3.386,3.41,3.4365,3.4681,3.2618,0.0,0.0,0.0,0.0,0.0,0.0,0.0,0.0,0.0,0.0,0.0,0.0,0.0,0.0,0.0,0.0,0.0,0.0,0.0,0.0,0.0,0.0,0.0,0.0,0.0,0.0,0.0,0.0,2.2715,2.2456,2.2102,0.0,0.0,0.0,0.0,0.0,0.0,0.0,0.0,0.0,0.0,4.2059,4.5227,4.5668,4.5757,4.5854,4.5766,4.5766,4.6026,4.6076,4.585,4.5097,0.0,0.0,0.0,0.0,0.0,0.0,0.0,0.0,0.0,0.0,0.0,0.0,0.0,0.0,0.0,0.0,0.0,0.0,0.0,0.0,0.0,0.0,0.0,0.0,0.0,0.0,0.0,0.0,0.0,0.0,0.0,0.0,0.0,0.0,0.0,0.0,0.0,0.0,0.0,0.0,0.0,0.0,0.0,0.0,0.0,0.0,0.0,0.0,0.0,0.0,0.0,0.0,0.0,1.987,2.3812,3.0173,3.3619,3.4072,3.4126,3.426,3.455,3.489,3.227,0.0,0.0,0.0,0.0,0.0,0.0,0.0,0.0,0.0,0.0,0.0,0.0,0.0,0.0,0.0,0.0,0.0,0.0,0.0,0.0,0.0,0.0,0.0,0.0,0.0,0.0,0.0,0.0,2.2088,2.3323,2.2308,0.0,0.0,0.0,0.0,0.0,0.0,0.0,0.0,0.0,0.0,3.9138,4.0272,4.3458,0.0,0.0,4.5862,4.5757,4.5854,4.6083,4.4674,3.9953,3.3862,0.0,0.0,0.0,0.0,0.0,0.0,0.0,0.0,0.0,0.0,0.0,0.0,0.0,0.0,0.0,0.0,0.0,0.0,0.0,0.0,0.0,0.0,0.0,0.0,0.0,0.0,0.0,0.0,0.0,0.0,0.0,0.0,0.0,0.0,0.0,0.0,0.0,0.0,0.0,0.0,0.0,0.0,0.0,0.0,0.0,0.0,0.0,0.0,0.0,0.0,0.0,0.0,0.0,2.4007,3.022,3.378,3.4444,3.447,3.4602,3.4812,3.5329,3.175,0.0,0.0,0.0,0.0,0.0,0.0,0.0,0.0,0.0,0.0,0.0,0.0,0.0,0.0,0.0,0.0,0.0,0.0,0.0,0.0,0.0,0.0,0.0,0.0,0.0,0.0,0.0,0.0,0.0,0.0,0.0,0.0,0.0,0.0,0.0,0.0,0.0,0.0,0.0,0.0,0.0,3.4467,3.3146,4.0272,4.5766,0.0,0.0,4.5618,4.5514,4.5872,4.228,3.0717,0.0,0.0,0.0,0.0,0.0,0.0,0.0,0.0,0.0,0.0,0.0,0.0,0.0,0.0,0.0,0.0,0.0,0.0,0.0,0.0,0.0,0.0,0.0,0.0,0.0,0.0,0.0,0.0,0.0,0.0,0.0,0.0,0.0,0.0,0.0,0.0,0.0,0.0,0.0,0.0,0.0,0.0,0.0,0.0,0.0,0.0,0.0,0.0,0.0,0.0,0.0,0.0,0.0,0.0,2.4203,3.0774,3.4365,3.4681,3.4681,3.489,3.5379,3.5532,0.0,0.0,0.0,0.0,0.0,0.0,0.0,0.0,0.0,0.0,0.0,0.0,0.0,0.0,0.0,0.0,0.0,0.0,0.0,0.0,0.0,0.0,0.0,0.0,0.0,0.0,0.0,0.757,0.0,0.0,0.0,0.0,0.0,0.0,0.0,0.0,0.0,0.0,0.0,0.0,0.0,0.0,3.7708,4.173,4.4221,4.4175,0.0,0.0,4.4681,4.1937,4.3917,4.337,0.0,0.0,0.0,0.0,0.0,0.0,0.0,0.0,0.0,0.0,0.0,0.0,0.0,0.0,0.0,0.0,0.0,0.0,0.0,0.0,0.0,0.0,0.0,0.0,0.0,0.0,0.0,0.0,0.0,0.0,0.0,0.0,0.0,0.0,0.0,0.0,0.0,0.0,0.0,0.0,0.0,0.0,0.0,0.0,0.0,0.0,0.0,0.0,0.0,0.0,0.0,0.0,0.0,0.0,1.8955,2.3523,2.9259,3.3004,3.4707,3.4838,3.489,3.5252,3.5761,3.2414,0.0,0.0,0.0,0.0,0.0,0.0,0.0,0.0,0.0,0.0,0.0,0.0,0.0,0.0,0.0,0.0,0.0,0.0,0.0,0.0,0.0,0.0,0.0,0.0,0.0,0.0,0.0,0.0,0.0,0.0,0.0,0.0,0.0,0.0,0.0,0.0,0.0,0.0,0.0,0.0,0.0,0.0,4.3007,4.2639,0.0,0.0,0.0,3.4853,3.6474,0.0,0.0,0.0,0.0,0.0,0.0,0.0,0.0,0.0,0.0,0.0,0.0,0.0,0.0,0.0,0.0,0.0,0.0,0.0,0.0,0.0,0.0,0.0,0.0,0.0,0.0,0.0,0.0,0.0,0.0,0.0,0.0,0.0,0.0,0.0,0.0,0.0,0.0,0.0,0.0,0.0,0.0,0.0,0.0,0.0,0.0,0.0,0.0,0.0,0.0,0.0,0.0,0.0,0.0,0.0,0.0,0.0,2.2288,2.7137,3.1223,3.4364,3.4707,3.4759,3.4782,3.5797,3.282,0.0,0.0,0.0,0.0,0.0,0.0,0.0,0.0,0.0,0.0,0.0,0.0,0.0,0.0,0.0,0.0,0.0,0.0,0.0,0.0,0.0,0.0,0.0,0.0,0.0,0.0,0.0,0.0,0.0,0.0,0.0,0.0,0.0,0.0,0.0,0.0,0.0,0.0,0.0,0.0,0.0,3.7324,3.982,3.8023,3.5174,0.0,0.0,2.233,3.1103,3.5659,0.0,0.0,0.0,0.0,0.0,0.0,0.0,0.0,0.0,0.0,0.0,0.0,0.0,0.0,0.0,0.0,0.0,0.0,0.0,0.0,0.0,0.0,0.0,0.0,0.0,0.0,0.0,0.0,0.0,0.0,0.0,0.0,0.0,0.0,0.0,0.0,0.0,0.0,0.0,0.0,0.0,0.0,0.0,0.0,0.0,0.0,0.0,0.0,0.0,0.0,0.0,0.0,0.0,0.0,0.0,0.0,2.1239,2.8289,3.2402,3.3388,3.4285,3.4747,3.462,3.4882,3.1918,0.0,0.0,0.0,0.0,0.0,0.0,0.0,0.0,0.0,0.0,0.0,0.0,0.0,0.0,0.0,0.0,0.0,0.0,0.0,0.0,0.0,0.0,0.0,0.0,0.0,0.0,0.0,0.0,0.0,0.0,0.0,0.0,0.0,0.0,0.0,0.0,0.0,0.0,0.0,0.0,0.0,3.4436,3.5063,3.4102,0.0,0.0,0.0,0.0,3.1067,3.8932,0.0,0.0,0.0,0.0,0.0,0.0,0.0,0.0,0.0,0.0,0.0,0.0,0.0,0.0,0.0,0.0,0.0,0.0,0.0,0.0,0.0,0.0,0.0,0.0,0.0,0.0,0.0,0.0,0.0,0.0,0.0,0.0,0.0,0.0,0.0,0.0,0.0,0.0,0.0,0.0,0.0,0.0,0.0,0.0,0.0,0.0,0.0,0.0,0.0,0.0,0.0,0.0,0.0,0.0,0.0,0.0,2.2498,2.7094,3.0349,3.2175,3.2782,3.3077,3.308,3.3585,3.0908,0.0,0.0,0.0,0.0,0.0,0.0,0.0,0.0,0.0,0.0,0.0,0.0,0.0,0.0,0.0,0.0,0.0,0.0,0.0,0.0,0.0,0.0,0.0,0.0,0.0,0.0,0.0,0.0,0.0,0.0,0.0,0.0,0.0,0.0,0.0,0.0,0.0,0.0,0.0,0.0,3.076,3.3392,3.4856,0.0,0.0,0.0,0.0,0.0,0.0,3.4623,3.5753,0.0,0.0,0.0,0.0,0.0,0.0,0.0,0.0,0.0,0.0,0.0,0.0,0.0,0.0,0.0,0.0,0.0,0.0,0.0,0.0,0.0,0.0,0.0,0.0,0.0,0.0,0.0,0.0,0.0,0.0,0.0,0.0,0.0,0.0,0.0,0.0,0.0,0.0,0.0,0.0,0.0,0.0,0.0,0.0,0.0,0.0,0.0,0.0,0.0,0.0,0.0,0.0,0.0,0.0,0.0,2.3077,2.505,2.7665,3.0936,3.1296,3.148,3.149,3.2409,3.0045,2.4133,0.0,0.0,0.0,0.0,0.0,0.0,0.0,0.0,0.0,0.0,0.0,0.0,0.0,0.0,0.0,0.0,0.0,0.0,0.0,0.0,0.0,0.0,0.0,0.0,0.0,0.0,0.0,0.0,0.0,0.0,0.0,0.0,0.0,0.0,0.0,0.0,0.0,0.0,0.0,2.7504,3.104,0.0,0.0,0.0,0.0,0.0,0.0,0.0,0.0,3.1622,0.0,0.0,0.0,0.0,0.0,0.0,0.0,0.0,0.0,0.0,0.0,0.0,0.0,0.0,0.0,0.0,0.0,0.0,0.0,0.0,0.0,0.0,0.0,0.0,0.0,0.0,0.0,0.0,0.0,0.0,0.0,0.0,0.0,0.0,0.0,0.0,0.0,0.0,0.0,0.0,0.0,0.0,0.0,0.0,0.0,0.0,0.0,0.0,0.0,0.0,0.0,0.0,0.0,0.0,0.0,0.0,2.3419,2.7331,2.9897,3.1411,3.1938,3.1531,3.195,2.9396,2.3499,0.0,0.0,0.0,0.0,0.0,0.0,0.0,0.0,0.0,0.0,0.0,0.0,0.0,0.0,0.0,0.0,0.0,0.0,0.0,0.0,0.0,0.0,0.0,0.0,0.0,0.0,0.0,0.0,0.0,0.0,0.0,0.0,0.0,0.0,0.0,0.0,0.0,0.0,1.8958,2.0309,0.0,0.0,0.0,0.0,0.0,0.0,0.0,0.0,2.9231,0.0,0.0,0.0,0.0,0.0,0.0,0.0,0.0,0.0,0.0,0.0,0.0,0.0,0.0,0.0,0.0,0.0,0.0,0.0,0.0,0.0,0.0,0.0,0.0,0.0,0.0,0.0,0.0,0.0,0.0,0.0,0.0,0.0,0.0,0.0,0.0,0.0,0.0,0.0,0.0,0.0,0.0,0.0,0.0,0.0,0.0,0.0,0.0,0.0,0.0,0.0,0.0,0.0,0.0,0.0,0.0,0.0,0.0,2.6151,2.912,3.0187,3.0716,3.0616,3.0049,2.7499,0.0,0.0,0.0,0.0,0.0,0.0,0.0,0.0,0.0,0.0,0.0,0.0,0.0,0.0,0.0,0.0,0.0,0.0,0.0,0.0,0.0,0.0,0.0,0.0,0.0,0.0,0.0,0.0,0.0,0.0,0.0,0.0,0.0,0.0,0.0,0.0,0.0,0.0,0.0,0.0,0.0,0.0,0.0,0.0,0.0,0.0,0.0,0.0,0.0,0.0,0.0,0.0,0.0,0.0,0.0,0.0,0.0,0.0,0.0,0.0,0.0,0.0,0.0,0.0,0.0,0.0,0.0,0.0,0.0,0.0,0.0,0.0,0.0,0.0,0.0,0.0,0.0,0.0,0.0,0.0,0.0,0.0,0.0,0.0,0.0,0.0,0.0,0.0,0.0,0.0,0.0,0.0,0.0,0.0,0.0,0.0,0.0,0.0,0.0,0.0,0.0,0.0,0.0,0.0,0.0,0.0,0.0,0.0,2.4877,2.8681,2.9242,2.9653,3.0171,2.8207,2.5585,0.0,0.0,0.0,0.0,0.0,0.0,0.0,0.0,0.0,0.0,0.0,0.0,0.0,0.0,0.0,0.0,0.0,0.0,0.0,0.0,0.0,0.0,0.0,0.0,0.0,0.0,0.0,0.0,0.0,0.0,0.0,0.0,0.0,0.0,0.0,0.0,0.0,0.0,0.0,0.0,0.0,0.0,0.0,0.0,0.0,0.0,0.0,0.0,1.9209,0.0,0.0,0.0,0.0,0.0,0.0,0.0,0.0,0.0,0.0,0.0,0.0,0.0,0.0,0.0,0.0,0.0,0.0,0.0,0.0,0.0,0.0,0.0,0.0,0.0,0.0,0.0,0.0,0.0,0.0,0.0,0.0,0.0,0.0,0.0,0.0,0.0,0.0,0.0,0.0,0.0,0.0,0.0,0.0,0.0,0.0,0.0,0.0,0.0,0.0,0.0,0.0,0.0,0.0,0.0,0.0,0.0,0.0,0.0,2.3904,2.8806,2.9564,3.0228,3.0841,2.7668,2.4638,0.0,0.0,0.0,0.0,0.0,0.0,0.0,0.0,0.0,0.0,0.0,0.0,0.0,0.0,0.0,0.0,0.0,0.0,0.0,0.0,0.0,0.0,0.0,0.0,0.0,0.0,0.0,0.0,0.0,0.0,0.0,0.0,0.0,0.0,0.0,0.0,0.0,0.0,0.0,0.0,0.0,0.0,0.0,0.0,0.0,0.0,0.0,0.0,0.0,0.0,0.0,0.0,0.0,0.0,0.0,0.0,0.0,0.0,0.0,0.0,0.0,0.0,0.0,0.0,0.0,0.0,0.0,0.0,0.0,0.0,0.0,0.0,0.0,0.0,0.0,0.0,0.0,0.0,0.0,0.0,0.0,0.0,0.0,0.0,0.0,0.0,0.0,0.0,0.0,0.0,0.0,0.0,0.0,0.0,0.0,0.0,0.0,0.0,0.0,0.0,0.0,0.0,0.0,0.0,0.0,0.0,0.0,0.0,2.2515,2.7528,2.9591,2.9817,2.8134,2.4386,2.1593,0.0,0.0,0.0,0.0,0.0,0.0,0.0,0.0,0.0,0.0,0.0,0.0,0.0,0.0,0.0,0.0,0.0,0.0,0.0,0.0,0.0,0.0,0.0,0.0,0.0,0.0,0.0,0.0,0.0,0.0,0.0,0.0,0.0,0.0,0.0,0.0,0.0,0.0,0.0,0.0,0.0,0.0,0.0,0.0,0.0,0.0,0.0,0.0,0.0,0.0,0.0,0.0,0.0,0.0,0.0,0.0,0.0,0.0,0.0,0.0,0.0,0.0,0.0,0.0,0.0,0.0,0.0,0.0,0.0,0.0,0.0,0.0,0.0,0.0,0.0,0.0,0.0,0.0,0.0,0.0,0.0,0.0,0.0,0.0,0.0,0.0,0.0,0.0,0.0,0.0,0.0,0.0,0.0,0.0,0.0,0.0,0.0,0.0,0.0,0.0,0.0,0.0,0.0,0.0,0.0,0.0,0.0,0.0,0.0,2.5036,2.843,2.8573,2.5319,2.1578,1.8402,0.0,0.0,0.0,0.0,0.0,0.0,0.0,0.0,0.0,0.0,0.0,0.0,0.0,0.0,0.0,0.0,0.0,0.0,0.0,0.0,0.0,0.0,0.0,0.0,0.0,0.0,0.0,0.0,0.0,0.0,0.0,0.0,0.0,0.0,0.0,0.0,0.0,0.0,0.0,0.0,0.0,0.0,0.0,0.0,0.0,0.0,0.0,0.0,0.0,0.0,0.0,0.0,0.0,0.0,0.0,0.0,0.0,0.0,0.0,0.0,0.0,0.0,0.0,0.0,0.0,0.0,0.0,0.0,0.0,0.0,0.0,0.0,0.0,0.0,0.0,0.0,0.0,0.0,0.0,0.0,0.0,0.0,0.0,0.0,0.0,0.0,0.0,0.0,0.0,0.0,0.0,0.0,0.0,0.0,0.0,0.0,0.0,0.0,0.0,0.0,0.0,0.0,0.0,0.0,0.0,0.0,0.0,0.0,0.0,2.1122,2.5359,2.6357,2.3815,2.0331,1.559,0.0,0.0,0.0,0.0,0.0,0.0,0.0,0.0,0.0,0.0,0.0,0.0,0.0,0.0,0.0,0.0,0.0,0.0,0.0,0.0,0.0,0.0,0.0,0.0,0.0,0.0,0.0,0.0,0.0,0.0,0.0,0.0,0.0,0.0,0.0,0.0,0.0,0.0,0.0,0.0,0.0,0.0,0.0,0.0,0.0,0.0,0.0,0.0,0.0,0.0,0.0,0.0,0.0,0.0,0.0,0.0,0.0,0.0,0.0,0.0,0.0,0.0,0.0,0.0,0.0,0.0,0.0,0.0,0.0,0.0,0.0,0.0,0.0,0.0,0.0,0.0,0.0,0.0,0.0,0.0,0.0,0.0,0.0,0.0,0.0,0.0,0.0,0.0,0.0,0.0,0.0,0.0,0.0,0.0,0.0,0.0,0.0,0.0,0.0,0.0,0.0,0.0,0.0,0.0,0.0,0.0,0.0,0.0,0.0,1.4318,1.9079,2.1283,2.006,1.4989,1.1534,1.0108,0.0,0.0,0.0,0.0,0.0,0.0,0.0,0.0,0.0,0.0,0.0,0.0,0.0,0.0,0.0,0.0,0.0,0.0,0.0,0.0,0.0,0.0,0.0,0.0,0.0,0.0,0.0,0.0,0.0,0.0,0.0,0.0,0.0,0.0,0.0,0.0,0.0,0.0,0.0,0.0,0.0,0.0,0.0,0.0,0.0,0.0,0.0,0.0,0.0,0.0,0.0,0.0,0.0,0.0,0.0,0.0,0.0,0.0,0.0,0.0,0.0,0.0,0.0,0.0,0.0,0.0,0.0,0.0,0.0,0.0,0.0,0.0,0.0,0.0,0.0,0.0,0.0,0.0,0.0,0.0,0.0,0.0,0.0,0.0,0.0,0.0,0.0,0.0,0.0,0.0,0.0,0.0,0.0,0.0,0.0,0.0,0.0,0.0,0.0,0.0,0.0,0.0,0.0,0.0,0.0,0.0,0.0,0.0,1.1937,1.6443,1.8465,1.7311,1.3829,1.0981,0.0,0.0,0.0,0.0,0.0,0.0,0.0,0.0,0.0,0.0,0.0,0.0,0.0,0.0,0.0,0.0,0.0,0.0,0.0,0.0,0.0,0.0,0.0,0.0,0.0,0.0,0.0,0.0,0.0,0.0,0.0,0.0,0.0,0.0,0.0,0.0,0.0,0.0,0.0,0.0,0.0,0.0,0.0,0.0,0.0,0.0,0.0,0.0,0.0,0.0,0.0,0.0,0.0,0.0,0.0,0.0,0.0,0.0,0.0,0.0,0.0,0.0,0.0,0.0,0.0,0.0,0.0,0.0,0.0,0.0,0.0,0.0,0.0,0.0,0.0,0.0,0.0,0.0,0.0,0.0,0.0,0.0,0.0,0.0,0.0,0.0,0.0,0.0,0.0,0.0,0.0,0.0,0.0,0.0,0.0,0.0,0.0,0.0,0.0,0.0,0.0,0.0,0.0,0.0,0.0,0.0,0.0,0.0,1.0625,1.5559,1.8374,1.8647,1.638,1.8009,1.4467,0.0,0.0,0.0,0.0,0.0,0.0,0.0,0.0,0.0,0.0,0.0,0.0,0.0,0.0,0.0,0.0,0.0,0.0,0.0,0.0,0.0,0.0,0.0,0.0,0.0,0.0,0.0,0.0,0.0,0.0,0.0,0.0,0.0,0.0,0.0,0.0,0.0,0.0,0.0,0.0,0.0,0.0,0.0,0.0,0.0,0.0,0.0,0.0,0.0,0.0,0.0,0.0,0.0,0.0,0.0,0.0,0.0,0.0,0.0,0.0,0.0,0.0,0.0,0.0,0.0,0.0,0.0,0.0,0.0,0.0,0.0,0.0,0.0,0.0,0.0,0.0,0.0,0.0,0.0,0.0,0.0,0.0,0.0,0.0,0.0,0.0,0.0,0.0,0.0,0.0,0.0,0.0,0.0,0.0,0.0,0.0,0.0,0.0,0.0,0.0,0.0,0.0,0.0,0.0,0.0,0.0,0.0,0.0,0.0,1.0554,0.0,1.6788,0.0,1.8022,1.6541,0.0,0.0,0.0,0.0,0.0,0.0,0.0,0.0,0.0,0.0,0.0,0.0,0.0,0.0,0.0,0.0,0.0,0.0,0.0,0.0,0.0,0.0,0.0,0.0,0.0,0.0,0.0,0.0,0.0,0.0,0.0,0.0,0.0,0.0,0.0,0.0,0.0,0.0,0.0,0.0,0.0,0.0,0.0,0.0,0.0,0.0,0.0,0.0,0.0,0.0,0.0,0.0,0.0,0.0,0.0,0.0,0.0,0.0,0.0,0.0,0.0,0.0,0.0,0.0,0.0,0.0,0.0,0.0,0.0,0.0,0.0,0.0,0.0,0.0,0.0,0.0,0.0,0.0,0.0,0.0,0.0,0.0,0.0,0.0,0.0,0.0,0.0,0.0,0.0,0.0,0.0,0.0,0.0,0.0,0.0,0.0,0.0,0.0,0.0,0.0,0.0,0.0,0.0,0.0,0.0,0.0,0.0,0.0,0.0,1.0655,1.2177,1.4712,1.7955,1.7146,1.6549,0.0,0.0,0.0,0.0,0.0,0.0,0.0,0.0,0.0,0.0,0.0,0.0,0.0,0.0,0.0,0.0,0.0,0.0,0.0,0.0,0.0,0.0,0.0,0.0,0.0,0.0,0.0,0.0,0.0,0.0,0.0,0.0,0.0,0.0,0.0,0.0,0.0,0.0,0.0,0.0,0.0,0.0,0.0,0.0,0.0,0.0,0.0,0.0,0.0,0.0,0.0,0.0,0.0,0.0,0.0,0.0,0.0,0.0,0.0,0.0,0.0,0.0,0.0,0.0,0.0,0.0,0.0,0.0,0.0,0.0,0.0,0.0,0.0,0.0,0.0,0.0,0.0,0.0,0.0,0.0,0.0,0.0,0.0,0.0,0.0,0.0,0.0,0.0,0.0,0.0,0.0,0.0,0.0,0.0,0.0,0.0,0.0,0.0,0.0,0.0,0.0,0.0,0.0,0.0,0.0,0.0,0.0,0.0,0.0,0.0,1.3102,1.2747,1.4129,1.5675,1.4869,0.0,0.0,0.0,0.0,0.0,0.0,0.0,0.0,0.0,0.0,0.0,0.0,0.0,0.0,0.0,0.0,0.0,0.0,0.0,0.0,0.0,0.0,0.0,0.0,0.0,0.0,0.0,0.0,0.0,0.0,0.0,0.0,0.0,0.0,0.0,0.0,0.0,0.0,0.0,0.0,0.0,0.0,0.0,0.0,0.0,0.0,0.0,0.0,0.0,0.0,0.0,0.0,0.0,0.0,0.0,0.0,0.0,0.0,0.0,0.0,0.0,0.0,0.0,0.0,0.0,0.0,0.0,0.0,0.0,0.0,0.0,0.0,0.0,0.0,0.0,0.0,0.0,0.0,0.0,0.0,0.0,0.0,0.0,0.0,0.0,0.0,0.0,0.0,0.0,0.0,0.0,0.0,0.0,0.0,0.0,0.0,0.0,0.0,0.0,0.0,0.0,0.0,0.0,0.0,0.0,0.0,0.0,0.0,0.0,0.0,1.1063,0.0,1.2756,1.3428,1.3583,1.3214,0.0,0.0,0.0,0.0,0.0,0.0,0.0,0.0,0.0,0.0,0.0,0.0,0.0,0.0,0.0,0.0,0.0,0.0,0.0,0.0,0.0,0.0,0.0,0.0,0.0,0.0,0.0,0.0,0.0,0.0,0.0,0.0,0.0,0.0,0.0,0.0,0.0,0.0,0.0,0.0,0.0,0.0,0.0,0.0,0.0,0.0,0.0,0.0,0.0,0.0,0.0,0.0,0.0,0.0,0.0,0.0,0.0,0.0,0.0,0.0,0.0,0.0,0.0,0.0,0.0,0.0,0.0,0.0,0.0,0.0,0.0,0.0,0.0,0.0,0.0,0.0,0.0,0.0,0.0,0.0,0.0,0.0,0.0,0.0,0.0,0.0,0.0,0.0,0.0,0.0,0.0,0.0,0.0,0.0,0.0,0.0,0.0,0.0,0.0,0.0,0.0,0.0,0.0,0.0,0.0,0.0,0.0,0.0,0.0,0.0,0.0,1.1897,1.1683,1.1817,0.0,0.0,0.0,0.0,0.0,0.0,0.0,0.0,0.0,0.0,0.0,0.0,0.0,0.0,0.0,0.0,0.0,0.0,0.0,0.0,0.0,0.0,0.0,0.0,0.0,0.0,0.0,0.0,0.0,0.0,0.0,0.0,0.0,0.0,0.0,0.0,0.0,0.0,0.0,0.0,0.0,0.0,0.0,0.0,0.0,0.0,0.0,0.0,0.0,0.0,0.0,0.0,0.0,0.0,0.0,0.0,0.0,0.0,0.0,0.0,0.0,0.0,0.0,0.0,0.0,0.0,0.0,0.0,0.0,0.0,0.0,0.0,0.0,0.0,0.0,0.0,0.0,0.0,0.0,0.0,0.0,0.0,0.0,0.0,0.0,0.0,0.0,0.0,0.0,0.0,0.0,0.0,0.0,0.0,0.0,0.0,0.0,0.0,0.0,0.0,0.0,0.0,0.0,0.0,0.0,0.0,0.0,0.0,0.0,0.0,0.0,0.8793,1.106,1.053,0.0,1.0184,0.0,0.0,0.0,0.0,0.0,0.0,0.0,0.0,0.0,0.0,0.0,0.0,0.0,0.0,0.0,0.0,0.0,0.0,0.0,0.0,0.0,0.0,0.0,0.0,0.0,0.0,0.0,0.0,0.0,0.0,0.0,0.0,0.0,0.0,0.0,0.0,0.0,0.0,0.0,0.0,0.0,0.0,0.0,0.0,0.0,0.0,0.0,0.0,0.0,0.0,0.0,0.0,0.0,0.0,0.0,0.0,0.0,0.0,0.0,0.0,0.0,0.0,0.0,0.0,0.0,0.0,0.0,0.0,0.0,0.0,0.0,0.0,0.0,0.0,0.0,0.0,0.0,0.0,0.0,0.0,0.0,0.0,0.0,0.0,0.0,0.0,0.0,0.0,0.0,0.0,0.0,0.0,0.0,0.0,0.0,0.0,0.0,0.0,0.0,0.0,0.0,0.0,0.0,0.0,0.0,0.0,0.0,0.0,0.0,0.0,0.0,0.0,1.0908,1.111,0.8797,0.0,0.0,0.0,0.0,0.0,0.0,0.0,0.0,0.0,0.0,0.0,0.0,0.0,0.0,0.0,0.0,0.0,0.0,0.0,0.0,0.0,0.0,0.0,0.0,0.0,0.0,0.0,0.0,0.0,0.0,0.0,0.0,0.0,0.0,0.0,0.0,0.0,0.0,0.0,0.0,0.0,0.0,0.0,0.0,0.0,0.0,0.0,0.0,0.0,0.0,0.0,0.0,0.0,0.0,0.0,0.0,0.0,0.0,0.0,0.0,0.0,0.0,0.0,0.0,0.0,0.0,0.0,0.0,0.0,0.0,0.0,0.0,0.0,0.0,0.0,0.0,0.0,0.0,0.0,0.0,0.0,0.0,0.0,0.0,0.0,0.0,0.0,0.0,0.0,0.0,0.0,0.0,0.0,0.0,0.0,0.0,0.0,0.0,0.0,0.0,0.0,0.0,0.0,0.0,0.0,0.0,0.0,0.0,0.0,0.0,0.8621,0.7749,1.0253,1.0953,0.9334,0.0,0.0,0.0,0.0,0.0,0.0,0.0,0.0,0.0,0.0,0.0,0.0,0.0,0.0,0.0,0.0,0.0,0.0,0.0,0.0,0.0,0.0,0.0,0.0,0.0,0.0,0.0,0.0,0.0,0.0,0.0,0.0,0.0,0.0,0.0,0.0,0.0,0.0,0.0,0.0,0.0,0.0,0.0,0.0,0.0,0.0,0.0,0.0,0.0,0.0,0.0,0.0,0.0,0.0,0.0,0.0,0.0,0.0,0.0,0.0,0.0,0.0,0.0,0.0,0.0,0.0,0.0,0.0,0.0,0.0,0.0,0.0,0.0,0.0,0.0,0.0,0.0,0.0,0.0,0.0,0.0,0.0,0.0,0.0,0.0,0.0,0.0,0.0,0.0,0.0,0.0,0.0,0.0,0.0,0.0,0.0,0.0,0.0,0.0,0.0,0.0,0.0,0.0,0.0,0.0,0.0,0.0,0.0,0.0,0.0,0.0,0.0,0.0,0.0,1.0624,0.0,0.0,0.0,0.0,0.0,0.0,0.0,0.0,0.0,0.0,0.0,0.0,0.0,0.0,0.0,0.0,0.0,0.0,0.0,0.0,0.0,0.0,0.0,0.0,0.0,0.0,0.0,0.0,0.0,0.0,0.0,0.0,0.0,0.0,0.0,0.0,0.0,0.0,0.0,0.0,0.0,0.0,0.0,0.0,0.0,0.0,0.0,0.0,0.0,0.0,0.0,0.0,0.0,0.0,0.0,0.0,0.0,0.0,0.0,0.0,0.0,0.0,0.0,0.0,0.0,0.0,0.0,0.0,0.0,0.0,0.0,0.0,0.0,0.0,0.0,0.0,0.0,0.0,0.0,0.0,0.0,0.0,0.0,0.0,0.0,0.0,0.0,0.0,0.0,0.0,0.0,0.0,0.0,0.0,0.0,0.0,0.0,0.0,0.0,0.0,0.0,0.0,0.0,0.0,0.0,0.0,0.0,0.0,0.0,0.0,0.0,0.0,0.0,0.0,0.0,0.0,0.0,0.0,0.0,0.0,0.0,0.0,0.0,0.0,0.0,0.0,0.0,0.0,0.0,0.0,0.0,0.0,0.0,0.0,0.0,0.0,0.0,0.0,0.0,0.0,0.0,0.0,0.0,0.0,0.0,0.0,0.0,0.0,0.0,0.0,0.0,0.0,0.0,0.0,0.0,0.0,0.0,0.0,0.0,0.0,0.0,0.0,0.0,0.0,0.0,0.0,0.0,0.0,0.0,0.0,0.0,0.0,0.0,0.0,0.0,0.0,0.0,0.0,0.0,0.0,0.0,0.0,0.0,0.0,0.0,0.0,0.0,0.0,0.0,0.0,0.0,0.0,0.0,0.0,0.0,0.0,0.0,0.0,0.0,0.0,0.0,0.0,0.0,0.0,0.0,0.0,0.0,0.0,0.0,0.0,0.0,0.0,0.0,0.0,0.0,0.0,0.0,0.0,0.0,0.0,0.0,0.0,0.0,0.0,0.0,0.0,0.0,0.0,0.0,0.0,0.0,0.0,0.0,0.0,0.0,0.0,0.0,0.0,0.0,0.0,0.0,0.0,0.0,0.0,0.0,0.0,0.0,0.0,0.0,0.0,0.0,0.0,0.0,0.0,0.0,0.0,0.0,0.0,0.0,0.0,0.0,0.0,0.0,0.0,0.0,0.0,0.0,0.0,0.0,0.0,0.0,0.0,0.0,0.0,0.0,0.0,0.0,0.0,0.0,0.0,0.0,0.0,0.0,0.0,0.0,0.0,0.0,0.0,0.0,0.0,0.0,0.0,0.0,0.0,0.0,0.0,0.0,0.0,0.0,0.0,0.0,0.0,0.0,0.0,0.0,0.0,0.0,0.0,0.0,0.0,0.0,0.0,0.0,0.0,0.0,0.0,0.0,0.0,0.0,0.0,0.0,0.0,0.0,0.0,0.0,0.0,0.0,0.0,0.0,0.0,0.0,0.0,0.0,0.0,0.0,0.0,0.0,0.0,0.0,0.0,0.0,0.0,0.0,0.0,0.0,0.0,0.0,0.0,0.0,0.0,0.0,0.0,0.0,0.0,0.0,0.0,0.0,0.0,0.0,0.0,0.0,0.0,0.0,0.0,0.0,0.0,0.0,0.0,0.0,0.0,0.0,0.0,0.0,0.0,0.0,0.0,0.0,0.0,0.0,0.0,0.0,0.0,0.0,0.0,0.0,0.0,0.0,0.0,0.0,0.0,0.0,0.0,0.0,0.0,0.0,0.0,0.0,0.0,0.0,0.0,0.0,0.0,0.0,0.0,0.0,0.0,0.0,0.0,0.0,0.0,0.0,0.0,0.0,0.0,0.0,0.0,0.0,0.0,0.0,0.0,0.0,0.0,0.0,0.0,0.0,0.0,0.0,0.0,0.0,0.0,0.0,0.0,0.0,0.0,0.0,0.0,0.0,0.0,0.0,0.0,0.0,0.0,0.0,0.0,0.0,0.0,0.0,0.0,0.0,0.0,0.0,0.0,0.0,0.0,0.0,0.0,0.0,0.0,0.0,0.0,0.0,0.0,0.0,0.0,0.0,0.0,0.0,0.0,0.0,0.0,0.0,0.0,0.0,0.0,0.0,0.0,0.0,0.0,0.0,0.0,0.0,0.0,0.0,0.0,0.0,0.0,0.0,0.0,0.0,0.0,0.0,0.0,0.0,0.0,0.0,0.0,0.0,0.0,0.0,0.0,0.0,0.0,0.0,0.0,0.0,0.0,0.0,0.0,0.0,0.0,0.0,0.0,0.0,0.0,0.0,0.0,0.0,0.0,0.0,0.0,0.0,0.0,0.0,0.0,0.0,0.0,0.0,0.0,0.0,0.0,0.0,0.0,0.0,0.0,0.0,0.0,0.0,0.0,0.0,0.0,0.0,0.0,0.0,0.0,0.0,0.0,0.0,0.0,0.0,0.0,0.0,0.0,0.0,0.0,0.0,0.0,0.0,0.0,0.0,0.0,0.0,0.0,0.0,0.0,0.0,0.0,0.0,0.0,0.0,0.0,0.0,0.0,0.0,0.0,0.0,0.0,0.0,0.0,0.0,0.0,0.0,0.0,0.0,0.0,0.0,0.0,0.0,0.0,0.0,0.0,0.0,0.0,0.0,0.0,0.0,0.0,0.0,0.0,0.0,0.0,0.0,0.0,0.0,0.0,0.0,0.0,0.0,0.0,0.0,0.0,0.0,0.0,0.0,0.0,0.0,0.0,0.0,0.0,0.0,0.0,0.0,0.0,0.0,0.0,0.0,0.0,0.0,0.0,0.0,0.0,0.0,0.0,0.0,0.0,0.0,0.0,0.0,0.0,0.0,0.0,0.0,0.0,0.0,0.0,0.0,0.0,0.0,0.0,0.0,0.0,0.0,0.0,0.0,0.0,0.0,0.0,0.0,0.0,0.0,0.0,0.0,0.0,0.0,0.0,0.0,0.0,0.0,0.0,0.0,0.0,0.0,0.0,0.0,0.0,0.0,0.0,0.0,0.0,0.0,0.0,0.0,0.0,0.0,0.0,0.0,0.0,0.0,0.0,0.0,0.0,0.0,0.0,0.0,0.0,0.0,0.0,0.0,0.0,0.0,0.0,0.0,0.0,0.0,0.0,0.0,0.0,0.0,0.0,0.0,0.0,0.0,0.0,0.0,0.0,0.0,0.0,0.0,0.0,0.0,0.0,0.0,0.0,0.0,0.0,0.0,0.0,0.0,0.0,0.0,0.0,0.0,0.0,0.0,0.0,0.0,0.0,0.0,0.0,0.0,0.0,0.0,0.0,0.0,0.0,0.0,0.0,0.0,0.0,0.0,0.0,0.0,0.0,0.0,0.0,0.0,0.0,0.0,0.0,0.0,0.0,0.0,0.0,0.0,0.0,0.0,0.0,0.0,0.0,0.0,0.0,0.0,0.0,0.0,0.0,0.0,0.0,0.0,0.0,0.0,0.0,0.0,0.0,0.0,0.0,0.0,0.0,0.0,0.0,0.0,0.0,0.0,0.0,0.0,0.0,0.0,0.0,0.0,0.0,0.0,0.0,0.0,0.0,0.0,0.0,0.0,0.0,0.0,0.0,0.0,0.0,0.0,0.0,0.0,0.0,0.0,0.0,0.0,0.0,0.0,0.0,0.0,0.0,0.0,0.0,0.0,0.0,0.0,0.0,0.0,0.0,0.0,0.0,0.0,0.0,0.0,0.0,0.0,0.0,0.0,0.0,0.0,0.0,0.0,0.0,0.0,0.0,0.0,0.0,0.0,0.0,0.0,0.0,0.0,0.0,0.0,0.0,0.0,0.0,0.0,0.0,0.0,0.0,0.0,0.0,0.0,0.0,0.0,0.0,0.0,0.0,0.0,0.0,0.0,0.0,0.0,0.0,0.0,0.0,0.0,0.0,0.0,0.0,0.0,0.0,0.0,0.0,0.0,0.0,0.0,0.0,0.0,0.0,0.0,0.0,0.0,0.0,0.0,0.0,0.0,0.0,0.0,0.0,0.0,0.0,0.0,0.0,0.0,0.0,0.0,0.0,0.0,0.0,0.0,0.0,0.0,0.0,0.0,0.0,0.0,0.0,0.0,0.0,0.0,0.0,0.0,0.0,0.0,0.0,0.0,0.0,0.0,0.0,0.0,0.0,0.0,0.0,0.0,0.0,0.0,0.0,0.0,0.0,0.0,0.0,0.0,0.0,0.0,0.0,0.0,0.0,0.0,0.0,0.0,0.0,0.0,0.0,0.0,0.0,0.0,0.0,0.0,0.0,0.0,0.0,0.0,0.0,0.0,0.0,0.0,0.0,0.0,0.0,0.0,0.0,0.0,0.0,0.0,0.0,0.0,0.0,0.0,0.0,0.0,0.0,0.0,0.0,0.0,0.0]}],[{"header":{"parameterUnit":"kt","parameterCategory":2,"dx":1,"dy":1,"la1":29.587661999999998,"la2":31.0,"lo1":-88.76705300000003,"lo2":-86.6583820000003,"nx":115,"ny":88,"refTime":"2022-10-05T06:00:00:Z","depth":0,"parameterNumber":2,"parameterNumberName":"V-component_of_WINDS"},"data":[-6.0629,-6.0629,-6.0629,-6.0629,-6.0629,-6.0629,-6.0629,-6.0476,-5.9865,-5.9323,-5.8835,-5.8168,-5.786,-5.7688,-5.6902,-5.6185,-5.582,-5.5014,-5.4599,-5.4147,-5.3796,-5.3699,-5.3572,-5.3572,-5.3572,-5.3601,-5.3601,-5.3502,-5.3334,-5.3036,-5.2764,-5.2462,-5.223,-5.1512,-5.0544,-5.0039,-4.9503,-4.8666,-4.7694,-4.6859,-4.6176,-4.6433,-4.7092,-4.6551,-4.557,-4.4734,-4.3914,-4.2891,-4.2401,-4.2169,-4.2266,-4.1754,-4.0391,-3.8453,-3.7315,-3.7071,-3.755,-3.7714,-3.8089,-3.8343,-3.8459,-3.8753,-3.9221,-3.9386,-3.8805,-3.9374,-3.9467,-3.9518,-3.8851,-3.6542,-3.5862,-3.5598,-3.5784,-3.6003,-3.5884,-3.6138,-3.6125,-3.5593,-3.5153,-3.4856,-3.4428,-3.4321,-3.4106,-3.389,-3.3305,-3.2999,-3.289,-3.2561,-3.1969,-3.0087,-2.8313,-2.8313,-2.8428,-2.8331,-2.8756,-2.9196,-2.8544,-2.8641,-2.8641,-2.8659,-2.8428,-2.8331,-2.8215,-2.8215,-2.8215,-2.8215,-2.8215,-2.8215,-2.8215,-2.8215,-2.8215,-2.8215,-2.8215,-2.8215,-2.8215,-6.0629,-6.0629,-6.0629,-6.0629,-6.0629,-6.0629,-6.0629,-6.0629,-6.0476,-6.0022,-5.9355,-5.9548,-5.9257,-5.8765,-5.8178,-5.7198,-5.6276,-5.5451,-5.4854,-5.4311,-5.3894,-5.3699,-5.3572,-5.3572,-5.3572,-5.3572,-5.3572,-5.3601,-5.3502,-5.3334,-5.3036,-5.2865,-5.2462,-5.1952,-5.1305,-5.086,-5.0305,-4.9477,-4.8881,-4.8149,-4.8092,-4.8281,-4.8086,-4.7531,-4.6591,-4.6087,-4.572,-4.5113,-4.4561,-4.4299,-4.4056,-4.3099,-4.1326,-3.8736,-3.7654,-3.7339,-3.7842,-3.8489,-3.8606,-3.8886,-3.8801,-3.8739,-3.9462,-3.9112,-3.762,-3.7515,-3.7539,-3.748,-3.7562,-3.6644,-3.6309,-3.6169,-3.6588,-3.6884,-3.6429,-3.6224,-3.5862,-3.5432,-3.5259,-3.5153,-3.5047,-3.5047,-3.494,-3.494,-3.462,-3.4321,-3.4127,-3.389,-3.3217,-3.1323,-2.9993,-2.9766,-2.9879,-3.0294,-3.0797,-3.0275,-2.9082,-2.9292,-3.0068,-2.931,-2.8756,-2.8446,-2.8215,-2.8215,-2.8215,-2.8215,-2.8215,-2.8215,-2.8215,-2.8215,-2.8215,-2.8215,-2.8215,-2.8215,-2.8215,-6.0629,-6.0629,-6.0629,-6.0629,-6.0629,-6.0629,-6.0629,-6.0629,-6.0629,-6.0399,-6.0101,-6.0055,-5.993,-5.9532,-5.8765,-5.7806,-5.6814,-5.5882,-5.5108,-5.4407,-5.3894,-5.3699,-5.3572,-5.3572,-5.3572,-5.3572,-5.3572,-5.3572,-5.3572,-5.3404,-5.3235,-5.3065,-5.2865,-5.236,-5.1747,-5.1381,-5.0832,-5.0013,-4.9907,-4.9638,-4.9611,-4.9531,-4.945,-4.8689,-4.8002,-4.7505,-4.6969,-4.6149,-4.5715,-4.56,-4.5185,-4.3959,-4.2784,-3.9376,-3.7466,-3.7724,-3.8807,-3.9852,-3.9625,-3.9634,-3.9605,-3.9017,-3.9097,-3.8941,-3.7445,-3.8544,-3.8567,-3.7211,-3.7188,-3.7211,-3.698,-3.6667,-3.692,-3.7305,-3.7075,-3.6732,-3.63,-3.5846,-3.5582,-3.5454,-3.5364,-3.5364,-3.5259,-3.5259,-3.494,-3.4642,-3.4856,-3.462,-3.389,-3.2561,-3.1898,-3.1565,-3.1898,-3.232,-3.2018,-3.102,-3.0068,-3.0724,-3.1596,-3.0948,-3.02,-2.91,-2.8215,-2.8215,-2.8215,-2.8215,-2.8215,-2.8215,-2.8215,-2.8215,-2.8215,-2.8215,-2.8215,-2.8215,-2.8251,-6.0781,-6.0629,-6.0629,-6.0629,-6.0629,-6.0629,-6.0629,-6.0629,-6.0629,-6.0629,-6.0553,-6.0366,-6.0133,-5.993,-5.9257,-5.8316,-5.7342,-5.6276,-5.5325,-5.4503,-5.3923,-5.3699,-5.3572,-5.3572,-5.3572,-5.3572,-5.3572,-5.3572,-5.3572,-5.3502,-5.3363,-5.3264,-5.3065,-5.2664,-5.2157,-5.1822,-5.1457,-5.0832,-5.0622,-5.0517,-5.0411,-5.0439,-5.0333,-4.9585,-4.8934,-4.8443,-4.7891,-4.7082,-4.6718,-4.6377,-4.5624,-4.5393,-4.5319,-4.08,-3.87,-3.9032,-4.0713,-4.1062,-4.0976,-4.0738,-4.0438,-3.9667,-3.9064,-3.8417,-3.8637,-4.0016,-3.9993,-3.838,-3.7539,-3.7585,-3.7539,-3.7131,-3.7107,-3.7465,-3.7734,-3.7504,-3.7167,-3.6527,-3.5891,-3.5756,-3.5598,-3.5576,-3.5364,-3.5259,-3.4918,-3.4918,-3.5047,-3.494,-3.4213,-3.3997,-3.3213,-3.3166,-3.3583,-3.347,-3.2567,-3.1777,-3.1838,-3.2389,-3.2931,-3.2451,-3.1747,-2.9993,-2.8215,-2.8215,-2.8428,-2.8544,-2.8544,-2.8331,-2.8215,-2.8215,-2.8215,-2.8215,-2.8215,-2.9356,-2.9017,-6.1124,-6.0804,-6.0629,-6.0662,-6.0662,-6.0629,-6.0629,-6.0629,-6.0629,-6.0629,-6.0553,-6.0366,-6.0289,-6.0133,-5.9739,-5.8784,-5.7774,-5.6902,-5.5912,-5.4436,-5.4088,-5.3699,-5.3669,-5.3572,-5.3572,-5.3572,-5.3572,-5.3572,-5.3572,-5.3601,-5.3433,-5.3264,-5.3235,-5.3036,-5.2563,-5.223,-5.1896,-5.1457,-5.1249,-5.0937,-5.0755,-5.0544,-5.0333,-5.0013,-4.9585,-4.9043,-4.8689,-4.8112,-4.7531,-4.7195,-4.6856,-4.663,-4.5822,-4.3514,-4.2951,-4.3188,-4.2816,-4.2792,-4.2445,-4.2128,-4.1402,-4.0633,-4.0034,-3.9853,-4.032,-4.1465,-4.0928,-3.9525,-3.8988,-3.8941,-3.859,-3.8263,-3.8249,-3.8653,-3.8921,-3.8967,-3.8469,-3.7951,-3.7249,-3.642,-3.6466,-3.6674,-3.6476,-3.5259,-3.5047,-3.4918,-3.4918,-3.494,-3.4708,-3.5013,-3.4625,-3.4494,-3.5057,-3.5133,-3.4001,-3.3322,-3.339,-3.3628,-3.4104,-3.3865,-3.2911,-3.0875,-2.8446,-2.8659,-2.8985,-2.8985,-2.8913,-2.8428,-2.8215,-2.8322,-2.8411,-2.8304,-2.9302,-3.0799,-3.0728,-6.2713,-6.376,-6.1778,-6.1319,-6.1913,-6.1101,-6.0629,-6.0629,-6.0629,-6.0629,-6.0629,-6.0586,-6.0399,-6.0342,-6.0153,-5.9484,-5.8295,-5.772,-5.6574,-5.5358,-5.467,-5.4222,-5.3767,-5.3572,-5.3669,-5.3572,-5.3572,-5.3572,-5.3572,-5.3601,-5.3601,-5.3531,-5.3531,-5.3235,-5.2965,-5.2635,-5.2433,-5.21,-5.1691,-5.1146,-5.0832,-5.065,-5.0439,-5.0333,-5.012,-4.9907,-4.9692,-4.8908,-4.8469,-4.8359,-4.7531,-4.7307,-4.6998,-4.6391,-4.5923,-4.4464,-4.4208,-4.4086,-4.3898,-4.3458,-4.2584,-4.1762,-4.1112,-4.1278,-4.2003,-4.2354,-4.1582,-4.0975,-4.0671,-4.032,-3.9853,-3.9502,-3.9648,-3.9792,-4.0118,-4.0443,-4.0007,-3.948,-3.8423,-3.7395,-3.7412,-3.7754,-3.7039,-3.5879,-3.5175,-3.5224,-3.5291,-3.525,-3.5427,-3.5956,-3.6157,-3.6068,-3.6505,-3.6715,-3.5515,-3.4559,-3.4299,-3.4321,-3.5038,-3.4992,-3.4062,-3.2471,-3.1164,-3.0447,-2.9804,-2.9865,-3.0028,-2.916,-2.8536,-2.8696,-2.8875,-2.9409,-3.0532,-3.1833,-3.178,-6.4445,-6.614,-6.3527,-6.2682,-6.2993,-6.1913,-6.1068,-6.0662,-6.0629,-6.0958,-6.1221,-6.1254,-6.1636,-6.1512,-6.1074,-6.0307,-5.9543,-5.859,-5.7373,-5.6454,-5.5699,-5.4924,-5.448,-5.4126,-5.3894,-5.3796,-5.3699,-5.3572,-5.3572,-5.3572,-5.3572,-5.3572,-5.3601,-5.3502,-5.3334,-5.3235,-5.2965,-5.2664,-5.2129,-5.1588,-5.1146,-5.0755,-5.0544,-5.0439,-5.0227,-5.0227,-5.012,-4.9665,-4.945,-4.926,-4.8443,-4.8307,-4.8223,-4.7754,-4.6856,-4.5185,-4.4952,-4.4835,-4.4859,-4.4507,-4.3747,-4.2893,-4.2378,-4.2801,-4.3083,-4.3011,-4.2447,-4.2167,-4.191,-4.1746,-4.1395,-4.1232,-4.1325,-4.121,-4.1187,-4.1559,-4.1605,-4.0816,-3.9252,-3.8515,-3.8707,-3.8775,-3.7399,-3.6349,-3.602,-3.5865,-3.5865,-3.602,-3.6332,-3.72,-3.7622,-3.7708,-3.8014,-3.8134,-3.7053,-3.5584,-3.5234,-3.5016,-3.604,-3.6383,-3.5508,-3.4658,-3.3764,-3.2109,-2.9973,-2.9811,-3.0729,-3.0229,-2.9409,-2.9463,-2.973,-3.0675,-3.1548,-3.2208,-3.2421,-6.6101,-6.6424,-6.6089,-6.4828,-6.3467,-6.3434,-6.2243,-6.0728,-6.0695,-6.1451,-6.2602,-6.2602,-6.3194,-6.4034,-6.2986,-6.1962,-6.1096,-5.9474,-5.822,-5.7279,-5.6779,-5.5912,-5.5391,-5.4924,-5.4414,-5.4059,-5.3796,-5.3572,-5.3572,-5.3572,-5.3572,-5.3572,-5.3572,-5.3601,-5.3601,-5.3433,-5.3334,-5.2936,-5.2433,-5.1924,-5.1249,-5.0937,-5.065,-5.0439,-5.0333,-5.0333,-5.0333,-5.0227,-5.0227,-4.9907,-4.9477,-4.9558,-4.9315,-4.8527,-4.6856,-4.5509,-4.4952,-4.4835,-4.4859,-4.4624,-4.4079,-4.3677,-4.3464,-4.3725,-4.3725,-4.3318,-4.2891,-4.2821,-4.2751,-4.2798,-4.2821,-4.2704,-4.2587,-4.2468,-4.223,-4.2322,-4.2605,-4.1763,-4.0192,-3.9707,-3.9972,-3.9358,-3.8029,-3.7401,-3.7156,-3.7133,-3.7289,-3.7355,-3.8227,-3.8985,-3.9097,-3.9157,-3.9195,-3.9407,-3.8295,-3.6749,-3.6132,-3.5737,-3.6715,-3.76,-3.7048,-3.6256,-3.4212,-3.2096,-3.0121,-2.9909,-3.1302,-3.1316,-3.0532,-3.0479,-3.071,-3.1495,-3.2118,-3.2742,-3.2867,-6.8153,-7.054,-6.7818,-6.6645,-6.6742,-6.6653,-6.4895,-6.2585,-6.2121,-6.2273,-6.301,-6.3819,-6.4575,-6.4706,-6.4231,-6.3495,-6.1994,-6.1166,-6.0318,-5.7999,-5.7766,-5.681,-5.5821,-5.5112,-5.467,-5.4155,-5.3796,-5.3572,-5.3572,-5.3572,-5.3572,-5.3572,-5.3572,-5.3572,-5.3601,-5.3531,-5.3334,-5.3036,-5.2635,-5.2027,-5.1457,-5.1041,-5.065,-5.0439,-5.0333,-5.0333,-5.0333,-5.0333,-5.0333,-5.0227,-5.012,-5.012,-5.012,-4.9558,-4.8663,-4.6743,-4.574,-4.4859,-4.4742,-4.4624,-4.4437,-4.4082,-4.382,-4.3581,-4.3365,-4.3389,-4.3148,-4.3148,-4.3102,-4.3055,-4.3031,-4.3031,-4.2961,-4.2818,-4.2698,-4.2336,-4.2428,-4.214,-4.0888,-4.0762,-4.0768,-3.996,-3.8968,-3.8561,-3.8338,-3.8517,-3.8695,-3.9499,-4.0356,-4.0512,-4.0458,-4.0481,-4.0448,-3.9695,-3.8604,-3.7629,-3.7069,-3.6724,-3.7503,-3.8487,-3.8098,-3.7555,-3.4495,-3.1815,-3.1997,-3.2245,-3.2676,-3.26,-3.2029,-3.1815,-3.178,-3.2083,-3.2707,-3.2867,-3.2867,-6.9989,-7.308,-7.0156,-6.9338,-6.983,-6.8989,-6.72,-6.5062,-6.3959,-6.3786,-6.4345,-6.5134,-6.5824,-6.6054,-6.5923,-6.5084,-6.3838,-6.3445,-6.1945,-5.9653,-5.8746,-5.7547,-5.6395,-5.5606,-5.486,-5.4281,-5.3923,-5.3826,-5.3572,-5.3572,-5.3572,-5.3572,-5.3572,-5.3572,-5.3601,-5.3531,-5.3334,-5.3136,-5.2764,-5.223,-5.1765,-5.1381,-5.1069,-5.0622,-5.0544,-5.0439,-5.0333,-5.0333,-5.0333,-5.0333,-5.0333,-5.0333,-5.0333,-5.0333,-4.9342,-4.7642,-4.7108,-4.588,-4.5185,-4.4624,-4.4437,-4.42,-4.382,-4.3462,-4.3365,-4.3245,-4.3148,-4.3148,-4.3148,-4.3148,-4.3148,-4.3148,-4.3148,-4.3004,-4.2763,-4.252,-4.2277,-4.1888,-4.172,-4.1497,-4.152,-4.0754,-4.0319,-3.9833,-3.9789,-3.9923,-4.0042,-4.0759,-4.096,-4.1139,-4.1229,-4.1128,-4.0848,-3.9993,-3.9299,-3.8671,-3.817,-3.8109,-3.875,-3.9444,-3.9296,-3.8891,-3.6332,-3.366,-3.4088,-3.455,-3.3582,-3.276,-3.2849,-3.2867,-3.2582,-3.2689,-3.2867,-3.2867,-3.2867,-7.1219,-7.3357,-7.2941,-7.2695,-7.2345,-6.9898,-6.8598,-6.7602,-6.5904,-6.5594,-6.6515,-6.6975,-6.7764,-6.8356,-6.7501,-6.6778,-6.5905,-6.4246,-6.2742,-6.1928,-6.0544,-5.8696,-5.7534,-5.6399,-5.5689,-5.4687,-5.4117,-5.3826,-5.3572,-5.3572,-5.3572,-5.3572,-5.3572,-5.3572,-5.3572,-5.3572,-5.3572,-5.3601,-5.3334,-5.3065,-5.2635,-5.2129,-5.1588,-5.1146,-5.0832,-5.0544,-5.0439,-5.0333,-5.0333,-5.0333,-5.0333,-5.0333,-5.0333,-5.0333,-4.9665,-4.8112,-4.8249,-4.7556,-4.6403,-4.5185,-4.4624,-4.4413,-4.382,-4.3581,-4.3581,-4.3365,-4.3148,-4.3148,-4.3148,-4.3148,-4.3148,-4.3148,-4.3148,-4.3004,-4.2763,-4.252,-4.2422,-4.2155,-4.201,-4.1888,-4.1911,-4.1911,-4.1475,-4.1184,-4.1117,-4.1117,-4.1229,-4.1251,-4.1229,-4.1273,-4.1251,-4.115,-4.0858,-4.0226,-3.9857,-3.9524,-3.9444,-3.9761,-3.9909,-4.0073,-4.003,-3.8216,-3.678,-3.5751,-3.4815,-3.3904,-3.3253,-3.2867,-3.2867,-3.2867,-3.2867,-3.2867,-3.2867,-3.2867,-3.2867,-7.1602,-7.3963,-7.3393,-7.3185,-7.2975,-7.1659,-7.0119,-6.8553,-6.7241,-6.6912,-6.7106,-6.8159,-6.8882,-6.9013,-6.8652,-6.8126,-6.7008,-6.612,-6.4952,-6.3802,-6.267,-6.1093,-5.9443,-5.7958,-5.6882,-5.4717,-5.4117,-5.404,-5.3961,-5.3728,-5.3775,-5.3804,-5.3601,-5.3786,-5.3786,-5.3572,-5.3572,-5.3601,-5.3433,-5.3136,-5.2836,-5.2389,-5.1906,-5.1305,-5.1048,-5.0787,-5.0603,-5.0524,-5.0469,-5.036,-5.0497,-5.0415,-5.036,-5.0333,-5.0013,-4.9342,-4.8689,-4.7779,-4.7082,-4.6288,-4.5277,-4.4413,-4.3844,-4.3462,-4.3365,-4.3245,-4.3148,-4.3148,-4.3148,-4.3148,-4.3148,-4.3148,-4.3148,-4.3148,-4.2763,-4.2763,-4.252,-4.2422,-4.2277,-4.201,-4.2033,-4.1911,-4.1497,-4.1229,-4.1184,-4.1206,-4.1273,-4.1273,-4.1273,-4.1273,-4.1273,-4.115,-4.0903,-4.0778,-4.053,-4.028,-4.0052,-4.0242,-4.0117,-4.0405,-3.8705,-3.5717,-3.3904,-3.4171,-3.3904,-3.3118,-3.2867,-3.2867,-3.2867,-3.2867,-3.2867,-3.3002,-3.2867,-3.2867,-3.2867,-7.0864,-7.3572,-7.3058,-7.304,-7.3254,-7.2503,-7.1097,-6.9507,-6.8652,-6.8184,-6.7994,-6.8783,-6.9244,-6.9244,-6.9178,-6.8685,-6.7961,-6.7435,-6.6412,-6.5386,-6.433,-6.2782,-6.1398,-5.9776,-5.8721,-5.703,-5.5971,-5.5514,-5.511,-5.4806,-5.4748,-5.5097,-5.5418,-5.4951,-5.4415,-5.4502,-5.4066,-5.3862,-5.3502,-5.3334,-5.3222,-5.2949,-5.2732,-5.2155,-5.1867,-5.1443,-5.1123,-5.1015,-5.0715,-5.0715,-5.1425,-5.1043,-5.0606,-5.0387,-5.0333,-5.012,-4.8908,-4.8002,-4.7531,-4.6743,-4.5715,-4.4531,-4.382,-4.3581,-4.3462,-4.3245,-4.3148,-4.3148,-4.3148,-4.3148,-4.3148,-4.3148,-4.3148,-4.3028,-4.3028,-4.3004,-4.2884,-4.2763,-4.252,-4.1888,-4.1788,-4.1911,-4.1665,-4.1273,-4.1273,-4.1273,-4.1273,-4.1273,-4.1273,-4.1273,-4.1273,-4.115,-4.115,-4.0903,-4.0903,-4.0778,-4.0654,-4.0405,-4.003,-3.8979,-3.7317,-3.4437,-3.3118,-3.3002,-3.2867,-3.2867,-3.2867,-3.2867,-3.3002,-3.3405,-3.3405,-3.3136,-3.3002,-3.2867,-3.2867,-6.9479,-7.2022,-7.1946,-7.2415,-7.3114,-7.2473,-7.1642,-7.0585,-6.9882,-6.9372,-6.9046,-6.9276,-6.9276,-6.9276,-6.9211,-6.9178,-6.9112,-6.783,-6.7265,-6.6418,-6.5077,-6.4071,-6.2833,-6.1702,-6.0539,-5.9391,-5.8259,-5.7668,-5.758,-5.6292,-5.6774,-5.7294,-5.6538,-5.6305,-5.5811,-5.5171,-5.4735,-5.3804,-5.395,-5.395,-5.407,-5.4359,-5.4367,-5.3867,-5.344,-5.29,-5.2244,-5.2244,-5.1889,-5.0824,-5.2381,-5.2709,-5.077,-5.036,-5.0333,-5.012,-4.9016,-4.8223,-4.8002,-4.7195,-4.5945,-4.4952,-4.4271,-4.4034,-4.3701,-4.3365,-4.3148,-4.3148,-4.3148,-4.3148,-4.3148,-4.3148,-4.3148,-4.3148,-4.3148,-4.3004,-4.3004,-4.2884,-4.2376,-4.1765,-4.1643,-4.1765,-4.1643,-4.1542,-4.1542,-4.1273,-4.1273,-4.1273,-4.1273,-4.1273,-4.1273,-4.1273,-4.1273,-4.115,-4.115,-4.0778,-4.028,-3.9883,-3.8726,-3.7188,-3.6168,-3.4966,-3.3521,-3.3271,-3.3002,-3.3002,-3.3002,-3.3002,-3.3136,-3.3673,-3.3807,-3.3271,-3.3002,-3.2867,-3.2867,-6.8257,-6.9053,-7.0108,-7.0965,-7.1718,-7.2132,-7.1761,-7.0981,-7.015,-6.9794,-6.9504,-6.9331,-6.9244,-6.9276,-6.9276,-6.9244,-6.9123,-6.8882,-6.8609,-6.8456,-6.768,-6.6393,-6.5,-6.3859,-6.2355,-6.0122,-5.9718,-5.8906,-5.8361,-5.8081,-5.8301,-5.8719,-5.7585,-5.6247,-5.5753,-5.5695,-5.5171,-5.4136,-5.4619,-5.5055,-5.5215,-5.5787,-5.5747,-5.5243,-5.4725,-5.4172,-5.3641,-5.3528,-5.29,-5.2162,-5.3255,-5.2982,-5.1207,-5.0879,-5.0933,-5.012,-4.9339,-4.8517,-4.8386,-4.8138,-4.7445,-4.6403,-4.5484,-4.4835,-4.4176,-4.3485,-4.3148,-4.3148,-4.3148,-4.3148,-4.3148,-4.3148,-4.3148,-4.3148,-4.3148,-4.3148,-4.3125,-4.286,-4.2353,-4.2231,-4.2254,-4.2132,-4.1765,-4.1788,-4.1542,-4.1273,-4.1273,-4.1273,-4.1273,-4.1273,-4.1273,-4.1273,-4.1026,-4.0632,-4.0632,-4.0508,-3.9883,-3.9,-3.7079,-3.5644,-3.5513,-3.4721,-3.3922,-3.3539,-3.3136,-3.3271,-3.3405,-3.3136,-3.302,-3.3405,-3.3539,-3.3136,-3.3002,-3.2867,-3.2867,-6.7728,-6.901,-6.8961,-7.0085,-7.1792,-7.1476,-7.1181,-7.0706,-7.0383,-6.9997,-6.9623,-6.9417,-6.9331,-6.9276,-6.9276,-6.9276,-6.9276,-6.9211,-6.9189,-6.9036,-6.8882,-6.8258,-6.6951,-6.6029,-6.5186,-6.3415,-6.2122,-6.0801,-6.0554,-6.0569,-6.0266,-6.005,-5.8836,-5.7498,-5.6625,-5.6974,-5.6044,-5.5287,-5.5636,-5.6364,-5.6609,-5.7103,-5.7312,-5.6541,-5.6066,-5.5503,-5.496,-5.473,-5.4156,-5.3364,-5.3473,-5.3228,-5.2463,-5.2763,-5.2217,-5.0935,-4.9878,-4.9492,-4.9093,-4.8961,-4.8138,-4.7195,-4.6288,-4.56,-4.4693,-4.3796,-4.3148,-4.3148,-4.3148,-4.3148,-4.3148,-4.3148,-4.3148,-4.3148,-4.3148,-4.3148,-4.3004,-4.2716,-4.2716,-4.2837,-4.286,-4.2109,-4.1497,-4.152,-4.1397,-4.1273,-4.1273,-4.1273,-4.1273,-4.1273,-4.1273,-4.115,-4.0632,-3.9736,-3.9484,-3.9232,-3.8088,-3.7317,-3.54,-3.5269,-3.5004,-3.4872,-3.4474,-3.3941,-3.3673,-3.3539,-3.3673,-3.3441,-3.3109,-3.3056,-3.3136,-3.3002,-3.2867,-3.2956,-3.3544,-6.7392,-6.9854,-6.8485,-6.961,-7.1933,-7.1202,-7.0628,-7.0563,-7.0466,-7.0166,-6.9709,-6.9537,-6.9331,-6.9244,-6.9276,-6.9276,-6.9276,-6.9276,-6.9189,-6.9189,-6.9156,-6.9003,-6.8738,-6.8141,-6.6986,-6.6072,-6.5196,-6.4532,-6.3175,-6.2545,-6.2128,-6.1181,-6.0324,-5.9941,-5.7876,-5.8341,-5.8021,-5.6422,-5.6887,-5.7527,-5.7876,-5.8598,-5.8484,-5.7896,-5.744,-5.6865,-5.6076,-5.5931,-5.5385,-5.4429,-5.4375,-5.4484,-5.473,-5.6532,-5.473,-5.2654,-5.1398,-5.1615,-5.0199,-4.9795,-4.9222,-4.8333,-4.7071,-4.6149,-4.5136,-4.4129,-4.3245,-4.3148,-4.3148,-4.3148,-4.3148,-4.3148,-4.3148,-4.3148,-4.3148,-4.3148,-4.3148,-4.2981,-4.3004,-4.3004,-4.2474,-4.1865,-4.1374,-4.1273,-4.1273,-4.1273,-4.1273,-4.1273,-4.1273,-4.1273,-4.1273,-4.0508,-3.9987,-3.796,-3.7188,-3.654,-3.5907,-3.5644,-3.5136,-3.5004,-3.5004,-3.5004,-3.4607,-3.4341,-3.4208,-3.4074,-3.3911,-3.3578,-3.3217,-3.301,-3.302,-3.3002,-3.301,-3.3723,-3.4507,-6.6072,-6.6893,-6.8734,-6.9583,-7.0135,-7.1792,-7.2086,-7.1297,-7.0854,-7.0399,-6.9846,-6.9504,-6.9244,-6.9276,-6.9276,-6.9276,-6.9276,-6.9276,-6.9276,-6.9276,-6.9244,-6.9244,-6.898,-6.8445,-6.7898,-6.734,-6.6289,-6.514,-6.4276,-6.3255,-6.2168,-6.1366,-6.0144,-5.9272,-5.9068,-5.9243,-5.837,-5.7585,-5.7498,-5.8079,-5.901,-5.9813,-5.9971,-5.9196,-5.8675,-5.8059,-5.7171,-5.7051,-5.6423,-5.5959,-5.615,-5.6723,-5.6887,-5.7297,-5.6204,-5.3583,-5.1644,-5.2081,-5.2024,-5.1994,-5.0741,-4.9752,-4.8281,-4.682,-4.5575,-4.4459,-4.3605,-4.3245,-4.3148,-4.3148,-4.3148,-4.3148,-4.3148,-4.3148,-4.3148,-4.3148,-4.3148,-4.3148,-4.3148,-4.2619,-4.2208,-4.172,-4.1397,-4.1273,-4.1273,-4.1273,-4.1273,-4.1273,-4.1273,-4.1273,-4.0903,-4.0134,-3.8471,-3.6299,-3.5269,-3.5004,-3.5004,-3.5004,-3.5004,-3.5004,-3.5004,-3.4872,-3.4739,-3.4455,-3.4378,-3.4075,-3.3884,-3.3616,-3.3651,-3.3509,-3.3063,-3.3348,-3.4418,-3.522,-3.5576,-6.6143,-6.6946,-6.8272,-6.9387,-7.0368,-7.1649,-7.1925,-7.1497,-7.1252,-7.0693,-7.0066,-6.9676,-6.9417,-6.9244,-6.9276,-6.9276,-6.9276,-6.9276,-6.9276,-6.9276,-6.9276,-6.9276,-6.9156,-6.8892,-6.8478,-6.7931,-6.7434,-6.6579,-6.5278,-6.3966,-6.301,-6.1951,-6.0889,-5.9912,-5.9563,-5.9854,-5.9534,-5.8865,-5.9068,-5.9708,-6.0208,-6.0702,-6.0543,-5.9883,-5.9274,-5.8831,-5.8025,-5.7812,-5.7335,-5.6979,-5.7215,-5.7488,-5.7515,-5.7324,-5.645,-5.4375,-5.3282,-5.3091,-5.2791,-5.2572,-5.167,-5.0607,-4.8616,-4.6969,-4.592,-4.4576,-4.3485,-4.3269,-4.3148,-4.3148,-4.3148,-4.3148,-4.3148,-4.3148,-4.3148,-4.3148,-4.3148,-4.3148,-4.2642,-4.2132,-4.1743,-4.1497,-4.1273,-4.1273,-4.1273,-4.1273,-4.1273,-4.1273,-4.1273,-4.1026,-4.0632,-3.9358,-3.7317,-3.5664,-3.5136,-3.5004,-3.5004,-3.5004,-3.5004,-3.5004,-3.4872,-3.4074,-3.3941,-3.4467,-3.4357,-3.4035,-3.4133,-3.4935,-3.4507,-3.4275,-3.4596,-3.5095,-3.5986,-3.6503,-3.6681,-6.6464,-6.7659,-6.7953,-6.927,-7.1092,-7.1503,-7.1722,-7.1693,-7.1642,-7.1048,-7.0099,-6.9931,-6.959,-6.9331,-6.9244,-6.9276,-6.9276,-6.9276,-6.9276,-6.9276,-6.9276,-6.9276,-6.9276,-6.9068,-6.8925,-6.878,-6.842,-6.7434,-6.6094,-6.507,-6.3613,-6.2701,-6.1608,-6.0755,-6.029,-6.0552,-6.0581,-5.9912,-6.0406,-6.0871,-6.0934,-6.1137,-6.0828,-6.0027,-5.968,-5.9213,-5.8622,-5.8025,-5.7757,-5.785,-5.7636,-5.7543,-5.7543,-5.7543,-5.6669,-5.5385,-5.5139,-5.4812,-5.3883,-5.2982,-5.1917,-5.0719,-4.8927,-4.747,-4.6377,-4.4927,-4.382,-4.3365,-4.3148,-4.3148,-4.3148,-4.3148,-4.3148,-4.3148,-4.3148,-4.3028,-4.2884,-4.2763,-4.2254,-4.1643,-4.1397,-4.1273,-4.1273,-4.1273,-4.1273,-4.1273,-4.1273,-4.115,-4.0383,-3.9736,-3.9358,-3.7703,-3.6057,-3.5532,-3.5004,-3.5004,-3.5004,-3.5004,-3.5004,-3.5004,-3.4341,-3.3539,-3.3431,-3.4281,-3.4538,-3.4935,-3.5543,-3.6299,-3.6245,-3.5755,-3.6325,-3.6949,-3.6984,-3.6931,-3.7252,-6.5858,-6.6198,-6.8606,-6.9872,-7.0567,-7.2655,-7.301,-7.2253,-7.2098,-7.1365,-7.0383,-6.9794,-6.9709,-6.9417,-6.9364,-6.9276,-6.9276,-6.9276,-6.9276,-6.9276,-6.9276,-6.9276,-6.9276,-6.9189,-6.9101,-6.8901,-6.869,-6.7556,-6.6031,-6.4806,-6.3839,-6.2276,-6.1532,-6.1046,-6.0876,-6.1108,-6.1104,-6.0842,-6.0992,-6.1166,-6.1166,-6.1166,-6.0941,-6.0343,-5.9999,-5.9447,-5.8949,-5.821,-5.7823,-5.7943,-5.7636,-5.7543,-5.7543,-5.7543,-5.7215,-5.7106,-5.686,-5.645,-5.5549,-5.4511,-5.3419,-5.3419,-5.0294,-4.8021,-4.6718,-4.5368,-4.4271,-4.3605,-4.3148,-4.3148,-4.3148,-4.3148,-4.3148,-4.3125,-4.3148,-4.2907,-4.2422,-4.1788,-4.1643,-4.1273,-4.1273,-4.1273,-4.1273,-4.1273,-4.1273,-4.1273,-4.115,-4.0756,-3.9085,-3.7939,-3.6929,-3.5532,-3.54,-3.5136,-3.5004,-3.5004,-3.5004,-3.5004,-3.5004,-3.4607,-3.4074,-3.3874,-3.4021,-3.4574,-3.5597,-3.6587,-3.7421,-3.727,-3.7154,-3.727,-3.7376,-3.7305,-3.7341,-3.7394,-3.7412,-6.5663,-6.5806,-6.7861,-6.8739,-6.9153,-7.1689,-7.2408,-7.1794,-7.2017,-7.1642,-7.0807,-7.0099,-6.9709,-6.9537,-6.9331,-6.9276,-6.9276,-6.9276,-6.9276,-6.9276,-6.9276,-6.9276,-6.9276,-6.9189,-6.9101,-6.8958,-6.869,-6.8082,-6.6675,-6.534,-6.4017,-6.3236,-6.1807,-6.1279,-6.1166,-6.1166,-6.1166,-6.1166,-6.1166,-6.1166,-6.1166,-6.1166,-6.1054,-6.0828,-6.0142,-5.9796,-5.9302,-5.842,-5.809,-5.8118,-5.7784,-5.7543,-5.7543,-5.7543,-5.7543,-5.7543,-5.7543,-5.7106,-5.5877,-5.4593,-5.3333,-5.1391,-4.9016,-4.7297,-4.6035,-4.4811,-4.3939,-4.3365,-4.3148,-4.3148,-4.3148,-4.3172,-4.3004,-4.2884,-4.3004,-4.2786,-4.2155,-4.1542,-4.1273,-4.1273,-4.1273,-4.1273,-4.1273,-4.1273,-4.115,-4.115,-4.1128,-3.9861,-3.8195,-3.665,-3.5381,-3.5004,-3.5004,-3.5004,-3.5004,-3.5004,-3.5004,-3.5004,-3.5004,-3.4607,-3.4204,-3.4419,-3.4761,-3.5724,-3.6838,-3.7926,-3.798,-3.7655,-3.743,-3.7466,-3.7466,-3.7483,-3.7483,-3.7448,-3.7466,-6.6162,-6.6073,-6.7187,-6.7584,-6.7869,-7.0217,-7.1144,-7.0823,-7.1542,-7.142,-7.0981,-7.0266,-6.9846,-6.9676,-6.9331,-6.9276,-6.9276,-6.9276,-6.9276,-6.9276,-6.9276,-6.9276,-6.9276,-6.9276,-6.9189,-6.9013,-6.878,-6.842,-6.7527,-6.5737,-6.4501,-6.3913,-6.2188,-6.1166,-6.1166,-6.1166,-6.1166,-6.1166,-6.1166,-6.1166,-6.1166,-6.1166,-6.1166,-6.1195,-6.0629,-6.0171,-5.9796,-5.8713,-5.8237,-5.8265,-5.7933,-5.7543,-5.7543,-5.7543,-5.7543,-5.7543,-5.7488,-5.6641,-5.4866,-5.4183,-5.284,-5.0443,-4.8785,-4.6918,-4.578,-4.4576,-4.382,-4.3462,-4.3485,-4.3674,-4.3808,-4.3733,-4.3541,-4.3064,-4.3203,-4.3166,-4.2024,-4.1374,-4.1273,-4.1273,-4.1273,-4.1273,-4.1273,-4.1026,-4.0756,-4.1004,-4.0112,-3.8831,-3.7297,-3.5756,-3.5249,-3.5004,-3.5004,-3.5004,-3.5004,-3.5004,-3.5004,-3.5004,-3.5004,-3.4758,-3.4676,-3.4813,-3.6706,-3.7789,-3.8097,-3.7827,-3.7655,-3.7501,-3.7501,-3.7501,-3.7501,-3.7501,-3.7501,-3.7501,-3.7501,-6.7712,-6.7567,-6.7648,-6.7549,-6.7763,-6.9135,-7.0179,-7.0303,-7.0431,-7.0526,-7.0403,-7.0083,-6.9565,-6.9964,-6.9154,-6.9211,-6.9276,-6.9276,-6.9276,-6.9276,-6.9276,-6.9276,-6.9244,-6.9112,-6.8894,-6.8959,-6.9013,-6.838,-6.7303,-6.5773,-6.4532,-6.3554,-6.2108,-6.1279,-6.1166,-6.1166,-6.1166,-6.1166,-6.1166,-6.1166,-6.1166,-6.1166,-6.1166,-6.1195,-6.097,-6.0743,-6.0171,-5.9123,-5.8412,-5.8531,-5.7933,-5.7664,-5.7543,-5.7543,-5.7543,-5.7543,-5.7488,-5.6942,-5.5631,-5.4293,-5.3115,-5.1423,-4.9988,-4.8908,-4.6969,-4.56,-4.4718,-4.4129,-4.4483,-4.4392,-4.4611,-4.5416,-4.4753,-4.3312,-4.3961,-4.3559,-4.206,-4.1273,-4.1273,-4.1273,-4.1273,-4.1273,-4.088,-4.0361,-3.9714,-3.961,-3.8067,-3.6929,-3.6018,-3.5249,-3.5117,-3.5004,-3.5004,-3.5004,-3.5004,-3.5004,-3.5004,-3.5023,-3.5042,-3.5231,-3.5166,-3.6727,-3.8673,-3.9073,-3.8196,-3.7655,-3.7501,-3.7501,-3.7501,-3.7501,-3.7501,-3.7501,-3.7501,-3.7501,-3.7501,-6.935,-6.9089,-6.8974,-6.8835,-6.8879,-6.9913,-7.0466,-7.0512,-7.005,-6.9762,-6.9506,-6.8372,-6.8069,-6.8669,-6.84,-6.8541,-6.9211,-6.9276,-6.9276,-6.9276,-6.9276,-6.9276,-6.9013,-6.8257,-6.7961,-6.7994,-6.7703,-6.7331,-6.6712,-6.5686,-6.4776,-6.3839,-6.2356,-6.1449,-6.1279,-6.1166,-6.1166,-6.1166,-6.1166,-6.1166,-6.1166,-6.1166,-6.1166,-6.1166,-6.1166,-6.097,-6.0429,-5.9241,-5.8531,-5.8412,-5.8293,-5.7933,-5.7543,-5.7543,-5.7543,-5.7543,-5.7543,-5.6669,-5.5003,-5.3583,-5.216,-5.0499,-4.9169,-4.7805,-4.663,-4.5624,-4.5069,-4.4624,-4.4152,-4.3985,-4.4206,-4.5346,-4.5092,-4.3742,-4.2956,-4.2353,-4.1408,-4.1273,-4.1273,-4.1273,-4.1273,-4.1273,-4.115,-3.9987,-3.8831,-3.7554,-3.6038,-3.5513,-3.5004,-3.5004,-3.5004,-3.5004,-3.5004,-3.5004,-3.5004,-3.5004,-3.5004,-3.508,-3.5232,-3.5802,-3.665,-3.8333,-3.9036,-3.8464,-3.7908,-3.7501,-3.7501,-3.7501,-3.7501,-3.7501,-3.7501,-3.7501,-3.7501,-3.7501,-3.7501,-7.0931,-7.0533,-7.0108,-6.986,-6.9707,-7.0075,-7.0404,-7.065,-6.9759,-6.9509,-6.9448,-6.7814,-6.7884,-6.8419,-6.8253,-6.8429,-6.9133,-6.9276,-6.9276,-6.9276,-6.9276,-6.9276,-6.8948,-6.7764,-6.6909,-6.6547,-6.6262,-6.632,-6.6375,-6.5471,-6.4905,-6.447,-6.2868,-6.1836,-6.1279,-6.1166,-6.1166,-6.1166,-6.1166,-6.1166,-6.1166,-6.1166,-6.1166,-6.1166,-6.1166,-6.097,-6.0429,-5.9475,-5.8692,-5.7816,-5.756,-5.6959,-5.5556,-5.5358,-5.5604,-5.6232,-5.6587,-5.5904,-5.3883,-5.2654,-5.1316,-4.9529,-4.8579,-4.7195,-4.6288,-4.5393,-4.4952,-4.4742,-4.3844,-4.3359,-4.413,-4.5346,-4.551,-4.4329,-4.3069,-4.2015,-4.1363,-4.1273,-4.1273,-4.1273,-4.1273,-4.1273,-4.0903,-3.9736,-3.7939,-3.6038,-3.5136,-3.5004,-3.5004,-3.5004,-3.5004,-3.5004,-3.5004,-3.5004,-3.5023,-3.5023,-3.5213,-3.5403,-3.5738,-3.6315,-3.7703,-3.8755,-3.8317,-3.798,-3.7655,-3.7501,-3.7501,-3.7501,-3.7501,-3.7501,-3.7501,-3.7501,-3.7501,-3.7501,-3.7501,-7.2497,-7.2022,-7.0604,-6.9966,-6.9812,-6.9277,-6.9715,-7.0159,-6.9497,-6.9607,-7.0155,-6.9496,-6.9666,-6.9916,-6.9198,-6.9259,-6.9537,-6.9364,-6.9276,-6.9276,-6.9276,-6.9276,-6.9112,-6.7928,-6.6613,-6.5462,-6.51,-6.5438,-6.591,-6.4951,-6.4582,-6.4102,-6.2921,-6.2238,-6.1012,-6.1079,-6.0988,-6.0901,-6.1046,-6.0905,-6.0905,-6.105,-6.105,-6.1046,-6.0963,-6.0738,-6.017,-5.9743,-5.8519,-5.5898,-5.5451,-5.4228,-5.1533,-5.077,-5.2326,-5.4402,-5.4948,-5.3992,-5.2791,-5.2053,-5.1371,-5.0015,-4.9125,-4.8359,-4.6681,-4.5534,-4.4952,-4.4859,-4.382,-4.385,-4.5392,-4.6246,-4.5871,-4.5415,-4.3754,-4.2558,-4.1408,-4.1273,-4.1273,-4.1273,-4.1273,-4.1273,-4.115,-3.9254,-3.7337,-3.5532,-3.5004,-3.5004,-3.5004,-3.5004,-3.5004,-3.5004,-3.5004,-3.5023,-3.5118,-3.5289,-3.6234,-3.6333,-3.6495,-3.718,-3.8171,-3.8105,-3.7655,-3.7655,-3.7501,-3.7501,-3.7501,-3.7501,-3.7501,-3.7501,-3.7501,-3.7501,-3.7501,-3.7501,-3.7501,-7.1597,-7.2235,-7.1582,-7.1752,-7.2415,-7.1343,-7.1198,-7.1217,-6.9568,-6.8957,-6.8921,-6.8271,-6.8191,-6.8765,-6.8603,-6.8848,-6.9504,-6.9331,-6.9276,-6.9276,-6.9276,-6.9276,-6.9112,-6.8619,-6.7271,-6.5364,-6.4887,-6.4476,-6.3882,-6.3616,-6.3076,-6.2019,-6.1147,-6.0138,-5.9001,-5.8894,-5.8923,-5.8923,-5.8981,-5.8923,-5.9068,-5.965,-5.9679,-5.9156,-5.965,-5.9263,-5.8132,-5.7994,-5.7235,-5.581,-5.5061,-5.3426,-5.074,-5.0415,-5.1425,-5.3146,-5.2927,-5.2217,-5.2108,-5.1452,-5.0528,-4.9584,-4.8663,-4.7445,-4.5995,-4.5302,-4.4952,-4.4742,-4.3844,-4.3966,-4.5719,-4.6316,-4.5301,-4.3709,-4.2808,-4.2027,-4.1531,-4.1273,-4.1273,-4.1273,-4.1273,-4.1273,-4.0383,-3.8598,-3.5776,-3.5269,-3.5004,-3.5004,-3.5004,-3.5004,-3.5004,-3.5004,-3.5023,-3.5099,-3.5194,-3.6063,-3.7094,-3.725,-3.7122,-3.7681,-3.798,-3.7655,-3.7501,-3.7501,-3.7501,-3.7501,-3.7501,-3.7501,-3.7501,-3.7501,-3.7501,-3.7501,-3.7501,-3.7501,-3.7501,-7.0686,-7.1537,-7.1946,-7.2704,-7.34,-7.2871,-7.2508,-7.2076,-7.028,-6.9293,-6.8887,-6.8049,-6.8037,-6.8713,-6.8717,-6.9034,-6.9642,-6.9417,-6.9244,-6.9244,-6.9276,-6.9276,-6.9145,-6.8783,-6.7534,-6.5857,-6.5117,-6.4345,-6.3784,-6.3449,-6.2743,-6.1418,-6.033,-5.8997,-5.8079,-5.7574,-5.7527,-5.7527,-5.7527,-5.7527,-5.7585,-5.8312,-5.8341,-5.7672,-5.8254,-5.7692,-5.5663,-5.5415,-5.5233,-5.4566,-5.4027,-5.2734,-5.0822,-5.0333,-5.1125,-5.2436,-5.1207,-5.077,-5.1343,-5.0797,-5.0041,-4.9369,-4.8359,-4.6995,-4.597,-4.5302,-4.4952,-4.4859,-4.3868,-4.3592,-4.4901,-4.5252,-4.4371,-4.246,-4.1888,-4.1643,-4.1251,-4.1273,-4.1273,-4.1273,-4.1273,-4.0508,-3.9085,-3.7297,-3.5136,-3.5004,-3.4853,-3.4721,-3.4739,-3.4607,-3.4739,-3.5004,-3.4967,-3.5023,-3.5607,-3.6532,-3.7254,-3.7432,-3.7305,-3.7619,-3.7655,-3.7501,-3.7501,-3.7501,-3.7501,-3.7501,-3.7501,-3.7501,-3.7501,-3.7501,-3.7501,-3.7501,-3.7501,-3.7501,-3.7501,-6.9954,-7.0037,-7.139,-7.183,-7.2028,-7.2625,-7.2833,-7.2116,-7.1548,-7.0857,-7.0228,-7.0328,-7.0127,-7.0347,-7.0116,-7.0116,-6.9931,-6.9709,-6.9417,-6.9244,-6.9276,-6.9276,-6.9178,-6.8093,-6.7271,-6.7008,-6.5559,-6.534,-6.5834,-6.4602,-6.3567,-6.3141,-6.1103,-5.9496,-5.8342,-5.758,-5.7399,-5.7178,-5.7091,-5.7236,-5.7498,-5.744,-5.7411,-5.7265,-5.7294,-5.6041,-5.3252,-5.3037,-5.2978,-5.2337,-5.1764,-5.097,-5.0493,-5.0333,-5.0387,-5.0578,-5.0442,-5.0333,-5.0415,-5.0281,-5.012,-4.9558,-4.8527,-4.7332,-4.6743,-4.5624,-4.4859,-4.4742,-4.3844,-4.3172,-4.3335,-4.3452,-4.2995,-4.2323,-4.1911,-4.152,-4.1273,-4.1273,-4.1273,-4.1273,-4.115,-3.9463,-3.641,-3.5136,-3.5004,-3.4853,-3.4702,-3.4437,-3.4208,-3.4093,-3.4359,-3.4739,-3.4644,-3.4695,-3.5769,-3.6974,-3.7385,-3.7629,-3.7458,-3.7501,-3.7501,-3.7501,-3.7501,-3.7501,-3.7501,-3.7501,-3.7501,-3.7501,-3.7501,-3.7312,-3.7519,-3.7519,-3.7519,-3.7365,-3.7519,-6.7358,-6.821,-6.8657,-6.9407,-7.041,-7.1297,-7.1413,-7.0981,-7.1352,-7.1207,-7.0611,-7.053,-7.053,-7.0563,-7.0466,-7.0216,-6.9931,-6.9846,-6.9623,-6.9244,-6.9276,-6.9276,-6.9178,-6.875,-6.8553,-6.8323,-6.6989,-6.5836,-6.5308,-6.4533,-6.318,-6.1408,-6.0421,-5.8634,-5.6387,-5.5842,-5.5379,-5.4981,-5.4851,-5.488,-5.4997,-5.5753,-5.5811,-5.5026,-5.488,-5.4215,-5.2994,-5.2808,-5.2635,-5.2055,-5.1409,-5.1097,-5.086,-5.0544,-5.0333,-5.0333,-5.0333,-5.012,-4.9585,-4.9369,-4.8908,-4.7754,-4.6856,-4.6199,-4.5765,-4.5001,-4.4649,-4.4649,-4.3844,-4.3148,-4.3028,-4.2786,-4.2422,-4.2178,-4.1643,-4.1397,-4.1251,-4.1273,-4.115,-4.115,-4.1026,-3.9232,-3.6018,-3.5136,-3.5004,-3.5004,-3.4702,-3.4171,-3.3807,-3.3826,-3.3826,-3.3941,-3.3807,-3.4075,-3.522,-3.6485,-3.719,-3.6993,-3.6717,-3.727,-3.7501,-3.7501,-3.7501,-3.7501,-3.7501,-3.7501,-3.7501,-3.7501,-3.7312,-3.7105,-3.714,-3.7228,-3.7228,-3.7228,-3.7365,-6.5759,-6.6599,-6.6869,-6.7556,-6.8546,-6.9463,-6.9578,-6.9151,-6.9708,-6.9854,-6.9772,-6.9759,-7.006,-7.053,-6.9897,-6.9199,-6.8503,-6.9499,-6.9378,-6.852,-6.9013,-6.9276,-6.9276,-6.9276,-6.9276,-6.9112,-6.829,-6.7317,-6.6275,-6.5517,-6.3879,-6.1556,-6.0332,-5.8381,-5.6001,-5.5044,-5.4599,-5.4088,-5.3796,-5.3572,-5.3746,-5.4415,-5.4502,-5.3757,-5.3572,-5.3375,-5.2908,-5.2808,-5.2635,-5.2055,-5.1512,-5.1097,-5.1097,-5.065,-5.0333,-5.0333,-5.0013,-4.9477,-4.8689,-4.8443,-4.7891,-4.6743,-4.6174,-4.5484,-4.4531,-4.3963,-4.3963,-4.4058,-4.3485,-4.3125,-4.2884,-4.2786,-4.2422,-4.2033,-4.152,-4.1273,-4.115,-4.088,-4.0486,-4.0112,-3.9736,-3.8577,-3.5907,-3.5004,-3.4872,-3.4626,-3.4322,-3.3922,-3.3539,-3.3405,-3.3271,-3.3271,-3.3136,-3.3343,-3.4602,-3.5869,-3.6646,-3.614,-3.5963,-3.6467,-3.6931,-3.6913,-3.7466,-3.7501,-3.7501,-3.7501,-3.7501,-3.7501,-3.7294,-3.6951,-3.6712,-3.6782,-3.6662,-3.6799,-3.7092,-6.5137,-6.5236,-6.6103,-6.6381,-6.6465,-6.7538,-6.7611,-6.7079,-6.7143,-6.7588,-6.8296,-6.8317,-6.9055,-7.006,-6.8887,-6.731,-6.6192,-6.837,-6.8635,-6.7257,-6.8422,-6.9112,-6.9145,-6.9211,-6.9276,-6.9244,-6.9079,-6.8872,-6.8817,-6.7453,-6.5618,-6.3231,-6.1119,-5.9004,-5.694,-5.5511,-5.4884,-5.4694,-5.402,-5.3572,-5.3699,-5.3699,-5.3659,-5.3699,-5.3572,-5.3404,-5.2908,-5.2836,-5.2635,-5.2055,-5.1409,-5.1097,-5.0992,-5.065,-5.0333,-5.0227,-4.9477,-4.8579,-4.7891,-4.7642,-4.7419,-4.6995,-4.606,-4.5044,-4.3605,-4.3389,-4.3269,-4.3125,-4.3148,-4.3004,-4.2763,-4.2642,-4.2376,-4.172,-4.1374,-4.1128,-4.1128,-4.0237,-3.9232,-3.8492,-3.7832,-3.68,-3.5249,-3.5004,-3.4758,-3.4226,-3.3807,-3.3539,-3.3136,-3.2867,-3.2867,-3.2867,-3.3002,-3.3056,-3.3885,-3.4933,-3.5341,-3.509,-3.4895,-3.5166,-3.5683,-3.6307,-3.702,-3.7501,-3.7501,-3.7501,-3.7519,-3.7175,-3.6986,-3.6849,-3.661,-3.6472,-3.6351,-3.6351,-3.6161,-6.4968,-6.5038,-6.5217,-6.5157,-6.4898,-6.5882,-6.5999,-6.5507,-6.6633,-6.6979,-6.692,-6.6842,-6.7077,-6.7379,-6.7043,-6.6486,-6.5951,-6.6458,-6.6349,-6.6005,-6.7059,-6.7665,-6.7764,-6.8685,-6.9276,-6.9276,-6.9211,-6.9123,-6.8905,-6.7539,-6.5086,-6.2301,-6.1137,-5.9441,-5.7088,-5.6003,-5.5265,-5.4789,-5.3991,-5.3572,-5.3572,-5.3572,-5.3572,-5.3572,-5.3572,-5.3404,-5.2908,-5.2664,-5.2332,-5.1691,-5.1173,-5.0782,-5.0544,-5.0439,-5.0333,-5.0333,-4.945,-4.8579,-4.7668,-4.6969,-4.6263,-4.5624,-4.4976,-4.4413,-4.3868,-4.3389,-4.3148,-4.3148,-4.3148,-4.2981,-4.2642,-4.2132,-4.1743,-4.1598,-4.0339,-4.0112,-4.0858,-3.9316,-3.8067,-3.8109,-3.7317,-3.656,-3.54,-3.5004,-3.4739,-3.4093,-3.3826,-3.3405,-3.3002,-3.2867,-3.2867,-3.2867,-3.2867,-3.2885,-3.3181,-3.4133,-3.4596,-3.424,-3.3606,-3.3764,-3.4443,-3.6168,-3.7448,-3.7448,-3.7483,-3.7347,-3.6765,-3.6144,-3.5642,-3.6144,-3.6472,-3.6334,-3.6039,-3.5693,-3.5034,-6.3397,-6.3925,-6.396,-6.3932,-6.3755,-6.3591,-6.347,-6.3626,-6.4577,-6.5102,-6.5066,-6.3389,-6.2987,-6.3591,-6.4194,-6.4354,-6.4194,-6.5062,-6.5123,-6.4567,-6.5644,-6.6186,-6.6252,-6.7139,-6.7383,-6.7501,-6.806,-6.806,-6.7416,-6.7035,-6.4943,-6.1741,-6.1231,-5.9709,-5.7146,-5.6185,-5.5451,-5.4819,-5.3991,-5.3572,-5.3572,-5.3572,-5.3572,-5.3572,-5.3572,-5.3404,-5.2936,-5.2563,-5.2157,-5.1532,-5.1069,-5.065,-5.0333,-5.0333,-5.0333,-5.0227,-4.9125,-4.75,-4.5363,-4.5046,-4.4613,-4.3971,-4.3795,-4.3844,-4.3748,-4.3365,-4.3148,-4.3148,-4.3148,-4.2226,-4.0678,-4.0903,-4.0703,-3.9487,-3.8725,-3.8047,-3.7898,-3.6998,-3.663,-3.667,-3.6299,-3.5513,-3.4872,-3.4607,-3.4455,-3.3941,-3.3539,-3.3271,-3.3002,-3.2867,-3.2867,-3.2732,-3.2326,-3.2191,-3.2379,-3.3463,-3.364,-3.2924,-3.2333,-3.2058,-3.2707,-3.3989,-3.5587,-3.7394,-3.7175,-3.6782,-3.6005,-3.538,-3.505,-3.538,-3.5849,-3.571,-3.5554,-3.5224,-3.3617,-6.1074,-6.2271,-6.2376,-6.2638,-6.2722,-6.0947,-6.0619,-6.1349,-6.1412,-6.2149,-6.2786,-5.9132,-5.8328,-5.9534,-6.0875,-6.1307,-6.1258,-6.3599,-6.3976,-6.2915,-6.3965,-6.464,-6.4739,-6.4936,-6.4936,-6.5199,-6.6252,-6.6252,-6.5216,-6.6054,-6.485,-6.1856,-6.1167,-5.9636,-5.7265,-5.6245,-5.5514,-5.4949,-5.4088,-5.3572,-5.3572,-5.3572,-5.3572,-5.3572,-5.3572,-5.3404,-5.2936,-5.2664,-5.21,-5.1392,-5.0958,-5.054,-5.0138,-5.0223,-5.0333,-5.0333,-4.8507,-4.5931,-4.2533,-4.2484,-4.2679,-4.2385,-4.2941,-4.3061,-4.2894,-4.2587,-4.2564,-4.2538,-4.2468,-4.0833,-3.8169,-3.9221,-3.9328,-3.7439,-3.6823,-3.5744,-3.4081,-3.4193,-3.5058,-3.4815,-3.4419,-3.3963,-3.4037,-3.4208,-3.4056,-3.3521,-3.3136,-3.2867,-3.2867,-3.2732,-3.2597,-3.2462,-3.1647,-3.1118,-3.1783,-3.2326,-3.2467,-3.1887,-3.1101,-3.1065,-3.1011,-3.1401,-3.2079,-3.5793,-3.6505,-3.5766,-3.5229,-3.4884,-3.4834,-3.5073,-3.5224,-3.5067,-3.4736,-3.4579,-3.2824,-6.044,-6.0757,-6.0757,-6.0606,-6.0221,-5.9096,-5.8524,-5.8328,-5.8361,-5.8529,-5.8696,-5.7858,-5.7557,-5.7892,-5.8194,-5.8293,-5.8292,-5.8822,-5.9377,-6.0022,-6.1263,-6.2253,-6.326,-6.4443,-6.4904,-6.4969,-6.5265,-6.5216,-6.4657,-6.3838,-6.2923,-6.1961,-6.0369,-5.9084,-5.7977,-5.6485,-5.579,-5.5514,-5.4318,-5.3572,-5.3572,-5.3572,-5.3572,-5.3572,-5.3572,-5.3404,-5.2936,-5.2664,-5.1705,-5.0025,-5.0467,-4.9929,-4.7921,-4.9322,-5.0333,-5.0169,-4.8304,-4.5755,-4.3119,-4.2133,-4.173,-4.1619,-4.1389,-4.0968,-4.0647,-3.9292,-3.8856,-3.9709,-3.8388,-3.7512,-3.7889,-3.7577,-3.7212,-3.779,-3.6356,-3.4802,-3.3861,-3.2886,-3.2851,-3.3892,-3.3205,-3.2779,-3.317,-3.3789,-3.3789,-3.3118,-3.2867,-3.2867,-3.2732,-3.2208,-3.1937,-3.1783,-3.1238,-3.1118,-3.1783,-3.2055,-3.1783,-3.1494,-3.0981,-3.0723,-3.0723,-3.0723,-3.2139,-3.4407,-3.4558,-3.4053,-3.4684,-3.4168,-3.3952,-3.4867,-3.505,-3.472,-3.3852,-3.3047,-3.1342,-5.8539,-5.9138,-5.905,-5.8782,-5.8485,-5.8201,-5.7815,-5.7255,-5.5981,-5.5378,-5.5378,-5.5378,-5.578,-5.635,-5.635,-5.6719,-5.7389,-5.7188,-5.7451,-5.8006,-5.8658,-5.9232,-5.9915,-6.0629,-6.0914,-6.0902,-6.1493,-6.1414,-6.0701,-6.0505,-6.0218,-5.9981,-5.8839,-5.8096,-5.7774,-5.6485,-5.5606,-5.5328,-5.3074,-5.1565,-5.0983,-5.0983,-5.0983,-5.0954,-5.1565,-5.1665,-5.106,-5.0825,-5.0052,-4.8591,-4.8614,-4.7643,-4.5403,-4.6753,-4.7122,-4.6026,-4.4175,-4.2597,-4.1636,-4.05,-3.9981,-4.0271,-4.0225,-3.9776,-3.8707,-3.7562,-3.7084,-3.7236,-3.6144,-3.5275,-3.5331,-3.5075,-3.4797,-3.478,-3.3963,-3.2984,-3.2262,-3.1548,-3.1866,-3.3121,-3.2264,-3.1717,-3.2707,-3.3253,-3.3405,-3.3002,-3.2867,-3.2714,-3.2444,-3.1783,-3.1118,-3.1238,-3.0981,-3.0998,-3.1374,-3.1374,-3.1238,-3.1101,-3.0844,-3.0723,-3.0723,-3.0723,-3.1372,-3.267,-3.3103,-3.297,-3.282,-3.2387,-3.302,-3.4318,-3.505,-3.4201,-3.3004,-3.2324,-3.1418,-5.6191,-5.74,-5.7068,-5.6941,-5.6956,-5.7338,-5.7266,-5.6682,-5.42,-5.3065,-5.3065,-5.3065,-5.3735,-5.4908,-5.4908,-5.5579,-5.6719,-5.662,-5.6553,-5.6483,-5.6343,-5.6336,-5.6393,-5.6393,-5.6251,-5.6174,-5.732,-5.7107,-5.608,-5.7057,-5.746,-5.7232,-5.6969,-5.6836,-5.6891,-5.5968,-5.506,-5.4195,-5.1267,-4.9238,-4.8103,-4.8074,-4.79,-4.7609,-4.9064,-4.9343,-4.851,-4.8574,-4.8077,-4.6909,-4.6098,-4.4549,-4.2385,-4.312,-4.2677,-4.0628,-3.9279,-3.8784,-3.9428,-3.8609,-3.8235,-3.8748,-3.9214,-3.8754,-3.6697,-3.6487,-3.609,-3.5364,-3.5197,-3.4256,-3.2361,-3.3191,-3.3148,-3.158,-3.136,-3.1007,-3.0278,-3.0397,-3.116,-3.2698,-3.1316,-3.0693,-3.178,-3.2511,-3.2867,-3.2867,-3.2732,-3.2462,-3.1885,-3.1085,-3.049,-3.0673,-3.0723,-3.0723,-3.086,-3.0706,-3.0723,-3.0723,-3.0706,-3.0723,-3.0723,-3.0723,-3.0823,-3.0823,-3.1772,-3.1828,-3.0737,-3.0431,-3.1729,-3.3968,-3.4396,-3.3654,-3.1924,-3.1789,-3.1734,-5.4619,-5.4861,-5.4841,-5.4786,-5.4786,-5.4529,-5.4371,-5.4252,0.0,0.0,0.0,-5.3065,-5.3199,-5.34,-5.3434,-5.3568,-5.3802,-5.3836,-5.4249,-5.4988,-5.4955,-5.5515,-5.6393,-5.6393,-5.6355,-5.6355,-5.6585,-5.6337,-5.5852,-5.608,-5.5989,-5.5658,-5.5367,-5.508,-5.4928,-5.439,-5.3313,-5.164,-5.0329,-4.9703,-4.9471,-4.9442,-4.8335,-4.6074,-4.848,-4.8475,-4.5842,-4.7514,-4.6927,-4.3408,-4.3457,-4.1736,-3.7636,-3.8689,-3.9378,-3.8908,-3.8709,-3.8585,-3.8685,-3.8309,-3.8001,-3.7911,-3.7687,-3.6604,-3.457,-3.4044,-3.4241,-3.5147,-3.5153,-3.4599,-3.3305,-3.2981,-3.275,-3.2384,-3.17,-3.0906,-3.005,-2.9722,-3.032,-3.2107,-3.0336,-2.875,-2.9195,-3.1299,-3.2867,-3.2697,-3.2303,-3.1919,-3.0983,-2.979,-2.9292,-3.034,-3.0523,-3.0673,-3.0723,-3.0723,-3.0723,-3.0723,-3.0723,-3.0723,-3.0723,-3.0723,-3.0723,-3.0723,-3.0873,-3.0434,-2.925,-2.9432,-3.0604,-3.2789,-3.264,-3.1796,-3.0513,-3.0189,-2.984,-5.4623,0.0,-5.413,-5.3961,0.0,-5.3507,-5.2485,-5.1134,-5.0903,-5.1221,-5.1892,-5.1892,-5.2233,-5.2874,-5.3031,-5.2998,-5.2874,-5.2998,-5.3246,-5.356,-5.356,-5.3663,-5.3982,-5.4015,-5.4015,-5.3946,-5.3946,-5.3808,-5.3668,-5.3598,-5.3814,-5.4205,-5.41,-5.3697,-5.3047,-5.3522,-5.2523,-5.0,-4.8541,-4.7522,-4.6911,-4.6911,-4.6301,-4.5026,-4.6681,0.0,0.0,0.0,0.0,0.0,0.0,0.0,0.0,0.0,0.0,-3.8412,-3.4977,-3.2482,-3.148,-3.0944,-3.1599,-3.3388,-3.3212,-3.2373,-3.0979,-3.2011,-3.3459,-3.4953,-3.2957,-3.1636,-3.1596,-3.0897,-3.0509,-3.041,-3.012,-2.976,-2.9558,-2.9082,-2.9275,-3.0174,-2.9142,-2.8215,-2.8251,-3.0924,-3.189,-3.0039,-3.056,-3.1036,-2.9805,-2.8326,-2.7944,-2.9358,-2.9625,-2.9874,-3.0523,-3.0723,-3.0723,-3.0723,-3.0723,-3.0723,-3.0723,-3.0723,-3.0569,-3.0139,-3.0123,-2.9847,-2.9139,-2.9278,-2.9763,-3.0421,-3.0327,-2.9736,-2.9304,-2.8643,-2.8137,-5.3827,-5.3686,-5.3005,-5.2752,-5.266,-5.2314,-5.0793,-4.855,-4.8606,-4.9243,-5.035,-5.035,-5.0927,-5.1877,-5.2133,-5.2099,-5.1882,-5.2072,-5.2116,-5.1973,-5.194,-5.1882,-5.1652,-5.1684,-5.1617,-5.1483,-5.1483,-5.1483,-5.1483,-5.1483,-5.1899,-5.2759,-5.272,-5.2288,-5.1506,0.0,0.0,0.0,-4.6638,-4.5399,-4.4468,-4.441,-4.4178,-4.377,-4.4917,0.0,-4.4216,-4.4268,-4.3974,-4.2829,-3.9355,0.0,0.0,0.0,0.0,0.0,0.0,0.0,0.0,0.0,0.0,0.0,-2.7712,-2.7377,-2.7265,-2.9962,-3.2327,-3.376,-3.0634,-2.8716,-2.9331,-2.8588,-2.8026,-2.8132,-2.817,-2.8214,-2.8454,-2.841,-2.8345,-2.8179,-2.8081,-2.7966,-2.7973,-2.9962,-3.016,-2.7152,-2.8537,-2.9519,-2.8319,-2.7095,-2.6912,-2.8193,-2.8293,-2.8559,-2.9691,-2.9986,-3.0228,-3.0569,-3.0552,-3.0097,-3.0052,-3.0287,-3.0415,-2.9432,-2.9416,-2.9555,-2.9539,-2.9401,-2.9155,-2.846,-2.8335,-2.8274,-2.7828,-2.7346,-2.7325,-4.9459,-4.9459,-4.9313,-4.9256,-4.92,-4.9062,-4.8804,-4.8436,-4.855,-4.8673,-4.8875,-4.8875,-4.8975,-4.9119,-4.9143,-4.9119,-4.8946,-4.8888,-4.9257,-5.0105,-5.0012,-5.0508,-5.155,-5.155,-5.1583,-5.1483,-5.1483,-5.1383,-5.1214,-5.1182,-5.1175,-5.1225,-5.088,-5.0634,-5.0451,-4.8898,-4.6959,-4.4829,-4.554,-4.5806,-4.5661,-4.5632,-4.4532,-4.248,-4.4289,-4.4128,-4.1556,-4.305,-4.2899,-4.0538,-4.1517,-4.154,-4.0045,-3.9053,-3.5074,0.0,-2.8096,0.0,0.0,0.0,0.0,0.0,0.0,0.0,0.0,-2.7568,-2.9858,-3.0104,-2.9559,-2.8801,-2.7762,-2.7156,-2.6902,-2.7059,-2.7239,-2.7066,-2.6362,-2.7064,-2.775,-2.8126,-2.7716,-2.7099,-2.6615,-2.6766,-2.7035,-2.6564,-2.7522,-2.7874,-2.6762,-2.6412,-2.6762,-2.831,-2.7411,-2.6812,-2.709,-2.8131,-2.9298,-3.0179,-2.9218,-2.8005,-2.8033,-2.9374,-3.0244,-2.8969,-2.9092,-2.9523,-2.9539,-2.8953,-2.8568,-2.8444,-2.818,-2.752,-2.6207,-2.6717,-2.8135,-4.8873,-4.8784,-4.8573,-4.7501,-4.5889,-4.5834,-4.5834,-4.5834,-4.5856,-4.5856,-4.5977,-4.6689,-4.7465,-4.799,-4.814,-4.8056,-4.788,-4.788,-4.8091,-4.844,-4.8378,-4.855,-4.8946,-4.8946,-4.8946,-4.8946,-4.8946,-4.8913,-4.9043,-4.9758,-4.9494,-4.8286,-4.948,-4.7989,-4.4026,-4.5194,-4.547,-4.4591,-4.539,-4.5864,-4.5864,-4.5864,-4.5258,-4.4108,-4.4755,-4.4329,-4.2744,-4.332,-4.2597,-4.0348,-4.2105,-4.1954,-3.9228,-3.6497,-3.1308,0.0,0.0,0.0,0.0,0.0,0.0,0.0,0.0,0.0,0.0,0.0,-2.4986,-1.7538,-2.1307,-2.4731,-2.5971,-2.4807,-2.4028,-2.3891,-2.31,-2.3081,-2.4447,-2.4744,-2.5756,-2.7948,-2.6962,-2.606,-2.628,-2.6263,-2.6263,-2.6263,-2.6645,-2.6659,-2.5906,-2.6044,-2.6479,-2.7145,-2.6695,-2.6263,-2.6263,-2.7224,-2.8287,-2.8733,-2.7257,-2.5992,-2.6302,-2.6843,-2.7404,-2.7905,-2.8905,-2.9193,-2.7993,-2.7584,-2.761,-2.7905,-2.6791,-2.5478,-2.5385,-2.5871,-2.663,-4.7813,-4.7638,-4.6654,-4.5048,-4.3129,-4.3214,-4.338,-4.3679,-4.3712,-4.3712,-4.3778,-4.4894,-4.5259,-4.5092,-4.4092,-4.4081,-4.4783,-4.4898,-4.5561,-4.6751,-4.6723,-4.6735,-4.681,-4.681,-4.681,-4.6843,-4.6652,-4.6715,-4.7158,-4.7974,-4.7136,-4.4768,-4.6179,-4.3917,-3.7996,-4.1096,-4.3301,-4.4247,-4.4741,-4.4992,-4.4992,-4.4909,-4.4856,-4.4719,-4.4242,-4.3733,-4.3274,-4.2779,-4.1751,-4.0093,-4.0333,-3.9252,-3.6483,-3.3675,0.0,0.0,0.0,0.0,0.0,0.0,0.0,0.0,0.0,-1.7797,-1.3999,0.0,-1.9022,0.0,-1.4962,-2.1455,-2.503,-2.315,0.0,0.0,-1.9336,-1.8786,-1.9898,-2.144,-2.3515,-2.6424,-2.5255,-2.4552,-2.521,-2.583,-2.6263,-2.6246,-2.5847,-2.5401,-2.5102,-2.5663,-2.6263,-2.6296,-2.6279,-2.6145,-2.6093,-2.6544,-2.6861,-2.6845,-2.5631,-2.4653,-2.5011,-2.4772,-2.5089,-2.6957,-2.8235,-2.8,-2.6302,-2.5927,-2.636,-2.6972,-2.5548,-2.4139,-2.5275,-2.5348,-2.5282,-4.4117,-4.3884,-4.1141,-4.0545,-4.1414,-4.1503,-4.2348,-4.3551,-4.3659,-4.3712,-4.3712,-4.3898,-4.1706,-3.7742,-3.3597,0.0,-3.7245,-3.7148,-3.9869,-4.4926,-4.4778,-4.5427,-4.6621,-4.6653,-4.6653,-4.6653,-4.6008,-4.6105,-4.6621,-4.594,-4.3816,-4.0399,-3.9223,-3.7497,-3.5288,-3.6348,-3.881,-4.2306,-4.2404,-4.2491,-4.2462,-4.2199,-4.2013,-4.1884,-4.1429,-4.1083,-4.0867,-3.9875,-3.9146,-3.8697,-3.5066,-3.2892,-3.2527,0.0,0.0,0.0,0.0,0.0,0.0,0.0,0.0,0.0,0.0,0.0,0.0,0.0,0.0,0.0,-1.5309,0.0,-2.588,-2.2875,0.0,0.0,0.0,-1.4964,-1.0413,-1.634,-2.1252,-2.2364,0.0,0.0,-2.2351,-2.4582,-2.6263,-2.6263,-2.4567,-2.3519,-2.4157,-2.5414,-2.6263,-2.6145,-2.6263,-2.6028,-2.5486,-2.5033,-2.4949,-2.4949,-2.4626,-2.4456,-2.4456,-2.4487,-2.5045,-2.6225,-2.6597,-2.6287,-2.4952,-2.4735,-2.4735,-2.4831,-2.5515,-2.5774,-2.4969,-2.5416,-2.5765,-3.9684,-3.5312,-3.3977,-3.4613,-3.6531,-3.5848,-3.7864,-4.1633,-4.0877,-3.9652,-3.8089,-3.8089,-3.5115,-3.0008,-2.8186,0.0,0.0,0.0,-3.3764,-3.9323,-3.9301,-4.0938,-4.3948,-4.4077,-4.4045,-4.4045,-4.3803,-4.3681,-4.362,-4.4037,-3.848,-2.7542,0.0,0.0,-2.5894,-3.1174,-3.5126,-3.7547,-4.0571,-4.2171,-4.2171,-4.1909,-4.1597,-4.131,-4.0854,-4.0559,-4.0151,-3.9656,-3.7748,-3.4281,-3.3552,-2.9361,0.0,0.0,0.0,0.0,0.0,0.0,0.0,0.0,0.0,0.0,0.0,-1.3412,-1.0615,0.0,0.0,0.0,-1.181,-1.5637,-1.9989,-1.8692,0.0,0.0,0.0,0.0,0.0,0.0,0.0,-2.1499,-1.9676,-1.7467,-1.6405,-2.0951,-2.4428,-2.4356,-2.3291,-2.2703,-2.3553,0.0,-2.5335,-2.5572,-2.5351,-2.5114,-2.4876,-2.4653,-2.4533,-2.4533,-2.3866,-2.3178,-2.3178,-2.4006,-2.4704,-2.5062,-2.5325,-2.5031,-2.4642,-2.3982,-2.3785,-2.4409,-2.4861,-2.5085,-2.4661,-2.4952,-2.5201,-3.3691,0.0,0.0,0.0,0.0,-2.97,-3.195,-3.6078,-3.5151,-3.3682,-3.1845,-3.1845,0.0,0.0,0.0,0.0,0.0,0.0,-2.9866,-3.4943,-3.6836,-3.9224,-4.2133,-4.2313,-4.2339,-4.2339,-4.2016,-4.0984,-3.9314,-3.848,-3.1536,-1.9036,0.0,0.0,0.0,0.0,-3.1584,-3.3965,-3.8623,-4.1066,-4.099,-4.0659,-4.0353,-3.9916,-3.9574,-3.9258,-3.8858,-3.7472,-3.4658,-3.0297,-2.8741,0.0,0.0,0.0,0.0,0.0,0.0,0.0,0.0,0.0,0.0,0.0,0.0,0.0,0.0,0.0,0.0,0.0,0.0,0.0,-1.5964,-1.5379,-1.4077,0.0,0.0,0.0,0.0,0.0,0.0,0.0,0.0,0.0,-1.513,-1.8878,-2.1854,0.0,0.0,-2.1785,-2.2479,-2.3065,-2.3655,-2.452,-2.46,0.0,-2.3405,-2.3914,-2.4533,-2.4533,-2.3595,-2.2669,-2.1897,-2.3339,-2.4533,-2.4549,-2.4533,-2.4136,-2.341,-2.2298,-2.2142,-2.3851,-2.3374,-2.2782,-2.3188,-2.3734,-2.4076,0.0,0.0,0.0,0.0,0.0,0.0,0.0,0.0,-2.6056,-2.5959,0.0,-2.5767,0.0,0.0,0.0,0.0,0.0,-2.4275,0.0,0.0,-3.8978,-4.1946,-4.1533,-4.1946,-4.2274,-4.2281,-4.1016,-3.8141,-3.3591,-2.7905,0.0,0.0,0.0,0.0,0.0,0.0,-2.7941,-3.2427,-3.6441,-3.8378,-3.8294,-3.7908,-3.7562,-3.7299,-3.6902,-3.6605,-3.6242,-3.2285,-2.9221,-2.7661,-1.8748,0.0,0.0,0.0,0.0,0.0,0.0,0.0,0.0,0.0,0.0,0.0,0.0,0.0,0.0,0.0,0.0,0.0,0.0,0.0,0.0,-1.3976,0.0,0.0,0.0,0.0,0.0,0.0,0.0,0.0,0.0,0.0,-2.0587,-1.917,-1.8572,-2.1636,0.0,0.0,0.0,0.0,-2.1213,-2.2951,-2.3959,-2.348,-2.0723,-2.2578,-2.4367,-2.4487,0.0,0.0,-2.0847,-2.2576,-2.4182,-2.4398,-2.4471,-2.3695,-2.0939,-1.859,-1.8723,-2.3049,-2.1016,-1.8933,-1.9921,-2.1453,-2.2669,0.0,0.0,0.0,0.0,0.0,0.0,0.0,0.0,0.0,-2.1824,0.0,-2.0405,0.0,0.0,0.0,0.0,0.0,0.0,0.0,0.0,-2.9731,-3.234,-3.3314,-3.6145,-3.5648,0.0,-3.1979,-2.8484,0.0,0.0,0.0,0.0,0.0,0.0,0.0,0.0,-2.5685,-2.8774,-3.5016,-3.8204,-3.805,-3.7736,-3.7376,-3.713,-3.6717,-3.4782,-3.1379,-3.0104,-2.7631,0.0,0.0,0.0,0.0,0.0,0.0,0.0,0.0,0.0,0.0,0.0,0.0,0.0,0.0,0.0,0.0,0.0,0.0,0.0,0.0,0.0,0.0,0.0,-1.0221,0.0,0.0,0.0,0.0,0.0,0.0,0.0,0.0,0.0,-1.2745,-1.5507,-1.8263,-2.0631,-2.0735,-2.0636,-2.0552,0.0,0.0,0.0,0.0,0.0,0.0,0.0,-1.9252,-2.1437,-2.188,-2.0658,-1.7071,-1.5109,-1.5996,-2.2049,0.0,0.0,-1.6396,-1.6107,-1.704,-1.8089,-1.7345,-1.6506,-1.6634,-1.7125,-1.7184,0.0,0.0,0.0,0.0,0.0,0.0,0.0,0.0,0.0,-1.6004,-1.4683,0.0,0.0,0.0,0.0,0.0,0.0,0.0,0.0,0.0,0.0,0.0,-2.7295,-3.0117,0.0,0.0,0.0,0.0,0.0,0.0,0.0,0.0,0.0,0.0,0.0,0.0,-2.4589,-2.677,-3.4279,-3.8092,-3.7736,-3.7448,-3.7158,-3.6836,-3.6419,-3.3799,-2.8738,0.0,0.0,0.0,0.0,0.0,0.0,0.0,0.0,0.0,0.0,0.0,0.0,0.0,0.0,0.0,0.0,0.0,0.0,0.0,0.0,0.0,0.0,0.0,0.0,0.0,-1.192,0.0,0.0,0.0,0.0,0.0,0.0,0.0,0.0,0.0,0.0,0.0,-1.6739,-2.0018,-1.9828,-1.9658,-2.026,-2.0452,-2.0652,0.0,0.0,0.0,0.0,0.0,0.0,0.0,0.0,0.0,0.0,0.0,0.0,0.0,0.0,-1.9257,-1.1742,-1.263,-1.4216,-1.299,0.0,0.0,0.0,0.0,0.0,0.0,0.0,0.0,0.0,0.0,0.0,0.0,0.0,0.0,0.0,0.0,0.0,0.0,-0.8554,0.0,0.0,0.0,0.0,0.0,0.0,0.0,0.0,0.0,0.0,0.0,0.0,0.0,0.0,0.0,0.0,0.0,0.0,0.0,0.0,0.0,0.0,-2.4699,-2.6296,-3.4025,-3.7736,-3.713,-3.6966,-3.6772,-3.6372,-3.6071,-3.3657,-2.8684,0.0,0.0,0.0,0.0,0.0,0.0,0.0,0.0,0.0,0.0,0.0,0.0,0.0,0.0,0.0,0.0,0.0,0.0,0.0,0.0,0.0,0.0,0.0,0.0,0.0,0.0,-0.8788,-0.9616,-1.0672,0.0,0.0,0.0,0.0,0.0,0.0,0.0,0.0,0.0,0.0,-1.8194,-1.7684,-2.009,-2.0452,-2.0053,-1.8947,-1.9782,-1.9968,-1.8528,-1.9321,-1.919,0.0,0.0,0.0,0.0,0.0,0.0,0.0,0.0,0.0,0.0,0.0,0.0,0.0,0.0,0.0,0.0,0.0,0.0,0.0,0.0,0.0,0.0,0.0,0.0,0.0,0.0,0.0,0.0,0.0,0.0,0.0,0.0,0.0,0.0,0.0,0.0,0.0,0.0,0.0,0.0,0.0,0.0,0.0,0.0,0.0,0.0,0.0,0.0,0.0,0.0,0.0,0.0,0.0,0.0,-2.4298,-2.6018,-3.3508,-3.7303,-3.6966,-3.6791,-3.6568,-3.6372,-3.6071,-3.363,0.0,0.0,0.0,0.0,0.0,0.0,0.0,0.0,0.0,0.0,0.0,0.0,0.0,0.0,0.0,0.0,0.0,0.0,0.0,0.0,0.0,0.0,0.0,0.0,0.0,0.0,0.0,0.0,-1.1449,-1.0771,-1.0542,0.0,0.0,0.0,0.0,0.0,0.0,0.0,0.0,0.0,0.0,-1.8288,-2.0136,-2.0452,-2.0253,-1.9938,-2.0138,-2.0138,-1.9537,-1.9321,-1.8875,-1.8106,0.0,0.0,0.0,0.0,0.0,0.0,0.0,0.0,0.0,0.0,0.0,0.0,0.0,0.0,0.0,0.0,0.0,0.0,0.0,0.0,0.0,0.0,0.0,0.0,0.0,0.0,0.0,0.0,0.0,0.0,0.0,0.0,0.0,0.0,0.0,0.0,0.0,0.0,0.0,0.0,0.0,0.0,0.0,0.0,0.0,0.0,0.0,0.0,0.0,0.0,0.0,0.0,0.0,-2.4212,-2.576,-3.3218,-3.7011,-3.6698,-3.6596,-3.6419,-3.6249,-3.5816,-3.2695,0.0,0.0,0.0,0.0,0.0,0.0,0.0,0.0,0.0,0.0,0.0,0.0,0.0,0.0,0.0,0.0,0.0,0.0,0.0,0.0,0.0,0.0,0.0,0.0,0.0,0.0,0.0,0.0,-1.1993,-1.2012,-1.1244,0.0,0.0,0.0,0.0,0.0,0.0,0.0,0.0,0.0,0.0,-1.6815,-1.7825,-1.9349,0.0,0.0,-1.9823,-2.0253,-1.9938,-1.9206,-1.7936,-1.594,-1.2745,0.0,0.0,0.0,0.0,0.0,0.0,0.0,0.0,0.0,0.0,0.0,0.0,0.0,0.0,0.0,0.0,0.0,0.0,0.0,0.0,0.0,0.0,0.0,0.0,0.0,0.0,0.0,0.0,0.0,0.0,0.0,0.0,0.0,0.0,0.0,0.0,0.0,0.0,0.0,0.0,0.0,0.0,0.0,0.0,0.0,0.0,0.0,0.0,0.0,0.0,0.0,0.0,0.0,-2.5632,-3.3124,-3.6864,-3.6297,-3.6324,-3.6146,-3.5892,-3.5329,-3.1065,0.0,0.0,0.0,0.0,0.0,0.0,0.0,0.0,0.0,0.0,0.0,0.0,0.0,0.0,0.0,0.0,0.0,0.0,0.0,0.0,0.0,0.0,0.0,0.0,0.0,0.0,0.0,0.0,0.0,0.0,0.0,0.0,0.0,0.0,0.0,0.0,0.0,0.0,0.0,0.0,0.0,-1.4013,-1.4412,-1.7825,-1.9663,0.0,0.0,-2.0191,-1.9672,-1.9118,-1.6868,-1.118,0.0,0.0,0.0,0.0,0.0,0.0,0.0,0.0,0.0,0.0,0.0,0.0,0.0,0.0,0.0,0.0,0.0,0.0,0.0,0.0,0.0,0.0,0.0,0.0,0.0,0.0,0.0,0.0,0.0,0.0,0.0,0.0,0.0,0.0,0.0,0.0,0.0,0.0,0.0,0.0,0.0,0.0,0.0,0.0,0.0,0.0,0.0,0.0,0.0,0.0,0.0,0.0,0.0,0.0,-2.5394,-3.2714,-3.6372,-3.6071,-3.6071,-3.5816,-3.5225,-3.507,0.0,0.0,0.0,0.0,0.0,0.0,0.0,0.0,0.0,0.0,0.0,0.0,0.0,0.0,0.0,0.0,0.0,0.0,0.0,0.0,0.0,0.0,0.0,0.0,0.0,0.0,0.0,-0.9061,0.0,0.0,0.0,0.0,0.0,0.0,0.0,0.0,0.0,0.0,0.0,0.0,0.0,0.0,-1.6103,-1.847,-1.9689,-1.9323,0.0,0.0,-1.9776,-1.7801,-1.8868,-1.8409,0.0,0.0,0.0,0.0,0.0,0.0,0.0,0.0,0.0,0.0,0.0,0.0,0.0,0.0,0.0,0.0,0.0,0.0,0.0,0.0,0.0,0.0,0.0,0.0,0.0,0.0,0.0,0.0,0.0,0.0,0.0,0.0,0.0,0.0,0.0,0.0,0.0,0.0,0.0,0.0,0.0,0.0,0.0,0.0,0.0,0.0,0.0,0.0,0.0,0.0,0.0,0.0,0.0,0.0,-2.1805,-2.4573,-3.0698,-3.4628,-3.594,-3.5919,-3.5816,-3.5406,-3.4837,-3.0759,0.0,0.0,0.0,0.0,0.0,0.0,0.0,0.0,0.0,0.0,0.0,0.0,0.0,0.0,0.0,0.0,0.0,0.0,0.0,0.0,0.0,0.0,0.0,0.0,0.0,0.0,0.0,0.0,0.0,0.0,0.0,0.0,0.0,0.0,0.0,0.0,0.0,0.0,0.0,0.0,0.0,0.0,-1.9148,-1.8761,0.0,0.0,0.0,-1.417,-1.4922,0.0,0.0,0.0,0.0,0.0,0.0,0.0,0.0,0.0,0.0,0.0,0.0,0.0,0.0,0.0,0.0,0.0,0.0,0.0,0.0,0.0,0.0,0.0,0.0,0.0,0.0,0.0,0.0,0.0,0.0,0.0,0.0,0.0,0.0,0.0,0.0,0.0,0.0,0.0,0.0,0.0,0.0,0.0,0.0,0.0,0.0,0.0,0.0,0.0,0.0,0.0,0.0,0.0,0.0,0.0,0.0,0.0,-2.318,-2.8472,-3.2759,-3.5585,-3.594,-3.5837,-3.5549,-3.4418,-3.0605,0.0,0.0,0.0,0.0,0.0,0.0,0.0,0.0,0.0,0.0,0.0,0.0,0.0,0.0,0.0,0.0,0.0,0.0,0.0,0.0,0.0,0.0,0.0,0.0,0.0,0.0,0.0,0.0,0.0,0.0,0.0,0.0,0.0,0.0,0.0,0.0,0.0,0.0,0.0,0.0,0.0,-1.6036,-1.7625,-1.6238,-1.439,0.0,0.0,-0.7202,-1.2095,-1.4407,0.0,0.0,0.0,0.0,0.0,0.0,0.0,0.0,0.0,0.0,0.0,0.0,0.0,0.0,0.0,0.0,0.0,0.0,0.0,0.0,0.0,0.0,0.0,0.0,0.0,0.0,0.0,0.0,0.0,0.0,0.0,0.0,0.0,0.0,0.0,0.0,0.0,0.0,0.0,0.0,0.0,0.0,0.0,0.0,0.0,0.0,0.0,0.0,0.0,0.0,0.0,0.0,0.0,0.0,0.0,0.0,-2.2187,-2.9681,-3.3995,-3.4575,-3.5503,-3.5051,-3.3287,-3.2957,-2.9119,0.0,0.0,0.0,0.0,0.0,0.0,0.0,0.0,0.0,0.0,0.0,0.0,0.0,0.0,0.0,0.0,0.0,0.0,0.0,0.0,0.0,0.0,0.0,0.0,0.0,0.0,0.0,0.0,0.0,0.0,0.0,0.0,0.0,0.0,0.0,0.0,0.0,0.0,0.0,0.0,0.0,-1.5063,-1.5428,-1.43,0.0,0.0,0.0,0.0,-1.2081,-1.6525,0.0,0.0,0.0,0.0,0.0,0.0,0.0,0.0,0.0,0.0,0.0,0.0,0.0,0.0,0.0,0.0,0.0,0.0,0.0,0.0,0.0,0.0,0.0,0.0,0.0,0.0,0.0,0.0,0.0,0.0,0.0,0.0,0.0,0.0,0.0,0.0,0.0,0.0,0.0,0.0,0.0,0.0,0.0,0.0,0.0,0.0,0.0,0.0,0.0,0.0,0.0,0.0,0.0,0.0,0.0,0.0,-2.3399,-2.8303,-3.1703,-3.3318,-3.3947,-3.3659,-3.2366,-3.1732,-2.8198,0.0,0.0,0.0,0.0,0.0,0.0,0.0,0.0,0.0,0.0,0.0,0.0,0.0,0.0,0.0,0.0,0.0,0.0,0.0,0.0,0.0,0.0,0.0,0.0,0.0,0.0,0.0,0.0,0.0,0.0,0.0,0.0,0.0,0.0,0.0,0.0,0.0,0.0,0.0,0.0,-1.3136,-1.4606,-1.5428,0.0,0.0,0.0,0.0,0.0,0.0,-1.443,-1.5268,0.0,0.0,0.0,0.0,0.0,0.0,0.0,0.0,0.0,0.0,0.0,0.0,0.0,0.0,0.0,0.0,0.0,0.0,0.0,0.0,0.0,0.0,0.0,0.0,0.0,0.0,0.0,0.0,0.0,0.0,0.0,0.0,0.0,0.0,0.0,0.0,0.0,0.0,0.0,0.0,0.0,0.0,0.0,0.0,0.0,0.0,0.0,0.0,0.0,0.0,0.0,0.0,0.0,0.0,0.0,-2.4001,-2.6054,-2.8648,-3.2035,-3.2267,-3.2034,-3.149,-3.0488,-2.7172,-2.1539,0.0,0.0,0.0,0.0,0.0,0.0,0.0,0.0,0.0,0.0,0.0,0.0,0.0,0.0,0.0,0.0,0.0,0.0,0.0,0.0,0.0,0.0,0.0,0.0,0.0,0.0,0.0,0.0,0.0,0.0,0.0,0.0,0.0,0.0,0.0,0.0,0.0,0.0,0.0,-1.1675,-1.3255,0.0,0.0,0.0,0.0,0.0,0.0,0.0,0.0,-1.3341,0.0,0.0,0.0,0.0,0.0,0.0,0.0,0.0,0.0,0.0,0.0,0.0,0.0,0.0,0.0,0.0,0.0,0.0,0.0,0.0,0.0,0.0,0.0,0.0,0.0,0.0,0.0,0.0,0.0,0.0,0.0,0.0,0.0,0.0,0.0,0.0,0.0,0.0,0.0,0.0,0.0,0.0,0.0,0.0,0.0,0.0,0.0,0.0,0.0,0.0,0.0,0.0,0.0,0.0,0.0,0.0,-2.4357,-2.8179,-3.0556,-3.1139,-3.0708,-2.9147,-2.8517,-2.5441,-1.9718,0.0,0.0,0.0,0.0,0.0,0.0,0.0,0.0,0.0,0.0,0.0,0.0,0.0,0.0,0.0,0.0,0.0,0.0,0.0,0.0,0.0,0.0,0.0,0.0,0.0,0.0,0.0,0.0,0.0,0.0,0.0,0.0,0.0,0.0,0.0,0.0,0.0,0.0,-0.7804,-0.7796,0.0,0.0,0.0,0.0,0.0,0.0,0.0,0.0,-1.0929,0.0,0.0,0.0,0.0,0.0,0.0,0.0,0.0,0.0,0.0,0.0,0.0,0.0,0.0,0.0,0.0,0.0,0.0,0.0,0.0,0.0,0.0,0.0,0.0,0.0,0.0,0.0,0.0,0.0,0.0,0.0,0.0,0.0,0.0,0.0,0.0,0.0,0.0,0.0,0.0,0.0,0.0,0.0,0.0,0.0,0.0,0.0,0.0,0.0,0.0,0.0,0.0,0.0,0.0,0.0,0.0,0.0,0.0,-2.6037,-2.8867,-2.9024,-2.8518,-2.7446,-2.5438,-2.2268,0.0,0.0,0.0,0.0,0.0,0.0,0.0,0.0,0.0,0.0,0.0,0.0,0.0,0.0,0.0,0.0,0.0,0.0,0.0,0.0,0.0,0.0,0.0,0.0,0.0,0.0,0.0,0.0,0.0,0.0,0.0,0.0,0.0,0.0,0.0,0.0,0.0,0.0,0.0,0.0,0.0,0.0,0.0,0.0,0.0,0.0,0.0,0.0,0.0,0.0,0.0,0.0,0.0,0.0,0.0,0.0,0.0,0.0,0.0,0.0,0.0,0.0,0.0,0.0,0.0,0.0,0.0,0.0,0.0,0.0,0.0,0.0,0.0,0.0,0.0,0.0,0.0,0.0,0.0,0.0,0.0,0.0,0.0,0.0,0.0,0.0,0.0,0.0,0.0,0.0,0.0,0.0,0.0,0.0,0.0,0.0,0.0,0.0,0.0,0.0,0.0,0.0,0.0,0.0,0.0,0.0,0.0,0.0,-2.3919,-2.7577,-2.7149,-2.67,-2.6112,-2.2841,-1.9543,0.0,0.0,0.0,0.0,0.0,0.0,0.0,0.0,0.0,0.0,0.0,0.0,0.0,0.0,0.0,0.0,0.0,0.0,0.0,0.0,0.0,0.0,0.0,0.0,0.0,0.0,0.0,0.0,0.0,0.0,0.0,0.0,0.0,0.0,0.0,0.0,0.0,0.0,0.0,0.0,0.0,0.0,0.0,0.0,0.0,0.0,0.0,0.0,-0.5599,0.0,0.0,0.0,0.0,0.0,0.0,0.0,0.0,0.0,0.0,0.0,0.0,0.0,0.0,0.0,0.0,0.0,0.0,0.0,0.0,0.0,0.0,0.0,0.0,0.0,0.0,0.0,0.0,0.0,0.0,0.0,0.0,0.0,0.0,0.0,0.0,0.0,0.0,0.0,0.0,0.0,0.0,0.0,0.0,0.0,0.0,0.0,0.0,0.0,0.0,0.0,0.0,0.0,0.0,0.0,0.0,0.0,0.0,0.0,-2.3287,-2.7336,-2.6854,-2.6046,-2.5198,-2.1812,-1.8906,0.0,0.0,0.0,0.0,0.0,0.0,0.0,0.0,0.0,0.0,0.0,0.0,0.0,0.0,0.0,0.0,0.0,0.0,0.0,0.0,0.0,0.0,0.0,0.0,0.0,0.0,0.0,0.0,0.0,0.0,0.0,0.0,0.0,0.0,0.0,0.0,0.0,0.0,0.0,0.0,0.0,0.0,0.0,0.0,0.0,0.0,0.0,0.0,0.0,0.0,0.0,0.0,0.0,0.0,0.0,0.0,0.0,0.0,0.0,0.0,0.0,0.0,0.0,0.0,0.0,0.0,0.0,0.0,0.0,0.0,0.0,0.0,0.0,0.0,0.0,0.0,0.0,0.0,0.0,0.0,0.0,0.0,0.0,0.0,0.0,0.0,0.0,0.0,0.0,0.0,0.0,0.0,0.0,0.0,0.0,0.0,0.0,0.0,0.0,0.0,0.0,0.0,0.0,0.0,0.0,0.0,0.0,0.0,-2.0272,-2.4462,-2.5273,-2.447,-2.208,-1.8797,-1.6198,0.0,0.0,0.0,0.0,0.0,0.0,0.0,0.0,0.0,0.0,0.0,0.0,0.0,0.0,0.0,0.0,0.0,0.0,0.0,0.0,0.0,0.0,0.0,0.0,0.0,0.0,0.0,0.0,0.0,0.0,0.0,0.0,0.0,0.0,0.0,0.0,0.0,0.0,0.0,0.0,0.0,0.0,0.0,0.0,0.0,0.0,0.0,0.0,0.0,0.0,0.0,0.0,0.0,0.0,0.0,0.0,0.0,0.0,0.0,0.0,0.0,0.0,0.0,0.0,0.0,0.0,0.0,0.0,0.0,0.0,0.0,0.0,0.0,0.0,0.0,0.0,0.0,0.0,0.0,0.0,0.0,0.0,0.0,0.0,0.0,0.0,0.0,0.0,0.0,0.0,0.0,0.0,0.0,0.0,0.0,0.0,0.0,0.0,0.0,0.0,0.0,0.0,0.0,0.0,0.0,0.0,0.0,0.0,0.0,-2.1194,-2.3228,-2.2627,-1.9516,-1.6408,-1.3555,0.0,0.0,0.0,0.0,0.0,0.0,0.0,0.0,0.0,0.0,0.0,0.0,0.0,0.0,0.0,0.0,0.0,0.0,0.0,0.0,0.0,0.0,0.0,0.0,0.0,0.0,0.0,0.0,0.0,0.0,0.0,0.0,0.0,0.0,0.0,0.0,0.0,0.0,0.0,0.0,0.0,0.0,0.0,0.0,0.0,0.0,0.0,0.0,0.0,0.0,0.0,0.0,0.0,0.0,0.0,0.0,0.0,0.0,0.0,0.0,0.0,0.0,0.0,0.0,0.0,0.0,0.0,0.0,0.0,0.0,0.0,0.0,0.0,0.0,0.0,0.0,0.0,0.0,0.0,0.0,0.0,0.0,0.0,0.0,0.0,0.0,0.0,0.0,0.0,0.0,0.0,0.0,0.0,0.0,0.0,0.0,0.0,0.0,0.0,0.0,0.0,0.0,0.0,0.0,0.0,0.0,0.0,0.0,0.0,-1.8119,-2.0627,-2.0778,-1.8357,-1.5601,-1.1483,0.0,0.0,0.0,0.0,0.0,0.0,0.0,0.0,0.0,0.0,0.0,0.0,0.0,0.0,0.0,0.0,0.0,0.0,0.0,0.0,0.0,0.0,0.0,0.0,0.0,0.0,0.0,0.0,0.0,0.0,0.0,0.0,0.0,0.0,0.0,0.0,0.0,0.0,0.0,0.0,0.0,0.0,0.0,0.0,0.0,0.0,0.0,0.0,0.0,0.0,0.0,0.0,0.0,0.0,0.0,0.0,0.0,0.0,0.0,0.0,0.0,0.0,0.0,0.0,0.0,0.0,0.0,0.0,0.0,0.0,0.0,0.0,0.0,0.0,0.0,0.0,0.0,0.0,0.0,0.0,0.0,0.0,0.0,0.0,0.0,0.0,0.0,0.0,0.0,0.0,0.0,0.0,0.0,0.0,0.0,0.0,0.0,0.0,0.0,0.0,0.0,0.0,0.0,0.0,0.0,0.0,0.0,0.0,0.0,-1.1698,-1.5108,-1.6479,-1.5393,-1.089,-0.7817,-0.6533,0.0,0.0,0.0,0.0,0.0,0.0,0.0,0.0,0.0,0.0,0.0,0.0,0.0,0.0,0.0,0.0,0.0,0.0,0.0,0.0,0.0,0.0,0.0,0.0,0.0,0.0,0.0,0.0,0.0,0.0,0.0,0.0,0.0,0.0,0.0,0.0,0.0,0.0,0.0,0.0,0.0,0.0,0.0,0.0,0.0,0.0,0.0,0.0,0.0,0.0,0.0,0.0,0.0,0.0,0.0,0.0,0.0,0.0,0.0,0.0,0.0,0.0,0.0,0.0,0.0,0.0,0.0,0.0,0.0,0.0,0.0,0.0,0.0,0.0,0.0,0.0,0.0,0.0,0.0,0.0,0.0,0.0,0.0,0.0,0.0,0.0,0.0,0.0,0.0,0.0,0.0,0.0,0.0,0.0,0.0,0.0,0.0,0.0,0.0,0.0,0.0,0.0,0.0,0.0,0.0,0.0,0.0,0.0,-0.9077,-1.256,-1.3978,-1.2986,-0.9371,-0.6929,0.0,0.0,0.0,0.0,0.0,0.0,0.0,0.0,0.0,0.0,0.0,0.0,0.0,0.0,0.0,0.0,0.0,0.0,0.0,0.0,0.0,0.0,0.0,0.0,0.0,0.0,0.0,0.0,0.0,0.0,0.0,0.0,0.0,0.0,0.0,0.0,0.0,0.0,0.0,0.0,0.0,0.0,0.0,0.0,0.0,0.0,0.0,0.0,0.0,0.0,0.0,0.0,0.0,0.0,0.0,0.0,0.0,0.0,0.0,0.0,0.0,0.0,0.0,0.0,0.0,0.0,0.0,0.0,0.0,0.0,0.0,0.0,0.0,0.0,0.0,0.0,0.0,0.0,0.0,0.0,0.0,0.0,0.0,0.0,0.0,0.0,0.0,0.0,0.0,0.0,0.0,0.0,0.0,0.0,0.0,0.0,0.0,0.0,0.0,0.0,0.0,0.0,0.0,0.0,0.0,0.0,0.0,0.0,-0.8043,-1.1778,-1.3783,-1.3861,-1.201,-1.2204,-0.944,0.0,0.0,0.0,0.0,0.0,0.0,0.0,0.0,0.0,0.0,0.0,0.0,0.0,0.0,0.0,0.0,0.0,0.0,0.0,0.0,0.0,0.0,0.0,0.0,0.0,0.0,0.0,0.0,0.0,0.0,0.0,0.0,0.0,0.0,0.0,0.0,0.0,0.0,0.0,0.0,0.0,0.0,0.0,0.0,0.0,0.0,0.0,0.0,0.0,0.0,0.0,0.0,0.0,0.0,0.0,0.0,0.0,0.0,0.0,0.0,0.0,0.0,0.0,0.0,0.0,0.0,0.0,0.0,0.0,0.0,0.0,0.0,0.0,0.0,0.0,0.0,0.0,0.0,0.0,0.0,0.0,0.0,0.0,0.0,0.0,0.0,0.0,0.0,0.0,0.0,0.0,0.0,0.0,0.0,0.0,0.0,0.0,0.0,0.0,0.0,0.0,0.0,0.0,0.0,0.0,0.0,0.0,0.0,0.0,-0.8135,0.0,-1.203,0.0,-1.2386,-1.1053,0.0,0.0,0.0,0.0,0.0,0.0,0.0,0.0,0.0,0.0,0.0,0.0,0.0,0.0,0.0,0.0,0.0,0.0,0.0,0.0,0.0,0.0,0.0,0.0,0.0,0.0,0.0,0.0,0.0,0.0,0.0,0.0,0.0,0.0,0.0,0.0,0.0,0.0,0.0,0.0,0.0,0.0,0.0,0.0,0.0,0.0,0.0,0.0,0.0,0.0,0.0,0.0,0.0,0.0,0.0,0.0,0.0,0.0,0.0,0.0,0.0,0.0,0.0,0.0,0.0,0.0,0.0,0.0,0.0,0.0,0.0,0.0,0.0,0.0,0.0,0.0,0.0,0.0,0.0,0.0,0.0,0.0,0.0,0.0,0.0,0.0,0.0,0.0,0.0,0.0,0.0,0.0,0.0,0.0,0.0,0.0,0.0,0.0,0.0,0.0,0.0,0.0,0.0,0.0,0.0,0.0,0.0,0.0,0.0,-0.8438,-0.9011,-1.0494,-1.2748,-1.1784,-1.111,0.0,0.0,0.0,0.0,0.0,0.0,0.0,0.0,0.0,0.0,0.0,0.0,0.0,0.0,0.0,0.0,0.0,0.0,0.0,0.0,0.0,0.0,0.0,0.0,0.0,0.0,0.0,0.0,0.0,0.0,0.0,0.0,0.0,0.0,0.0,0.0,0.0,0.0,0.0,0.0,0.0,0.0,0.0,0.0,0.0,0.0,0.0,0.0,0.0,0.0,0.0,0.0,0.0,0.0,0.0,0.0,0.0,0.0,0.0,0.0,0.0,0.0,0.0,0.0,0.0,0.0,0.0,0.0,0.0,0.0,0.0,0.0,0.0,0.0,0.0,0.0,0.0,0.0,0.0,0.0,0.0,0.0,0.0,0.0,0.0,0.0,0.0,0.0,0.0,0.0,0.0,0.0,0.0,0.0,0.0,0.0,0.0,0.0,0.0,0.0,0.0,0.0,0.0,0.0,0.0,0.0,0.0,0.0,0.0,0.0,-1.0054,-0.9389,-1.0265,-1.0573,-0.9795,0.0,0.0,0.0,0.0,0.0,0.0,0.0,0.0,0.0,0.0,0.0,0.0,0.0,0.0,0.0,0.0,0.0,0.0,0.0,0.0,0.0,0.0,0.0,0.0,0.0,0.0,0.0,0.0,0.0,0.0,0.0,0.0,0.0,0.0,0.0,0.0,0.0,0.0,0.0,0.0,0.0,0.0,0.0,0.0,0.0,0.0,0.0,0.0,0.0,0.0,0.0,0.0,0.0,0.0,0.0,0.0,0.0,0.0,0.0,0.0,0.0,0.0,0.0,0.0,0.0,0.0,0.0,0.0,0.0,0.0,0.0,0.0,0.0,0.0,0.0,0.0,0.0,0.0,0.0,0.0,0.0,0.0,0.0,0.0,0.0,0.0,0.0,0.0,0.0,0.0,0.0,0.0,0.0,0.0,0.0,0.0,0.0,0.0,0.0,0.0,0.0,0.0,0.0,0.0,0.0,0.0,0.0,0.0,0.0,0.0,-0.884,0.0,-0.9183,-0.9015,-0.8779,-0.8581,0.0,0.0,0.0,0.0,0.0,0.0,0.0,0.0,0.0,0.0,0.0,0.0,0.0,0.0,0.0,0.0,0.0,0.0,0.0,0.0,0.0,0.0,0.0,0.0,0.0,0.0,0.0,0.0,0.0,0.0,0.0,0.0,0.0,0.0,0.0,0.0,0.0,0.0,0.0,0.0,0.0,0.0,0.0,0.0,0.0,0.0,0.0,0.0,0.0,0.0,0.0,0.0,0.0,0.0,0.0,0.0,0.0,0.0,0.0,0.0,0.0,0.0,0.0,0.0,0.0,0.0,0.0,0.0,0.0,0.0,0.0,0.0,0.0,0.0,0.0,0.0,0.0,0.0,0.0,0.0,0.0,0.0,0.0,0.0,0.0,0.0,0.0,0.0,0.0,0.0,0.0,0.0,0.0,0.0,0.0,0.0,0.0,0.0,0.0,0.0,0.0,0.0,0.0,0.0,0.0,0.0,0.0,0.0,0.0,0.0,0.0,-0.9129,-0.8334,-0.8008,0.0,0.0,0.0,0.0,0.0,0.0,0.0,0.0,0.0,0.0,0.0,0.0,0.0,0.0,0.0,0.0,0.0,0.0,0.0,0.0,0.0,0.0,0.0,0.0,0.0,0.0,0.0,0.0,0.0,0.0,0.0,0.0,0.0,0.0,0.0,0.0,0.0,0.0,0.0,0.0,0.0,0.0,0.0,0.0,0.0,0.0,0.0,0.0,0.0,0.0,0.0,0.0,0.0,0.0,0.0,0.0,0.0,0.0,0.0,0.0,0.0,0.0,0.0,0.0,0.0,0.0,0.0,0.0,0.0,0.0,0.0,0.0,0.0,0.0,0.0,0.0,0.0,0.0,0.0,0.0,0.0,0.0,0.0,0.0,0.0,0.0,0.0,0.0,0.0,0.0,0.0,0.0,0.0,0.0,0.0,0.0,0.0,0.0,0.0,0.0,0.0,0.0,0.0,0.0,0.0,0.0,0.0,0.0,0.0,0.0,0.0,-0.7476,-0.9322,-0.8413,0.0,-0.6967,0.0,0.0,0.0,0.0,0.0,0.0,0.0,0.0,0.0,0.0,0.0,0.0,0.0,0.0,0.0,0.0,0.0,0.0,0.0,0.0,0.0,0.0,0.0,0.0,0.0,0.0,0.0,0.0,0.0,0.0,0.0,0.0,0.0,0.0,0.0,0.0,0.0,0.0,0.0,0.0,0.0,0.0,0.0,0.0,0.0,0.0,0.0,0.0,0.0,0.0,0.0,0.0,0.0,0.0,0.0,0.0,0.0,0.0,0.0,0.0,0.0,0.0,0.0,0.0,0.0,0.0,0.0,0.0,0.0,0.0,0.0,0.0,0.0,0.0,0.0,0.0,0.0,0.0,0.0,0.0,0.0,0.0,0.0,0.0,0.0,0.0,0.0,0.0,0.0,0.0,0.0,0.0,0.0,0.0,0.0,0.0,0.0,0.0,0.0,0.0,0.0,0.0,0.0,0.0,0.0,0.0,0.0,0.0,0.0,0.0,0.0,0.0,-0.8912,-0.8719,-0.6103,0.0,0.0,0.0,0.0,0.0,0.0,0.0,0.0,0.0,0.0,0.0,0.0,0.0,0.0,0.0,0.0,0.0,0.0,0.0,0.0,0.0,0.0,0.0,0.0,0.0,0.0,0.0,0.0,0.0,0.0,0.0,0.0,0.0,0.0,0.0,0.0,0.0,0.0,0.0,0.0,0.0,0.0,0.0,0.0,0.0,0.0,0.0,0.0,0.0,0.0,0.0,0.0,0.0,0.0,0.0,0.0,0.0,0.0,0.0,0.0,0.0,0.0,0.0,0.0,0.0,0.0,0.0,0.0,0.0,0.0,0.0,0.0,0.0,0.0,0.0,0.0,0.0,0.0,0.0,0.0,0.0,0.0,0.0,0.0,0.0,0.0,0.0,0.0,0.0,0.0,0.0,0.0,0.0,0.0,0.0,0.0,0.0,0.0,0.0,0.0,0.0,0.0,0.0,0.0,0.0,0.0,0.0,0.0,0.0,0.0,-0.79,-0.6416,-0.8452,-0.8673,-0.6658,0.0,0.0,0.0,0.0,0.0,0.0,0.0,0.0,0.0,0.0,0.0,0.0,0.0,0.0,0.0,0.0,0.0,0.0,0.0,0.0,0.0,0.0,0.0,0.0,0.0,0.0,0.0,0.0,0.0,0.0,0.0,0.0,0.0,0.0,0.0,0.0,0.0,0.0,0.0,0.0,0.0,0.0,0.0,0.0,0.0,0.0,0.0,0.0,0.0,0.0,0.0,0.0,0.0,0.0,0.0,0.0,0.0,0.0,0.0,0.0,0.0,0.0,0.0,0.0,0.0,0.0,0.0,0.0,0.0,0.0,0.0,0.0,0.0,0.0,0.0,0.0,0.0,0.0,0.0,0.0,0.0,0.0,0.0,0.0,0.0,0.0,0.0,0.0,0.0,0.0,0.0,0.0,0.0,0.0,0.0,0.0,0.0,0.0,0.0,0.0,0.0,0.0,0.0,0.0,0.0,0.0,0.0,0.0,0.0,0.0,0.0,0.0,0.0,0.0,-0.779,0.0,0.0,0.0,0.0,0.0,0.0,0.0,0.0,0.0,0.0,0.0,0.0,0.0,0.0,0.0,0.0,0.0,0.0,0.0,0.0,0.0,0.0,0.0,0.0,0.0,0.0,0.0,0.0,0.0,0.0,0.0,0.0,0.0,0.0,0.0,0.0,0.0,0.0,0.0,0.0,0.0,0.0,0.0,0.0,0.0,0.0,0.0,0.0,0.0,0.0,0.0,0.0,0.0,0.0,0.0,0.0,0.0,0.0,0.0,0.0,0.0,0.0,0.0,0.0,0.0,0.0,0.0,0.0,0.0,0.0,0.0,0.0,0.0,0.0,0.0,0.0,0.0,0.0,0.0,0.0,0.0,0.0,0.0,0.0,0.0,0.0,0.0,0.0,0.0,0.0,0.0,0.0,0.0,0.0,0.0,0.0,0.0,0.0,0.0,0.0,0.0,0.0,0.0,0.0,0.0,0.0,0.0,0.0,0.0,0.0,0.0,0.0,0.0,0.0,0.0,0.0,0.0,0.0,0.0,0.0,0.0,0.0,0.0,0.0,0.0,0.0,0.0,0.0,0.0,0.0,0.0,0.0,0.0,0.0,0.0,0.0,0.0,0.0,0.0,0.0,0.0,0.0,0.0,0.0,0.0,0.0,0.0,0.0,0.0,0.0,0.0,0.0,0.0,0.0,0.0,0.0,0.0,0.0,0.0,0.0,0.0,0.0,0.0,0.0,0.0,0.0,0.0,0.0,0.0,0.0,0.0,0.0,0.0,0.0,0.0,0.0,0.0,0.0,0.0,0.0,0.0,0.0,0.0,0.0,0.0,0.0,0.0,0.0,0.0,0.0,0.0,0.0,0.0,0.0,0.0,0.0,0.0,0.0,0.0,0.0,0.0,0.0,0.0,0.0,0.0,0.0,0.0,0.0,0.0,0.0,0.0,0.0,0.0,0.0,0.0,0.0,0.0,0.0,0.0,0.0,0.0,0.0,0.0,0.0,0.0,0.0,0.0,0.0,0.0,0.0,0.0,0.0,0.0,0.0,0.0,0.0,0.0,0.0,0.0,0.0,0.0,0.0,0.0,0.0,0.0,0.0,0.0,0.0,0.0,0.0,0.0,0.0,0.0,0.0,0.0,0.0,0.0,0.0,0.0,0.0,0.0,0.0,0.0,0.0,0.0,0.0,0.0,0.0,0.0,0.0,0.0,0.0,0.0,0.0,0.0,0.0,0.0,0.0,0.0,0.0,0.0,0.0,0.0,0.0,0.0,0.0,0.0,0.0,0.0,0.0,0.0,0.0,0.0,0.0,0.0,0.0,0.0,0.0,0.0,0.0,0.0,0.0,0.0,0.0,0.0,0.0,0.0,0.0,0.0,0.0,0.0,0.0,0.0,0.0,0.0,0.0,0.0,0.0,0.0,0.0,0.0,0.0,0.0,0.0,0.0,0.0,0.0,0.0,0.0,0.0,0.0,0.0,0.0,0.0,0.0,0.0,0.0,0.0,0.0,0.0,0.0,0.0,0.0,0.0,0.0,0.0,0.0,0.0,0.0,0.0,0.0,0.0,0.0,0.0,0.0,0.0,0.0,0.0,0.0,0.0,0.0,0.0,0.0,0.0,0.0,0.0,0.0,0.0,0.0,0.0,0.0,0.0,0.0,0.0,0.0,0.0,0.0,0.0,0.0,0.0,0.0,0.0,0.0,0.0,0.0,0.0,0.0,0.0,0.0,0.0,0.0,0.0,0.0,0.0,0.0,0.0,0.0,0.0,0.0,0.0,0.0,0.0,0.0,0.0,0.0,0.0,0.0,0.0,0.0,0.0,0.0,0.0,0.0,0.0,0.0,0.0,0.0,0.0,0.0,0.0,0.0,0.0,0.0,0.0,0.0,0.0,0.0,0.0,0.0,0.0,0.0,0.0,0.0,0.0,0.0,0.0,0.0,0.0,0.0,0.0,0.0,0.0,0.0,0.0,0.0,0.0,0.0,0.0,0.0,0.0,0.0,0.0,0.0,0.0,0.0,0.0,0.0,0.0,0.0,0.0,0.0,0.0,0.0,0.0,0.0,0.0,0.0,0.0,0.0,0.0,0.0,0.0,0.0,0.0,0.0,0.0,0.0,0.0,0.0,0.0,0.0,0.0,0.0,0.0,0.0,0.0,0.0,0.0,0.0,0.0,0.0,0.0,0.0,0.0,0.0,0.0,0.0,0.0,0.0,0.0,0.0,0.0,0.0,0.0,0.0,0.0,0.0,0.0,0.0,0.0,0.0,0.0,0.0,0.0,0.0,0.0,0.0,0.0,0.0,0.0,0.0,0.0,0.0,0.0,0.0,0.0,0.0,0.0,0.0,0.0,0.0,0.0,0.0,0.0,0.0,0.0,0.0,0.0,0.0,0.0,0.0,0.0,0.0,0.0,0.0,0.0,0.0,0.0,0.0,0.0,0.0,0.0,0.0,0.0,0.0,0.0,0.0,0.0,0.0,0.0,0.0,0.0,0.0,0.0,0.0,0.0,0.0,0.0,0.0,0.0,0.0,0.0,0.0,0.0,0.0,0.0,0.0,0.0,0.0,0.0,0.0,0.0,0.0,0.0,0.0,0.0,0.0,0.0,0.0,0.0,0.0,0.0,0.0,0.0,0.0,0.0,0.0,0.0,0.0,0.0,0.0,0.0,0.0,0.0,0.0,0.0,0.0,0.0,0.0,0.0,0.0,0.0,0.0,0.0,0.0,0.0,0.0,0.0,0.0,0.0,0.0,0.0,0.0,0.0,0.0,0.0,0.0,0.0,0.0,0.0,0.0,0.0,0.0,0.0,0.0,0.0,0.0,0.0,0.0,0.0,0.0,0.0,0.0,0.0,0.0,0.0,0.0,0.0,0.0,0.0,0.0,0.0,0.0,0.0,0.0,0.0,0.0,0.0,0.0,0.0,0.0,0.0,0.0,0.0,0.0,0.0,0.0,0.0,0.0,0.0,0.0,0.0,0.0,0.0,0.0,0.0,0.0,0.0,0.0,0.0,0.0,0.0,0.0,0.0,0.0,0.0,0.0,0.0,0.0,0.0,0.0,0.0,0.0,0.0,0.0,0.0,0.0,0.0,0.0,0.0,0.0,0.0,0.0,0.0,0.0,0.0,0.0,0.0,0.0,0.0,0.0,0.0,0.0,0.0,0.0,0.0,0.0,0.0,0.0,0.0,0.0,0.0,0.0,0.0,0.0,0.0,0.0,0.0,0.0,0.0,0.0,0.0,0.0,0.0,0.0,0.0,0.0,0.0,0.0,0.0,0.0,0.0,0.0,0.0,0.0,0.0,0.0,0.0,0.0,0.0,0.0,0.0,0.0,0.0,0.0,0.0,0.0,0.0,0.0,0.0,0.0,0.0,0.0,0.0,0.0,0.0,0.0,0.0,0.0,0.0,0.0,0.0,0.0,0.0,0.0,0.0,0.0,0.0,0.0,0.0,0.0,0.0,0.0,0.0,0.0,0.0,0.0,0.0,0.0,0.0,0.0,0.0,0.0,0.0,0.0,0.0,0.0,0.0,0.0,0.0,0.0,0.0,0.0,0.0,0.0,0.0,0.0,0.0,0.0,0.0,0.0,0.0,0.0,0.0,0.0,0.0,0.0,0.0,0.0,0.0,0.0,0.0,0.0,0.0,0.0,0.0,0.0,0.0,0.0,0.0,0.0,0.0,0.0,0.0,0.0,0.0,0.0,0.0,0.0,0.0,0.0,0.0,0.0,0.0,0.0,0.0,0.0,0.0,0.0,0.0,0.0,0.0,0.0,0.0,0.0,0.0,0.0,0.0,0.0,0.0,0.0,0.0,0.0,0.0,0.0,0.0,0.0,0.0,0.0,0.0,0.0,0.0,0.0,0.0,0.0,0.0,0.0,0.0,0.0,0.0,0.0,0.0,0.0,0.0,0.0,0.0,0.0,0.0,0.0,0.0,0.0,0.0,0.0,0.0,0.0,0.0,0.0,0.0,0.0,0.0,0.0,0.0,0.0,0.0,0.0,0.0,0.0,0.0,0.0,0.0,0.0,0.0,0.0,0.0,0.0,0.0,0.0,0.0,0.0,0.0,0.0,0.0,0.0,0.0,0.0,0.0,0.0,0.0,0.0,0.0,0.0,0.0,0.0,0.0,0.0,0.0,0.0,0.0,0.0,0.0,0.0,0.0,0.0,0.0,0.0,0.0,0.0,0.0,0.0,0.0,0.0,0.0,0.0,0.0,0.0,0.0,0.0,0.0,0.0,0.0,0.0,0.0,0.0,0.0,0.0,0.0,0.0,0.0,0.0,0.0,0.0,0.0,0.0,0.0,0.0,0.0,0.0,0.0,0.0,0.0,0.0,0.0,0.0,0.0,0.0,0.0,0.0,0.0]}]]]